<?xml version="1.0" encoding="UTF-8" standalone="no" ?>
<gpx xmlns="http://www.topografix.com/GPX/1/1" xmlns:xsi="http://www.w3.org/2001/XMLSchema-instance" xsi:schemaLocation="http://www.topografix.com/GPX/1/1 http://www.topografix.com/GPX/1/1/gpx.xsd" version="1.1" creator="VisuGPX - https://www.visugpx.com">
  <metadata>
    <name>RANDO GUIZAY 27 KM</name>
    <desc><![CDATA[RANDO GUIZAY 27 KM.DEPART ARRIVEE PARKING ANTENNE DU GUIZAY.CROIX DU TREVE.LA PALLE.PLENEY.LABOURET.TISSOT.FONTBONNE.LE BRIAT.BARRAGE DE COTATAY.CROIX DU BESSY.L ONDENON.FONT ECUELLE.]]></desc>
  </metadata>
  <trk>
    <name><![CDATA[RANDO GUIZAY]]></name>
    <extensions>
      <line xmlns="http://www.topografix.com/GPX/gpx_style/0/2">
        <color>0000FF</color>
        <width>4</width>
      </line>
    </extensions>
    <trkseg>
      <trkpt lat="45.08734" lon="3.49211">
        <ele>612.2</ele>
      </trkpt>
    </trkseg>
  </trk>
  <trk>
    <name><![CDATA[17-FEV-22 16:35:59]]></name>
    <extensions>
      <line xmlns="http://www.topografix.com/GPX/gpx_style/0/2">
        <color>0000FF</color>
        <width>4</width>
      </line>
    </extensions>
    <trkseg>
      <trkpt lat="45.39551" lon="4.40048">
        <ele>875.42</ele>
        <time>2022-02-17T08:27:17Z</time>
      </trkpt>
      <trkpt lat="45.39551" lon="4.40052">
        <ele>873.98</ele>
        <time>2022-02-17T08:27:33Z</time>
      </trkpt>
      <trkpt lat="45.39552" lon="4.40053">
        <ele>874.94</ele>
        <time>2022-02-17T08:28:02Z</time>
      </trkpt>
      <trkpt lat="45.3955" lon="4.40049">
        <ele>876.38</ele>
        <time>2022-02-17T08:28:28Z</time>
      </trkpt>
      <trkpt lat="45.39549" lon="4.40049">
        <ele>875.9</ele>
        <time>2022-02-17T08:28:52Z</time>
      </trkpt>
      <trkpt lat="45.39548" lon="4.40049">
        <ele>875.9</ele>
        <time>2022-02-17T08:29:06Z</time>
      </trkpt>
      <trkpt lat="45.39549" lon="4.40049">
        <ele>875.9</ele>
        <time>2022-02-17T08:29:17Z</time>
      </trkpt>
      <trkpt lat="45.39549" lon="4.40048">
        <ele>876.38</ele>
        <time>2022-02-17T08:29:32Z</time>
      </trkpt>
      <trkpt lat="45.39549" lon="4.40046">
        <ele>875.42</ele>
        <time>2022-02-17T08:30:01Z</time>
      </trkpt>
      <trkpt lat="45.39549" lon="4.40047">
        <ele>875.9</ele>
        <time>2022-02-17T08:30:23Z</time>
      </trkpt>
      <trkpt lat="45.39547" lon="4.40049">
        <ele>874.94</ele>
        <time>2022-02-17T08:30:36Z</time>
      </trkpt>
      <trkpt lat="45.39545" lon="4.4005">
        <ele>874.94</ele>
        <time>2022-02-17T08:31:04Z</time>
      </trkpt>
      <trkpt lat="45.39542" lon="4.40056">
        <ele>874.94</ele>
        <time>2022-02-17T08:31:15Z</time>
      </trkpt>
      <trkpt lat="45.39535" lon="4.4006">
        <ele>874.46</ele>
        <time>2022-02-17T08:31:21Z</time>
      </trkpt>
      <trkpt lat="45.39517" lon="4.40091">
        <ele>873.01</ele>
        <time>2022-02-17T08:31:43Z</time>
      </trkpt>
      <trkpt lat="45.39508" lon="4.4011">
        <ele>873.01</ele>
        <time>2022-02-17T08:31:55Z</time>
      </trkpt>
      <trkpt lat="45.39494" lon="4.40134">
        <ele>874.46</ele>
        <time>2022-02-17T08:32:13Z</time>
      </trkpt>
      <trkpt lat="45.3949" lon="4.40149">
        <ele>877.82</ele>
        <time>2022-02-17T08:32:23Z</time>
      </trkpt>
      <trkpt lat="45.39478" lon="4.40175">
        <ele>879.26</ele>
        <time>2022-02-17T08:32:40Z</time>
      </trkpt>
      <trkpt lat="45.39465" lon="4.40199">
        <ele>881.67</ele>
        <time>2022-02-17T08:32:56Z</time>
      </trkpt>
      <trkpt lat="45.39452" lon="4.40222">
        <ele>885.51</ele>
        <time>2022-02-17T08:33:12Z</time>
      </trkpt>
      <trkpt lat="45.39446" lon="4.4025">
        <ele>885.99</ele>
        <time>2022-02-17T08:33:28Z</time>
      </trkpt>
      <trkpt lat="45.39432" lon="4.40283">
        <ele>888.88</ele>
        <time>2022-02-17T08:33:47Z</time>
      </trkpt>
      <trkpt lat="45.39418" lon="4.40313">
        <ele>890.32</ele>
        <time>2022-02-17T08:34:05Z</time>
      </trkpt>
      <trkpt lat="45.39417" lon="4.40316">
        <ele>890.8</ele>
        <time>2022-02-17T08:34:07Z</time>
      </trkpt>
      <trkpt lat="45.39414" lon="4.40323">
        <ele>891.28</ele>
        <time>2022-02-17T08:34:11Z</time>
      </trkpt>
      <trkpt lat="45.39402" lon="4.40352">
        <ele>893.2</ele>
        <time>2022-02-17T08:34:29Z</time>
      </trkpt>
      <trkpt lat="45.39387" lon="4.40373">
        <ele>895.12</ele>
        <time>2022-02-17T08:34:46Z</time>
      </trkpt>
      <trkpt lat="45.39384" lon="4.40377">
        <ele>895.12</ele>
        <time>2022-02-17T08:34:50Z</time>
      </trkpt>
      <trkpt lat="45.39376" lon="4.40388">
        <ele>896.09</ele>
        <time>2022-02-17T08:34:59Z</time>
      </trkpt>
      <trkpt lat="45.39371" lon="4.40398">
        <ele>897.05</ele>
        <time>2022-02-17T08:35:06Z</time>
      </trkpt>
      <trkpt lat="45.39365" lon="4.40438">
        <ele>900.89</ele>
        <time>2022-02-17T08:35:26Z</time>
      </trkpt>
      <trkpt lat="45.39358" lon="4.40469">
        <ele>903.78</ele>
        <time>2022-02-17T08:35:42Z</time>
      </trkpt>
      <trkpt lat="45.39343" lon="4.40502">
        <ele>904.26</ele>
        <time>2022-02-17T08:36:01Z</time>
      </trkpt>
      <trkpt lat="45.39335" lon="4.40534">
        <ele>905.7</ele>
        <time>2022-02-17T08:36:18Z</time>
      </trkpt>
      <trkpt lat="45.39327" lon="4.40563">
        <ele>906.66</ele>
        <time>2022-02-17T08:36:35Z</time>
      </trkpt>
      <trkpt lat="45.39314" lon="4.40604">
        <ele>907.62</ele>
        <time>2022-02-17T08:36:57Z</time>
      </trkpt>
      <trkpt lat="45.3931" lon="4.40619">
        <ele>908.58</ele>
        <time>2022-02-17T08:37:05Z</time>
      </trkpt>
      <trkpt lat="45.39302" lon="4.40653">
        <ele>910.03</ele>
        <time>2022-02-17T08:37:23Z</time>
      </trkpt>
      <trkpt lat="45.39294" lon="4.40688">
        <ele>911.47</ele>
        <time>2022-02-17T08:37:42Z</time>
      </trkpt>
      <trkpt lat="45.39286" lon="4.40722">
        <ele>912.43</ele>
        <time>2022-02-17T08:37:59Z</time>
      </trkpt>
      <trkpt lat="45.39276" lon="4.40766">
        <ele>913.39</ele>
        <time>2022-02-17T08:38:21Z</time>
      </trkpt>
      <trkpt lat="45.39264" lon="4.40804">
        <ele>915.79</ele>
        <time>2022-02-17T08:38:41Z</time>
      </trkpt>
      <trkpt lat="45.39251" lon="4.40841">
        <ele>917.72</ele>
        <time>2022-02-17T08:39:01Z</time>
      </trkpt>
      <trkpt lat="45.39237" lon="4.40879">
        <ele>919.16</ele>
        <time>2022-02-17T08:39:22Z</time>
      </trkpt>
      <trkpt lat="45.39225" lon="4.40911">
        <ele>921.08</ele>
        <time>2022-02-17T08:39:39Z</time>
      </trkpt>
      <trkpt lat="45.39213" lon="4.4094">
        <ele>922.04</ele>
        <time>2022-02-17T08:39:55Z</time>
      </trkpt>
      <trkpt lat="45.39208" lon="4.4097">
        <ele>925.89</ele>
        <time>2022-02-17T08:40:10Z</time>
      </trkpt>
      <trkpt lat="45.39198" lon="4.40992">
        <ele>930.21</ele>
        <time>2022-02-17T08:40:27Z</time>
      </trkpt>
      <trkpt lat="45.39195" lon="4.41001">
        <ele>931.17</ele>
        <time>2022-02-17T08:40:33Z</time>
      </trkpt>
      <trkpt lat="45.39188" lon="4.41038">
        <ele>930.21</ele>
        <time>2022-02-17T08:40:50Z</time>
      </trkpt>
      <trkpt lat="45.39187" lon="4.41076">
        <ele>926.85</ele>
        <time>2022-02-17T08:41:06Z</time>
      </trkpt>
      <trkpt lat="45.39185" lon="4.41114">
        <ele>924.93</ele>
        <time>2022-02-17T08:41:23Z</time>
      </trkpt>
      <trkpt lat="45.39187" lon="4.41152">
        <ele>922.52</ele>
        <time>2022-02-17T08:41:40Z</time>
      </trkpt>
      <trkpt lat="45.39185" lon="4.41184">
        <ele>918.68</ele>
        <time>2022-02-17T08:41:55Z</time>
      </trkpt>
      <trkpt lat="45.39187" lon="4.41191">
        <ele>918.68</ele>
        <time>2022-02-17T08:41:59Z</time>
      </trkpt>
      <trkpt lat="45.39197" lon="4.41227">
        <ele>917.72</ele>
        <time>2022-02-17T08:42:18Z</time>
      </trkpt>
      <trkpt lat="45.39207" lon="4.41263">
        <ele>915.31</ele>
        <time>2022-02-17T08:42:37Z</time>
      </trkpt>
      <trkpt lat="45.39211" lon="4.41284">
        <ele>914.35</ele>
        <time>2022-02-17T08:42:47Z</time>
      </trkpt>
      <trkpt lat="45.39212" lon="4.41297">
        <ele>911.95</ele>
        <time>2022-02-17T08:42:52Z</time>
      </trkpt>
      <trkpt lat="45.39217" lon="4.41321">
        <ele>908.58</ele>
        <time>2022-02-17T08:43:05Z</time>
      </trkpt>
      <trkpt lat="45.39219" lon="4.41355">
        <ele>907.14</ele>
        <time>2022-02-17T08:43:23Z</time>
      </trkpt>
      <trkpt lat="45.392" lon="4.41376">
        <ele>905.7</ele>
        <time>2022-02-17T08:43:41Z</time>
      </trkpt>
      <trkpt lat="45.39181" lon="4.41382">
        <ele>906.66</ele>
        <time>2022-02-17T08:43:55Z</time>
      </trkpt>
      <trkpt lat="45.39178" lon="4.41383">
        <ele>907.62</ele>
        <time>2022-02-17T08:43:57Z</time>
      </trkpt>
      <trkpt lat="45.39174" lon="4.41384">
        <ele>908.58</ele>
        <time>2022-02-17T08:44:01Z</time>
      </trkpt>
      <trkpt lat="45.39163" lon="4.41386">
        <ele>909.54</ele>
        <time>2022-02-17T08:44:09Z</time>
      </trkpt>
      <trkpt lat="45.39138" lon="4.41389">
        <ele>910.03</ele>
        <time>2022-02-17T08:44:26Z</time>
      </trkpt>
      <trkpt lat="45.39119" lon="4.41395">
        <ele>907.14</ele>
        <time>2022-02-17T08:44:40Z</time>
      </trkpt>
      <trkpt lat="45.39097" lon="4.41404">
        <ele>908.58</ele>
        <time>2022-02-17T08:44:56Z</time>
      </trkpt>
      <trkpt lat="45.39085" lon="4.41436">
        <ele>909.54</ele>
        <time>2022-02-17T08:45:12Z</time>
      </trkpt>
      <trkpt lat="45.39074" lon="4.41476">
        <ele>910.99</ele>
        <time>2022-02-17T08:45:33Z</time>
      </trkpt>
      <trkpt lat="45.39065" lon="4.41513">
        <ele>910.51</ele>
        <time>2022-02-17T08:45:51Z</time>
      </trkpt>
      <trkpt lat="45.39054" lon="4.41551">
        <ele>910.51</ele>
        <time>2022-02-17T08:46:10Z</time>
      </trkpt>
      <trkpt lat="45.3904" lon="4.41584">
        <ele>909.54</ele>
        <time>2022-02-17T08:46:28Z</time>
      </trkpt>
      <trkpt lat="45.39022" lon="4.41614">
        <ele>910.51</ele>
        <time>2022-02-17T08:46:47Z</time>
      </trkpt>
      <trkpt lat="45.39002" lon="4.41641">
        <ele>911.95</ele>
        <time>2022-02-17T08:47:06Z</time>
      </trkpt>
      <trkpt lat="45.38984" lon="4.41666">
        <ele>912.91</ele>
        <time>2022-02-17T08:47:24Z</time>
      </trkpt>
      <trkpt lat="45.38968" lon="4.41693">
        <ele>913.87</ele>
        <time>2022-02-17T08:47:42Z</time>
      </trkpt>
      <trkpt lat="45.38952" lon="4.41718">
        <ele>914.83</ele>
        <time>2022-02-17T08:47:57Z</time>
      </trkpt>
      <trkpt lat="45.38941" lon="4.41741">
        <ele>915.31</ele>
        <time>2022-02-17T08:48:11Z</time>
      </trkpt>
      <trkpt lat="45.38937" lon="4.41754">
        <ele>915.31</ele>
        <time>2022-02-17T08:48:25Z</time>
      </trkpt>
      <trkpt lat="45.38934" lon="4.41759">
        <ele>915.31</ele>
        <time>2022-02-17T08:48:29Z</time>
      </trkpt>
      <trkpt lat="45.38927" lon="4.41768">
        <ele>914.35</ele>
        <time>2022-02-17T08:48:39Z</time>
      </trkpt>
      <trkpt lat="45.38918" lon="4.41785">
        <ele>913.39</ele>
        <time>2022-02-17T08:48:52Z</time>
      </trkpt>
      <trkpt lat="45.38908" lon="4.4181">
        <ele>911.95</ele>
        <time>2022-02-17T08:49:08Z</time>
      </trkpt>
      <trkpt lat="45.389" lon="4.41831">
        <ele>911.47</ele>
        <time>2022-02-17T08:49:23Z</time>
      </trkpt>
      <trkpt lat="45.38897" lon="4.41839">
        <ele>912.43</ele>
        <time>2022-02-17T08:49:29Z</time>
      </trkpt>
      <trkpt lat="45.38893" lon="4.41852">
        <ele>913.39</ele>
        <time>2022-02-17T08:49:37Z</time>
      </trkpt>
      <trkpt lat="45.3889" lon="4.41865">
        <ele>913.39</ele>
        <time>2022-02-17T08:49:45Z</time>
      </trkpt>
      <trkpt lat="45.38887" lon="4.41882">
        <ele>913.87</ele>
        <time>2022-02-17T08:49:56Z</time>
      </trkpt>
      <trkpt lat="45.38884" lon="4.41909">
        <ele>914.35</ele>
        <time>2022-02-17T08:50:11Z</time>
      </trkpt>
      <trkpt lat="45.38883" lon="4.41921">
        <ele>914.83</ele>
        <time>2022-02-17T08:50:18Z</time>
      </trkpt>
      <trkpt lat="45.38882" lon="4.41934">
        <ele>915.31</ele>
        <time>2022-02-17T08:50:26Z</time>
      </trkpt>
      <trkpt lat="45.38881" lon="4.41943">
        <ele>915.31</ele>
        <time>2022-02-17T08:50:31Z</time>
      </trkpt>
      <trkpt lat="45.38875" lon="4.41973">
        <ele>918.2</ele>
        <time>2022-02-17T08:50:48Z</time>
      </trkpt>
      <trkpt lat="45.38867" lon="4.42001">
        <ele>918.68</ele>
        <time>2022-02-17T08:51:05Z</time>
      </trkpt>
      <trkpt lat="45.3886" lon="4.42025">
        <ele>919.64</ele>
        <time>2022-02-17T08:51:20Z</time>
      </trkpt>
      <trkpt lat="45.38852" lon="4.42049">
        <ele>922.04</ele>
        <time>2022-02-17T08:51:35Z</time>
      </trkpt>
      <trkpt lat="45.38844" lon="4.42072">
        <ele>923</ele>
        <time>2022-02-17T08:51:50Z</time>
      </trkpt>
      <trkpt lat="45.38838" lon="4.42093">
        <ele>924.45</ele>
        <time>2022-02-17T08:52:03Z</time>
      </trkpt>
      <trkpt lat="45.38832" lon="4.42103">
        <ele>924.93</ele>
        <time>2022-02-17T08:52:13Z</time>
      </trkpt>
      <trkpt lat="45.38828" lon="4.42104">
        <ele>925.41</ele>
        <time>2022-02-17T08:52:17Z</time>
      </trkpt>
      <trkpt lat="45.38824" lon="4.421">
        <ele>925.89</ele>
        <time>2022-02-17T08:52:22Z</time>
      </trkpt>
      <trkpt lat="45.3882" lon="4.42085">
        <ele>928.77</ele>
        <time>2022-02-17T08:52:36Z</time>
      </trkpt>
      <trkpt lat="45.3882" lon="4.42083">
        <ele>928.29</ele>
        <time>2022-02-17T08:52:55Z</time>
      </trkpt>
      <trkpt lat="45.38819" lon="4.42083">
        <ele>928.77</ele>
        <time>2022-02-17T08:53:10Z</time>
      </trkpt>
      <trkpt lat="45.38819" lon="4.42079">
        <ele>928.77</ele>
        <time>2022-02-17T08:53:23Z</time>
      </trkpt>
      <trkpt lat="45.38818" lon="4.42077">
        <ele>928.29</ele>
        <time>2022-02-17T08:53:27Z</time>
      </trkpt>
      <trkpt lat="45.38816" lon="4.42069">
        <ele>928.29</ele>
        <time>2022-02-17T08:53:32Z</time>
      </trkpt>
      <trkpt lat="45.38814" lon="4.42049">
        <ele>928.77</ele>
        <time>2022-02-17T08:53:42Z</time>
      </trkpt>
      <trkpt lat="45.38812" lon="4.42029">
        <ele>929.25</ele>
        <time>2022-02-17T08:53:52Z</time>
      </trkpt>
      <trkpt lat="45.38811" lon="4.42011">
        <ele>930.21</ele>
        <time>2022-02-17T08:54:01Z</time>
      </trkpt>
      <trkpt lat="45.3881" lon="4.41986">
        <ele>928.29</ele>
        <time>2022-02-17T08:54:13Z</time>
      </trkpt>
      <trkpt lat="45.38807" lon="4.41966">
        <ele>927.81</ele>
        <time>2022-02-17T08:54:23Z</time>
      </trkpt>
      <trkpt lat="45.38805" lon="4.4196">
        <ele>927.81</ele>
        <time>2022-02-17T08:54:27Z</time>
      </trkpt>
      <trkpt lat="45.388" lon="4.41935">
        <ele>929.73</ele>
        <time>2022-02-17T08:54:40Z</time>
      </trkpt>
      <trkpt lat="45.38795" lon="4.41914">
        <ele>929.73</ele>
        <time>2022-02-17T08:54:53Z</time>
      </trkpt>
      <trkpt lat="45.38794" lon="4.41894">
        <ele>935.02</ele>
        <time>2022-02-17T08:55:05Z</time>
      </trkpt>
      <trkpt lat="45.38794" lon="4.41891">
        <ele>935.98</ele>
        <time>2022-02-17T08:55:07Z</time>
      </trkpt>
      <trkpt lat="45.38788" lon="4.41873">
        <ele>941.27</ele>
        <time>2022-02-17T08:55:20Z</time>
      </trkpt>
      <trkpt lat="45.38784" lon="4.41866">
        <ele>943.67</ele>
        <time>2022-02-17T08:55:25Z</time>
      </trkpt>
      <trkpt lat="45.38782" lon="4.41858">
        <ele>944.63</ele>
        <time>2022-02-17T08:55:29Z</time>
      </trkpt>
      <trkpt lat="45.38775" lon="4.41839">
        <ele>944.63</ele>
        <time>2022-02-17T08:55:39Z</time>
      </trkpt>
      <trkpt lat="45.38772" lon="4.41827">
        <ele>944.63</ele>
        <time>2022-02-17T08:55:45Z</time>
      </trkpt>
      <trkpt lat="45.38765" lon="4.41812">
        <ele>945.59</ele>
        <time>2022-02-17T08:55:55Z</time>
      </trkpt>
      <trkpt lat="45.3876" lon="4.418">
        <ele>949.92</ele>
        <time>2022-02-17T08:56:07Z</time>
      </trkpt>
      <trkpt lat="45.38755" lon="4.41794">
        <ele>955.21</ele>
        <time>2022-02-17T08:56:15Z</time>
      </trkpt>
      <trkpt lat="45.38751" lon="4.41787">
        <ele>960.01</ele>
        <time>2022-02-17T08:56:25Z</time>
      </trkpt>
      <trkpt lat="45.38746" lon="4.41778">
        <ele>966.26</ele>
        <time>2022-02-17T08:56:37Z</time>
      </trkpt>
      <trkpt lat="45.38737" lon="4.41773">
        <ele>968.18</ele>
        <time>2022-02-17T08:56:46Z</time>
      </trkpt>
      <trkpt lat="45.38726" lon="4.41767">
        <ele>970.59</ele>
        <time>2022-02-17T08:56:58Z</time>
      </trkpt>
      <trkpt lat="45.38707" lon="4.41754">
        <ele>972.51</ele>
        <time>2022-02-17T08:57:10Z</time>
      </trkpt>
      <trkpt lat="45.38699" lon="4.4175">
        <ele>972.03</ele>
        <time>2022-02-17T08:57:15Z</time>
      </trkpt>
      <trkpt lat="45.38685" lon="4.41746">
        <ele>971.07</ele>
        <time>2022-02-17T08:57:24Z</time>
      </trkpt>
      <trkpt lat="45.38665" lon="4.41738">
        <ele>971.07</ele>
        <time>2022-02-17T08:57:37Z</time>
      </trkpt>
      <trkpt lat="45.38644" lon="4.41735">
        <ele>971.07</ele>
        <time>2022-02-17T08:57:51Z</time>
      </trkpt>
      <trkpt lat="45.38619" lon="4.41734">
        <ele>967.22</ele>
        <time>2022-02-17T08:58:04Z</time>
      </trkpt>
      <trkpt lat="45.38596" lon="4.41734">
        <ele>961.94</ele>
        <time>2022-02-17T08:58:15Z</time>
      </trkpt>
      <trkpt lat="45.38581" lon="4.41736">
        <ele>961.46</ele>
        <time>2022-02-17T08:58:27Z</time>
      </trkpt>
      <trkpt lat="45.38562" lon="4.41746">
        <ele>957.13</ele>
        <time>2022-02-17T08:58:40Z</time>
      </trkpt>
      <trkpt lat="45.38553" lon="4.41749">
        <ele>955.69</ele>
        <time>2022-02-17T08:58:53Z</time>
      </trkpt>
      <trkpt lat="45.3854" lon="4.41761">
        <ele>956.65</ele>
        <time>2022-02-17T08:59:07Z</time>
      </trkpt>
      <trkpt lat="45.38527" lon="4.41774">
        <ele>959.05</ele>
        <time>2022-02-17T08:59:21Z</time>
      </trkpt>
      <trkpt lat="45.38521" lon="4.41783">
        <ele>960.49</ele>
        <time>2022-02-17T08:59:29Z</time>
      </trkpt>
      <trkpt lat="45.38506" lon="4.418">
        <ele>961.46</ele>
        <time>2022-02-17T08:59:44Z</time>
      </trkpt>
      <trkpt lat="45.38493" lon="4.41811">
        <ele>961.94</ele>
        <time>2022-02-17T08:59:57Z</time>
      </trkpt>
      <trkpt lat="45.38481" lon="4.41824">
        <ele>962.42</ele>
        <time>2022-02-17T09:00:10Z</time>
      </trkpt>
      <trkpt lat="45.38467" lon="4.41841">
        <ele>961.94</ele>
        <time>2022-02-17T09:00:23Z</time>
      </trkpt>
      <trkpt lat="45.38461" lon="4.41847">
        <ele>962.9</ele>
        <time>2022-02-17T09:00:29Z</time>
      </trkpt>
      <trkpt lat="45.38454" lon="4.41854">
        <ele>963.38</ele>
        <time>2022-02-17T09:00:36Z</time>
      </trkpt>
      <trkpt lat="45.3844" lon="4.41868">
        <ele>964.34</ele>
        <time>2022-02-17T09:00:51Z</time>
      </trkpt>
      <trkpt lat="45.38421" lon="4.41883">
        <ele>965.3</ele>
        <time>2022-02-17T09:01:04Z</time>
      </trkpt>
      <trkpt lat="45.38411" lon="4.41898">
        <ele>969.63</ele>
        <time>2022-02-17T09:01:16Z</time>
      </trkpt>
      <trkpt lat="45.38401" lon="4.41911">
        <ele>970.59</ele>
        <time>2022-02-17T09:01:25Z</time>
      </trkpt>
      <trkpt lat="45.38387" lon="4.41931">
        <ele>975.39</ele>
        <time>2022-02-17T09:01:40Z</time>
      </trkpt>
      <trkpt lat="45.38371" lon="4.41952">
        <ele>976.36</ele>
        <time>2022-02-17T09:01:56Z</time>
      </trkpt>
      <trkpt lat="45.38364" lon="4.41968">
        <ele>977.8</ele>
        <time>2022-02-17T09:02:07Z</time>
      </trkpt>
      <trkpt lat="45.38354" lon="4.4199">
        <ele>978.28</ele>
        <time>2022-02-17T09:02:21Z</time>
      </trkpt>
      <trkpt lat="45.38346" lon="4.41999">
        <ele>977.32</ele>
        <time>2022-02-17T09:02:32Z</time>
      </trkpt>
      <trkpt lat="45.38334" lon="4.42019">
        <ele>977.8</ele>
        <time>2022-02-17T09:02:48Z</time>
      </trkpt>
      <trkpt lat="45.38327" lon="4.42036">
        <ele>976.36</ele>
        <time>2022-02-17T09:03:00Z</time>
      </trkpt>
      <trkpt lat="45.38322" lon="4.42061">
        <ele>973.95</ele>
        <time>2022-02-17T09:03:14Z</time>
      </trkpt>
      <trkpt lat="45.38321" lon="4.42065">
        <ele>973.47</ele>
        <time>2022-02-17T09:03:16Z</time>
      </trkpt>
      <trkpt lat="45.3832" lon="4.42073">
        <ele>973.95</ele>
        <time>2022-02-17T09:03:20Z</time>
      </trkpt>
      <trkpt lat="45.38317" lon="4.4208">
        <ele>973.95</ele>
        <time>2022-02-17T09:03:24Z</time>
      </trkpt>
      <trkpt lat="45.3831" lon="4.42097">
        <ele>972.51</ele>
        <time>2022-02-17T09:03:39Z</time>
      </trkpt>
      <trkpt lat="45.38308" lon="4.42105">
        <ele>973.95</ele>
        <time>2022-02-17T09:03:51Z</time>
      </trkpt>
      <trkpt lat="45.38307" lon="4.42123">
        <ele>976.84</ele>
        <time>2022-02-17T09:04:03Z</time>
      </trkpt>
      <trkpt lat="45.38307" lon="4.42126">
        <ele>977.32</ele>
        <time>2022-02-17T09:04:04Z</time>
      </trkpt>
      <trkpt lat="45.38305" lon="4.42156">
        <ele>985.97</ele>
        <time>2022-02-17T09:04:20Z</time>
      </trkpt>
      <trkpt lat="45.38304" lon="4.42176">
        <ele>992.7</ele>
        <time>2022-02-17T09:04:33Z</time>
      </trkpt>
      <trkpt lat="45.38307" lon="4.42199">
        <ele>996.54</ele>
        <time>2022-02-17T09:04:47Z</time>
      </trkpt>
      <trkpt lat="45.38307" lon="4.42222">
        <ele>998.47</ele>
        <time>2022-02-17T09:05:03Z</time>
      </trkpt>
      <trkpt lat="45.38307" lon="4.4224">
        <ele>1000.39</ele>
        <time>2022-02-17T09:05:16Z</time>
      </trkpt>
      <trkpt lat="45.38313" lon="4.42261">
        <ele>1003.75</ele>
        <time>2022-02-17T09:05:27Z</time>
      </trkpt>
      <trkpt lat="45.38317" lon="4.42283">
        <ele>1007.12</ele>
        <time>2022-02-17T09:05:41Z</time>
      </trkpt>
      <trkpt lat="45.38318" lon="4.42298">
        <ele>1007.12</ele>
        <time>2022-02-17T09:05:50Z</time>
      </trkpt>
      <trkpt lat="45.38317" lon="4.42323">
        <ele>1004.23</ele>
        <time>2022-02-17T09:06:03Z</time>
      </trkpt>
      <trkpt lat="45.38317" lon="4.42326">
        <ele>1002.79</ele>
        <time>2022-02-17T09:06:06Z</time>
      </trkpt>
      <trkpt lat="45.38313" lon="4.4234">
        <ele>998.95</ele>
        <time>2022-02-17T09:06:19Z</time>
      </trkpt>
      <trkpt lat="45.38309" lon="4.42339">
        <ele>999.91</ele>
        <time>2022-02-17T09:06:26Z</time>
      </trkpt>
      <trkpt lat="45.38303" lon="4.42334">
        <ele>1001.83</ele>
        <time>2022-02-17T09:06:39Z</time>
      </trkpt>
      <trkpt lat="45.38297" lon="4.42334">
        <ele>1005.2</ele>
        <time>2022-02-17T09:06:51Z</time>
      </trkpt>
      <trkpt lat="45.38294" lon="4.42334">
        <ele>1005.68</ele>
        <time>2022-02-17T09:06:54Z</time>
      </trkpt>
      <trkpt lat="45.3829" lon="4.42336">
        <ele>1006.64</ele>
        <time>2022-02-17T09:06:59Z</time>
      </trkpt>
      <trkpt lat="45.38283" lon="4.42346">
        <ele>1005.68</ele>
        <time>2022-02-17T09:07:11Z</time>
      </trkpt>
      <trkpt lat="45.38282" lon="4.42348">
        <ele>1005.2</ele>
        <time>2022-02-17T09:07:13Z</time>
      </trkpt>
      <trkpt lat="45.38282" lon="4.42354">
        <ele>1006.16</ele>
        <time>2022-02-17T09:07:17Z</time>
      </trkpt>
      <trkpt lat="45.38279" lon="4.42364">
        <ele>1007.12</ele>
        <time>2022-02-17T09:07:24Z</time>
      </trkpt>
      <trkpt lat="45.38278" lon="4.42367">
        <ele>1007.12</ele>
        <time>2022-02-17T09:07:26Z</time>
      </trkpt>
      <trkpt lat="45.38279" lon="4.42391">
        <ele>1007.12</ele>
        <time>2022-02-17T09:07:41Z</time>
      </trkpt>
      <trkpt lat="45.3828" lon="4.42417">
        <ele>1007.6</ele>
        <time>2022-02-17T09:07:56Z</time>
      </trkpt>
      <trkpt lat="45.38281" lon="4.42427">
        <ele>1007.12</ele>
        <time>2022-02-17T09:08:01Z</time>
      </trkpt>
      <trkpt lat="45.38281" lon="4.42432">
        <ele>1007.6</ele>
        <time>2022-02-17T09:08:04Z</time>
      </trkpt>
      <trkpt lat="45.38282" lon="4.42443">
        <ele>1008.08</ele>
        <time>2022-02-17T09:08:10Z</time>
      </trkpt>
      <trkpt lat="45.38282" lon="4.42449">
        <ele>1008.56</ele>
        <time>2022-02-17T09:08:14Z</time>
      </trkpt>
      <trkpt lat="45.38282" lon="4.4246">
        <ele>1009.04</ele>
        <time>2022-02-17T09:08:20Z</time>
      </trkpt>
      <trkpt lat="45.38289" lon="4.42485">
        <ele>1010</ele>
        <time>2022-02-17T09:08:35Z</time>
      </trkpt>
      <trkpt lat="45.38292" lon="4.42492">
        <ele>1010.96</ele>
        <time>2022-02-17T09:08:39Z</time>
      </trkpt>
      <trkpt lat="45.38296" lon="4.4251">
        <ele>1013.85</ele>
        <time>2022-02-17T09:08:51Z</time>
      </trkpt>
      <trkpt lat="45.38304" lon="4.42533">
        <ele>1015.77</ele>
        <time>2022-02-17T09:09:07Z</time>
      </trkpt>
      <trkpt lat="45.38315" lon="4.42543">
        <ele>1019.13</ele>
        <time>2022-02-17T09:09:22Z</time>
      </trkpt>
      <trkpt lat="45.38323" lon="4.42549">
        <ele>1020.1</ele>
        <time>2022-02-17T09:09:30Z</time>
      </trkpt>
      <trkpt lat="45.38338" lon="4.42568">
        <ele>1021.06</ele>
        <time>2022-02-17T09:09:46Z</time>
      </trkpt>
      <trkpt lat="45.38355" lon="4.42589">
        <ele>1022.98</ele>
        <time>2022-02-17T09:10:02Z</time>
      </trkpt>
      <trkpt lat="45.38358" lon="4.42605">
        <ele>1024.9</ele>
        <time>2022-02-17T09:10:15Z</time>
      </trkpt>
      <trkpt lat="45.38359" lon="4.42607">
        <ele>1024.42</ele>
        <time>2022-02-17T09:10:30Z</time>
      </trkpt>
      <trkpt lat="45.38359" lon="4.42606">
        <ele>1023.94</ele>
        <time>2022-02-17T09:10:54Z</time>
      </trkpt>
      <trkpt lat="45.38363" lon="4.42605">
        <ele>1023.46</ele>
        <time>2022-02-17T09:11:08Z</time>
      </trkpt>
      <trkpt lat="45.38362" lon="4.42607">
        <ele>1021.54</ele>
        <time>2022-02-17T09:11:20Z</time>
      </trkpt>
      <trkpt lat="45.38363" lon="4.42605">
        <ele>1021.54</ele>
        <time>2022-02-17T09:11:33Z</time>
      </trkpt>
      <trkpt lat="45.38364" lon="4.42606">
        <ele>1021.54</ele>
        <time>2022-02-17T09:11:51Z</time>
      </trkpt>
      <trkpt lat="45.38369" lon="4.42608">
        <ele>1021.54</ele>
        <time>2022-02-17T09:11:58Z</time>
      </trkpt>
      <trkpt lat="45.38388" lon="4.42597">
        <ele>1024.42</ele>
        <time>2022-02-17T09:12:14Z</time>
      </trkpt>
      <trkpt lat="45.38403" lon="4.42586">
        <ele>1024.42</ele>
        <time>2022-02-17T09:12:28Z</time>
      </trkpt>
      <trkpt lat="45.38416" lon="4.42582">
        <ele>1023.94</ele>
        <time>2022-02-17T09:12:37Z</time>
      </trkpt>
      <trkpt lat="45.38423" lon="4.4258">
        <ele>1023.94</ele>
        <time>2022-02-17T09:12:42Z</time>
      </trkpt>
      <trkpt lat="45.38446" lon="4.42573">
        <ele>1021.54</ele>
        <time>2022-02-17T09:12:59Z</time>
      </trkpt>
      <trkpt lat="45.38465" lon="4.42572">
        <ele>1020.1</ele>
        <time>2022-02-17T09:13:12Z</time>
      </trkpt>
      <trkpt lat="45.38486" lon="4.42585">
        <ele>1017.69</ele>
        <time>2022-02-17T09:13:29Z</time>
      </trkpt>
      <trkpt lat="45.38503" lon="4.42604">
        <ele>1014.81</ele>
        <time>2022-02-17T09:13:44Z</time>
      </trkpt>
      <trkpt lat="45.38519" lon="4.4263">
        <ele>1013.85</ele>
        <time>2022-02-17T09:14:02Z</time>
      </trkpt>
      <trkpt lat="45.38536" lon="4.42647">
        <ele>1012.41</ele>
        <time>2022-02-17T09:14:17Z</time>
      </trkpt>
      <trkpt lat="45.38546" lon="4.42662">
        <ele>1012.41</ele>
        <time>2022-02-17T09:14:28Z</time>
      </trkpt>
      <trkpt lat="45.3855" lon="4.42668">
        <ele>1011.93</ele>
        <time>2022-02-17T09:14:32Z</time>
      </trkpt>
      <trkpt lat="45.3857" lon="4.42687">
        <ele>1010.96</ele>
        <time>2022-02-17T09:14:49Z</time>
      </trkpt>
      <trkpt lat="45.38585" lon="4.42712">
        <ele>1009.04</ele>
        <time>2022-02-17T09:15:04Z</time>
      </trkpt>
      <trkpt lat="45.38588" lon="4.42717">
        <ele>1008.08</ele>
        <time>2022-02-17T09:15:08Z</time>
      </trkpt>
      <trkpt lat="45.38593" lon="4.42726">
        <ele>1008.08</ele>
        <time>2022-02-17T09:15:14Z</time>
      </trkpt>
      <trkpt lat="45.38605" lon="4.42757">
        <ele>1006.16</ele>
        <time>2022-02-17T09:15:32Z</time>
      </trkpt>
      <trkpt lat="45.38607" lon="4.4276">
        <ele>1006.64</ele>
        <time>2022-02-17T09:15:35Z</time>
      </trkpt>
      <trkpt lat="45.38611" lon="4.42768">
        <ele>1007.6</ele>
        <time>2022-02-17T09:15:41Z</time>
      </trkpt>
      <trkpt lat="45.38616" lon="4.4278">
        <ele>1007.6</ele>
        <time>2022-02-17T09:15:50Z</time>
      </trkpt>
      <trkpt lat="45.38629" lon="4.42794">
        <ele>1011.93</ele>
        <time>2022-02-17T09:16:04Z</time>
      </trkpt>
      <trkpt lat="45.38644" lon="4.42813">
        <ele>1012.89</ele>
        <time>2022-02-17T09:16:17Z</time>
      </trkpt>
      <trkpt lat="45.38654" lon="4.42827">
        <ele>1014.81</ele>
        <time>2022-02-17T09:16:28Z</time>
      </trkpt>
      <trkpt lat="45.38659" lon="4.4284">
        <ele>1016.25</ele>
        <time>2022-02-17T09:16:39Z</time>
      </trkpt>
      <trkpt lat="45.38665" lon="4.42846">
        <ele>1016.25</ele>
        <time>2022-02-17T09:16:43Z</time>
      </trkpt>
      <trkpt lat="45.3867" lon="4.42857">
        <ele>1015.29</ele>
        <time>2022-02-17T09:16:48Z</time>
      </trkpt>
      <trkpt lat="45.38681" lon="4.42874">
        <ele>1016.73</ele>
        <time>2022-02-17T09:16:58Z</time>
      </trkpt>
      <trkpt lat="45.38697" lon="4.42903">
        <ele>1010.96</ele>
        <time>2022-02-17T09:17:11Z</time>
      </trkpt>
      <trkpt lat="45.38706" lon="4.42923">
        <ele>1010</ele>
        <time>2022-02-17T09:17:22Z</time>
      </trkpt>
      <trkpt lat="45.38711" lon="4.42935">
        <ele>1009.52</ele>
        <time>2022-02-17T09:17:27Z</time>
      </trkpt>
      <trkpt lat="45.38713" lon="4.42944">
        <ele>1009.04</ele>
        <time>2022-02-17T09:17:31Z</time>
      </trkpt>
      <trkpt lat="45.38711" lon="4.4298">
        <ele>1007.6</ele>
        <time>2022-02-17T09:17:46Z</time>
      </trkpt>
      <trkpt lat="45.3871" lon="4.42982">
        <ele>1007.12</ele>
        <time>2022-02-17T09:17:47Z</time>
      </trkpt>
      <trkpt lat="45.38701" lon="4.43008">
        <ele>1004.23</ele>
        <time>2022-02-17T09:18:00Z</time>
      </trkpt>
      <trkpt lat="45.38668" lon="4.43021">
        <ele>992.7</ele>
        <time>2022-02-17T09:18:17Z</time>
      </trkpt>
      <trkpt lat="45.38663" lon="4.43024">
        <ele>993.18</ele>
        <time>2022-02-17T09:18:29Z</time>
      </trkpt>
      <trkpt lat="45.38664" lon="4.43029">
        <ele>992.7</ele>
        <time>2022-02-17T09:18:35Z</time>
      </trkpt>
      <trkpt lat="45.38667" lon="4.4303">
        <ele>991.74</ele>
        <time>2022-02-17T09:18:38Z</time>
      </trkpt>
      <trkpt lat="45.38675" lon="4.43023">
        <ele>989.81</ele>
        <time>2022-02-17T09:18:47Z</time>
      </trkpt>
      <trkpt lat="45.3869" lon="4.43016">
        <ele>986.45</ele>
        <time>2022-02-17T09:19:01Z</time>
      </trkpt>
      <trkpt lat="45.38692" lon="4.43017">
        <ele>986.45</ele>
        <time>2022-02-17T09:19:07Z</time>
      </trkpt>
      <trkpt lat="45.38691" lon="4.43027">
        <ele>986.45</ele>
        <time>2022-02-17T09:19:13Z</time>
      </trkpt>
      <trkpt lat="45.3867" lon="4.4305">
        <ele>985.97</ele>
        <time>2022-02-17T09:19:32Z</time>
      </trkpt>
      <trkpt lat="45.3865" lon="4.43065">
        <ele>985.97</ele>
        <time>2022-02-17T09:19:49Z</time>
      </trkpt>
      <trkpt lat="45.38626" lon="4.43071">
        <ele>985.01</ele>
        <time>2022-02-17T09:20:06Z</time>
      </trkpt>
      <trkpt lat="45.38605" lon="4.43075">
        <ele>985.97</ele>
        <time>2022-02-17T09:20:20Z</time>
      </trkpt>
      <trkpt lat="45.38583" lon="4.43094">
        <ele>986.93</ele>
        <time>2022-02-17T09:20:38Z</time>
      </trkpt>
      <trkpt lat="45.38572" lon="4.43119">
        <ele>988.85</ele>
        <time>2022-02-17T09:20:54Z</time>
      </trkpt>
      <trkpt lat="45.38573" lon="4.43146">
        <ele>994.14</ele>
        <time>2022-02-17T09:21:08Z</time>
      </trkpt>
      <trkpt lat="45.38575" lon="4.43154">
        <ele>996.06</ele>
        <time>2022-02-17T09:21:12Z</time>
      </trkpt>
      <trkpt lat="45.38576" lon="4.43166">
        <ele>999.43</ele>
        <time>2022-02-17T09:21:18Z</time>
      </trkpt>
      <trkpt lat="45.38573" lon="4.43175">
        <ele>1001.35</ele>
        <time>2022-02-17T09:21:23Z</time>
      </trkpt>
      <trkpt lat="45.38565" lon="4.43194">
        <ele>1002.31</ele>
        <time>2022-02-17T09:21:33Z</time>
      </trkpt>
      <trkpt lat="45.38554" lon="4.43212">
        <ele>1002.79</ele>
        <time>2022-02-17T09:21:44Z</time>
      </trkpt>
      <trkpt lat="45.38539" lon="4.43238">
        <ele>1002.31</ele>
        <time>2022-02-17T09:22:00Z</time>
      </trkpt>
      <trkpt lat="45.38527" lon="4.4326">
        <ele>1000.87</ele>
        <time>2022-02-17T09:22:13Z</time>
      </trkpt>
      <trkpt lat="45.38517" lon="4.43275">
        <ele>998.47</ele>
        <time>2022-02-17T09:22:23Z</time>
      </trkpt>
      <trkpt lat="45.38512" lon="4.43287">
        <ele>995.1</ele>
        <time>2022-02-17T09:22:31Z</time>
      </trkpt>
      <trkpt lat="45.38511" lon="4.43292">
        <ele>995.58</ele>
        <time>2022-02-17T09:22:35Z</time>
      </trkpt>
      <trkpt lat="45.38501" lon="4.43303">
        <ele>996.06</ele>
        <time>2022-02-17T09:22:44Z</time>
      </trkpt>
      <trkpt lat="45.38479" lon="4.4332">
        <ele>997.02</ele>
        <time>2022-02-17T09:23:02Z</time>
      </trkpt>
      <trkpt lat="45.38458" lon="4.43326">
        <ele>995.58</ele>
        <time>2022-02-17T09:23:17Z</time>
      </trkpt>
      <trkpt lat="45.38439" lon="4.43325">
        <ele>998.95</ele>
        <time>2022-02-17T09:23:29Z</time>
      </trkpt>
      <trkpt lat="45.38433" lon="4.43326">
        <ele>1001.83</ele>
        <time>2022-02-17T09:23:33Z</time>
      </trkpt>
      <trkpt lat="45.38427" lon="4.43326">
        <ele>1002.79</ele>
        <time>2022-02-17T09:23:37Z</time>
      </trkpt>
      <trkpt lat="45.3842" lon="4.43325">
        <ele>1002.79</ele>
        <time>2022-02-17T09:23:42Z</time>
      </trkpt>
      <trkpt lat="45.38403" lon="4.43325">
        <ele>1003.75</ele>
        <time>2022-02-17T09:23:54Z</time>
      </trkpt>
      <trkpt lat="45.3839" lon="4.43325">
        <ele>1006.64</ele>
        <time>2022-02-17T09:24:04Z</time>
      </trkpt>
      <trkpt lat="45.38383" lon="4.43318">
        <ele>1007.6</ele>
        <time>2022-02-17T09:24:12Z</time>
      </trkpt>
      <trkpt lat="45.38365" lon="4.43313">
        <ele>1010.96</ele>
        <time>2022-02-17T09:24:26Z</time>
      </trkpt>
      <trkpt lat="45.38358" lon="4.43311">
        <ele>1012.41</ele>
        <time>2022-02-17T09:24:32Z</time>
      </trkpt>
      <trkpt lat="45.38345" lon="4.43307">
        <ele>1015.29</ele>
        <time>2022-02-17T09:24:44Z</time>
      </trkpt>
      <trkpt lat="45.38331" lon="4.43296">
        <ele>1016.73</ele>
        <time>2022-02-17T09:24:58Z</time>
      </trkpt>
      <trkpt lat="45.38327" lon="4.43293">
        <ele>1016.25</ele>
        <time>2022-02-17T09:25:01Z</time>
      </trkpt>
      <trkpt lat="45.38318" lon="4.43274">
        <ele>1013.37</ele>
        <time>2022-02-17T09:25:14Z</time>
      </trkpt>
      <trkpt lat="45.38317" lon="4.43272">
        <ele>1012.89</ele>
        <time>2022-02-17T09:25:16Z</time>
      </trkpt>
      <trkpt lat="45.38313" lon="4.43262">
        <ele>1012.41</ele>
        <time>2022-02-17T09:25:23Z</time>
      </trkpt>
      <trkpt lat="45.38308" lon="4.43256">
        <ele>1012.89</ele>
        <time>2022-02-17T09:25:29Z</time>
      </trkpt>
      <trkpt lat="45.383" lon="4.43246">
        <ele>1015.29</ele>
        <time>2022-02-17T09:25:41Z</time>
      </trkpt>
      <trkpt lat="45.38289" lon="4.43226">
        <ele>1019.13</ele>
        <time>2022-02-17T09:25:57Z</time>
      </trkpt>
      <trkpt lat="45.38288" lon="4.43226">
        <ele>1019.13</ele>
        <time>2022-02-17T09:25:58Z</time>
      </trkpt>
      <trkpt lat="45.38277" lon="4.43222">
        <ele>1022.02</ele>
        <time>2022-02-17T09:26:07Z</time>
      </trkpt>
      <trkpt lat="45.38272" lon="4.43219">
        <ele>1022.5</ele>
        <time>2022-02-17T09:26:11Z</time>
      </trkpt>
      <trkpt lat="45.38258" lon="4.43207">
        <ele>1023.46</ele>
        <time>2022-02-17T09:26:24Z</time>
      </trkpt>
      <trkpt lat="45.38254" lon="4.43203">
        <ele>1022.98</ele>
        <time>2022-02-17T09:26:30Z</time>
      </trkpt>
      <trkpt lat="45.3825" lon="4.43203">
        <ele>1023.94</ele>
        <time>2022-02-17T09:26:35Z</time>
      </trkpt>
      <trkpt lat="45.38236" lon="4.43198">
        <ele>1026.83</ele>
        <time>2022-02-17T09:26:49Z</time>
      </trkpt>
      <trkpt lat="45.3823" lon="4.43197">
        <ele>1028.75</ele>
        <time>2022-02-17T09:26:54Z</time>
      </trkpt>
      <trkpt lat="45.38212" lon="4.43192">
        <ele>1032.59</ele>
        <time>2022-02-17T09:27:07Z</time>
      </trkpt>
      <trkpt lat="45.38198" lon="4.43183">
        <ele>1035</ele>
        <time>2022-02-17T09:27:20Z</time>
      </trkpt>
      <trkpt lat="45.38185" lon="4.43177">
        <ele>1036.44</ele>
        <time>2022-02-17T09:27:31Z</time>
      </trkpt>
      <trkpt lat="45.38169" lon="4.43166">
        <ele>1038.36</ele>
        <time>2022-02-17T09:27:44Z</time>
      </trkpt>
      <trkpt lat="45.38161" lon="4.4316">
        <ele>1039.8</ele>
        <time>2022-02-17T09:27:52Z</time>
      </trkpt>
      <trkpt lat="45.38159" lon="4.43156">
        <ele>1039.8</ele>
        <time>2022-02-17T09:27:55Z</time>
      </trkpt>
      <trkpt lat="45.38154" lon="4.43149">
        <ele>1039.8</ele>
        <time>2022-02-17T09:28:02Z</time>
      </trkpt>
      <trkpt lat="45.38148" lon="4.43143">
        <ele>1039.8</ele>
        <time>2022-02-17T09:28:14Z</time>
      </trkpt>
      <trkpt lat="45.3814" lon="4.43133">
        <ele>1041.73</ele>
        <time>2022-02-17T09:28:24Z</time>
      </trkpt>
      <trkpt lat="45.38131" lon="4.4312">
        <ele>1045.09</ele>
        <time>2022-02-17T09:28:36Z</time>
      </trkpt>
      <trkpt lat="45.38124" lon="4.43107">
        <ele>1047.49</ele>
        <time>2022-02-17T09:28:46Z</time>
      </trkpt>
      <trkpt lat="45.38122" lon="4.43103">
        <ele>1047.97</ele>
        <time>2022-02-17T09:28:49Z</time>
      </trkpt>
      <trkpt lat="45.38121" lon="4.43101">
        <ele>1048.45</ele>
        <time>2022-02-17T09:28:51Z</time>
      </trkpt>
      <trkpt lat="45.38112" lon="4.43093">
        <ele>1051.82</ele>
        <time>2022-02-17T09:29:02Z</time>
      </trkpt>
      <trkpt lat="45.38097" lon="4.43084">
        <ele>1054.7</ele>
        <time>2022-02-17T09:29:17Z</time>
      </trkpt>
      <trkpt lat="45.38085" lon="4.4308">
        <ele>1057.11</ele>
        <time>2022-02-17T09:29:31Z</time>
      </trkpt>
      <trkpt lat="45.3808" lon="4.4307">
        <ele>1055.67</ele>
        <time>2022-02-17T09:29:40Z</time>
      </trkpt>
      <trkpt lat="45.38072" lon="4.43053">
        <ele>1059.03</ele>
        <time>2022-02-17T09:29:54Z</time>
      </trkpt>
      <trkpt lat="45.38069" lon="4.43044">
        <ele>1061.43</ele>
        <time>2022-02-17T09:30:01Z</time>
      </trkpt>
      <trkpt lat="45.38068" lon="4.43027">
        <ele>1064.8</ele>
        <time>2022-02-17T09:30:12Z</time>
      </trkpt>
      <trkpt lat="45.38065" lon="4.43011">
        <ele>1066.24</ele>
        <time>2022-02-17T09:30:25Z</time>
      </trkpt>
      <trkpt lat="45.38064" lon="4.43009">
        <ele>1065.76</ele>
        <time>2022-02-17T09:30:27Z</time>
      </trkpt>
      <trkpt lat="45.38058" lon="4.42992">
        <ele>1067.2</ele>
        <time>2022-02-17T09:30:40Z</time>
      </trkpt>
      <trkpt lat="45.38048" lon="4.42972">
        <ele>1068.64</ele>
        <time>2022-02-17T09:30:55Z</time>
      </trkpt>
      <trkpt lat="45.38046" lon="4.42968">
        <ele>1068.64</ele>
        <time>2022-02-17T09:30:58Z</time>
      </trkpt>
      <trkpt lat="45.3804" lon="4.42957">
        <ele>1069.6</ele>
        <time>2022-02-17T09:31:07Z</time>
      </trkpt>
      <trkpt lat="45.38033" lon="4.42942">
        <ele>1070.57</ele>
        <time>2022-02-17T09:31:17Z</time>
      </trkpt>
      <trkpt lat="45.38026" lon="4.4293">
        <ele>1071.53</ele>
        <time>2022-02-17T09:31:26Z</time>
      </trkpt>
      <trkpt lat="45.38015" lon="4.42913">
        <ele>1071.53</ele>
        <time>2022-02-17T09:31:41Z</time>
      </trkpt>
      <trkpt lat="45.3801" lon="4.42906">
        <ele>1072.97</ele>
        <time>2022-02-17T09:31:50Z</time>
      </trkpt>
      <trkpt lat="45.38001" lon="4.42903">
        <ele>1074.89</ele>
        <time>2022-02-17T09:31:57Z</time>
      </trkpt>
      <trkpt lat="45.37979" lon="4.42899">
        <ele>1075.85</ele>
        <time>2022-02-17T09:32:13Z</time>
      </trkpt>
      <trkpt lat="45.37972" lon="4.42901">
        <ele>1075.85</ele>
        <time>2022-02-17T09:32:20Z</time>
      </trkpt>
      <trkpt lat="45.37959" lon="4.42909">
        <ele>1079.22</ele>
        <time>2022-02-17T09:32:33Z</time>
      </trkpt>
      <trkpt lat="45.37946" lon="4.42918">
        <ele>1082.1</ele>
        <time>2022-02-17T09:32:46Z</time>
      </trkpt>
      <trkpt lat="45.37937" lon="4.42922">
        <ele>1083.06</ele>
        <time>2022-02-17T09:32:53Z</time>
      </trkpt>
      <trkpt lat="45.37916" lon="4.42927">
        <ele>1079.7</ele>
        <time>2022-02-17T09:33:07Z</time>
      </trkpt>
      <trkpt lat="45.37894" lon="4.42924">
        <ele>1079.7</ele>
        <time>2022-02-17T09:33:19Z</time>
      </trkpt>
      <trkpt lat="45.37881" lon="4.42927">
        <ele>1077.78</ele>
        <time>2022-02-17T09:33:30Z</time>
      </trkpt>
      <trkpt lat="45.37864" lon="4.42935">
        <ele>1078.26</ele>
        <time>2022-02-17T09:33:44Z</time>
      </trkpt>
      <trkpt lat="45.37835" lon="4.42944">
        <ele>1072.97</ele>
        <time>2022-02-17T09:33:59Z</time>
      </trkpt>
      <trkpt lat="45.37818" lon="4.42938">
        <ele>1067.2</ele>
        <time>2022-02-17T09:34:09Z</time>
      </trkpt>
      <trkpt lat="45.37799" lon="4.42923">
        <ele>1066.24</ele>
        <time>2022-02-17T09:34:25Z</time>
      </trkpt>
      <trkpt lat="45.37796" lon="4.42922">
        <ele>1067.68</ele>
        <time>2022-02-17T09:34:27Z</time>
      </trkpt>
      <trkpt lat="45.37784" lon="4.4292">
        <ele>1067.68</ele>
        <time>2022-02-17T09:34:38Z</time>
      </trkpt>
      <trkpt lat="45.37762" lon="4.42921">
        <ele>1069.12</ele>
        <time>2022-02-17T09:34:54Z</time>
      </trkpt>
      <trkpt lat="45.3776" lon="4.4292">
        <ele>1069.6</ele>
        <time>2022-02-17T09:34:56Z</time>
      </trkpt>
      <trkpt lat="45.37753" lon="4.42917">
        <ele>1068.64</ele>
        <time>2022-02-17T09:35:01Z</time>
      </trkpt>
      <trkpt lat="45.37734" lon="4.42912">
        <ele>1068.64</ele>
        <time>2022-02-17T09:35:17Z</time>
      </trkpt>
      <trkpt lat="45.37718" lon="4.42913">
        <ele>1071.05</ele>
        <time>2022-02-17T09:35:31Z</time>
      </trkpt>
      <trkpt lat="45.37708" lon="4.42912">
        <ele>1072.97</ele>
        <time>2022-02-17T09:35:44Z</time>
      </trkpt>
      <trkpt lat="45.37699" lon="4.42904">
        <ele>1072.01</ele>
        <time>2022-02-17T09:35:54Z</time>
      </trkpt>
      <trkpt lat="45.37697" lon="4.42902">
        <ele>1071.05</ele>
        <time>2022-02-17T09:35:56Z</time>
      </trkpt>
      <trkpt lat="45.37691" lon="4.429">
        <ele>1071.05</ele>
        <time>2022-02-17T09:36:00Z</time>
      </trkpt>
      <trkpt lat="45.37682" lon="4.42902">
        <ele>1070.57</ele>
        <time>2022-02-17T09:36:13Z</time>
      </trkpt>
      <trkpt lat="45.3768" lon="4.42904">
        <ele>1072.49</ele>
        <time>2022-02-17T09:36:25Z</time>
      </trkpt>
      <trkpt lat="45.37679" lon="4.42906">
        <ele>1072.01</ele>
        <time>2022-02-17T09:36:27Z</time>
      </trkpt>
      <trkpt lat="45.37672" lon="4.42911">
        <ele>1069.12</ele>
        <time>2022-02-17T09:36:38Z</time>
      </trkpt>
      <trkpt lat="45.37665" lon="4.42918">
        <ele>1070.08</ele>
        <time>2022-02-17T09:36:50Z</time>
      </trkpt>
      <trkpt lat="45.37661" lon="4.42927">
        <ele>1073.93</ele>
        <time>2022-02-17T09:37:02Z</time>
      </trkpt>
      <trkpt lat="45.37662" lon="4.42932">
        <ele>1074.89</ele>
        <time>2022-02-17T09:37:15Z</time>
      </trkpt>
      <trkpt lat="45.37665" lon="4.4294">
        <ele>1079.7</ele>
        <time>2022-02-17T09:37:27Z</time>
      </trkpt>
      <trkpt lat="45.37667" lon="4.42949">
        <ele>1084.02</ele>
        <time>2022-02-17T09:37:36Z</time>
      </trkpt>
      <trkpt lat="45.37665" lon="4.42955">
        <ele>1086.43</ele>
        <time>2022-02-17T09:37:45Z</time>
      </trkpt>
      <trkpt lat="45.37667" lon="4.42957">
        <ele>1086.43</ele>
        <time>2022-02-17T09:37:47Z</time>
      </trkpt>
      <trkpt lat="45.37669" lon="4.42963">
        <ele>1086.43</ele>
        <time>2022-02-17T09:37:51Z</time>
      </trkpt>
      <trkpt lat="45.37666" lon="4.42974">
        <ele>1089.31</ele>
        <time>2022-02-17T09:38:01Z</time>
      </trkpt>
      <trkpt lat="45.37666" lon="4.42976">
        <ele>1089.31</ele>
        <time>2022-02-17T09:38:03Z</time>
      </trkpt>
      <trkpt lat="45.37677" lon="4.4299">
        <ele>1091.71</ele>
        <time>2022-02-17T09:38:15Z</time>
      </trkpt>
      <trkpt lat="45.3768" lon="4.42995">
        <ele>1092.2</ele>
        <time>2022-02-17T09:38:21Z</time>
      </trkpt>
      <trkpt lat="45.37688" lon="4.43">
        <ele>1093.64</ele>
        <time>2022-02-17T09:38:31Z</time>
      </trkpt>
      <trkpt lat="45.37689" lon="4.43002">
        <ele>1093.64</ele>
        <time>2022-02-17T09:38:33Z</time>
      </trkpt>
      <trkpt lat="45.37694" lon="4.43011">
        <ele>1091.71</ele>
        <time>2022-02-17T09:38:43Z</time>
      </trkpt>
      <trkpt lat="45.37702" lon="4.43019">
        <ele>1093.64</ele>
        <time>2022-02-17T09:38:50Z</time>
      </trkpt>
      <trkpt lat="45.37708" lon="4.43023">
        <ele>1089.31</ele>
        <time>2022-02-17T09:39:03Z</time>
      </trkpt>
      <trkpt lat="45.37711" lon="4.43024">
        <ele>1083.06</ele>
        <time>2022-02-17T09:39:15Z</time>
      </trkpt>
      <trkpt lat="45.37716" lon="4.43029">
        <ele>1077.29</ele>
        <time>2022-02-17T09:39:27Z</time>
      </trkpt>
      <trkpt lat="45.37717" lon="4.43029">
        <ele>1077.29</ele>
        <time>2022-02-17T09:39:29Z</time>
      </trkpt>
      <trkpt lat="45.37716" lon="4.43036">
        <ele>1068.16</ele>
        <time>2022-02-17T09:39:41Z</time>
      </trkpt>
      <trkpt lat="45.37712" lon="4.43049">
        <ele>1060.47</ele>
        <time>2022-02-17T09:39:53Z</time>
      </trkpt>
      <trkpt lat="45.37721" lon="4.43061">
        <ele>1060.47</ele>
        <time>2022-02-17T09:39:59Z</time>
      </trkpt>
      <trkpt lat="45.37744" lon="4.43087">
        <ele>1065.28</ele>
        <time>2022-02-17T09:40:06Z</time>
      </trkpt>
      <trkpt lat="45.37755" lon="4.43112">
        <ele>1067.2</ele>
        <time>2022-02-17T09:40:16Z</time>
      </trkpt>
      <trkpt lat="45.37753" lon="4.43128">
        <ele>1065.28</ele>
        <time>2022-02-17T09:40:24Z</time>
      </trkpt>
      <trkpt lat="45.37761" lon="4.43143">
        <ele>1066.24</ele>
        <time>2022-02-17T09:40:35Z</time>
      </trkpt>
      <trkpt lat="45.37762" lon="4.43149">
        <ele>1066.72</ele>
        <time>2022-02-17T09:40:38Z</time>
      </trkpt>
      <trkpt lat="45.37762" lon="4.43166">
        <ele>1067.68</ele>
        <time>2022-02-17T09:40:47Z</time>
      </trkpt>
      <trkpt lat="45.37752" lon="4.43185">
        <ele>1063.36</ele>
        <time>2022-02-17T09:41:02Z</time>
      </trkpt>
      <trkpt lat="45.3775" lon="4.43187">
        <ele>1061.91</ele>
        <time>2022-02-17T09:41:22Z</time>
      </trkpt>
      <trkpt lat="45.37747" lon="4.43192">
        <ele>1060.95</ele>
        <time>2022-02-17T09:41:35Z</time>
      </trkpt>
      <trkpt lat="45.37742" lon="4.43199">
        <ele>1060.47</ele>
        <time>2022-02-17T09:41:40Z</time>
      </trkpt>
      <trkpt lat="45.37734" lon="4.43215">
        <ele>1056.15</ele>
        <time>2022-02-17T09:41:53Z</time>
      </trkpt>
      <trkpt lat="45.37733" lon="4.43221">
        <ele>1056.15</ele>
        <time>2022-02-17T09:41:58Z</time>
      </trkpt>
      <trkpt lat="45.37734" lon="4.43234">
        <ele>1055.18</ele>
        <time>2022-02-17T09:42:08Z</time>
      </trkpt>
      <trkpt lat="45.3773" lon="4.43243">
        <ele>1051.82</ele>
        <time>2022-02-17T09:42:14Z</time>
      </trkpt>
      <trkpt lat="45.37728" lon="4.43261">
        <ele>1046.05</ele>
        <time>2022-02-17T09:42:23Z</time>
      </trkpt>
      <trkpt lat="45.37729" lon="4.43293">
        <ele>1049.42</ele>
        <time>2022-02-17T09:42:40Z</time>
      </trkpt>
      <trkpt lat="45.37729" lon="4.43316">
        <ele>1051.34</ele>
        <time>2022-02-17T09:42:52Z</time>
      </trkpt>
      <trkpt lat="45.37727" lon="4.43326">
        <ele>1049.9</ele>
        <time>2022-02-17T09:42:57Z</time>
      </trkpt>
      <trkpt lat="45.37727" lon="4.43342">
        <ele>1050.38</ele>
        <time>2022-02-17T09:43:06Z</time>
      </trkpt>
      <trkpt lat="45.37724" lon="4.43354">
        <ele>1050.86</ele>
        <time>2022-02-17T09:43:14Z</time>
      </trkpt>
      <trkpt lat="45.37722" lon="4.43366">
        <ele>1054.7</ele>
        <time>2022-02-17T09:43:22Z</time>
      </trkpt>
      <trkpt lat="45.3772" lon="4.43398">
        <ele>1059.99</ele>
        <time>2022-02-17T09:43:39Z</time>
      </trkpt>
      <trkpt lat="45.37722" lon="4.4342">
        <ele>1063.36</ele>
        <time>2022-02-17T09:43:50Z</time>
      </trkpt>
      <trkpt lat="45.37722" lon="4.43432">
        <ele>1061.43</ele>
        <time>2022-02-17T09:43:57Z</time>
      </trkpt>
      <trkpt lat="45.37721" lon="4.43449">
        <ele>1058.55</ele>
        <time>2022-02-17T09:44:06Z</time>
      </trkpt>
      <trkpt lat="45.37716" lon="4.43457">
        <ele>1056.63</ele>
        <time>2022-02-17T09:44:10Z</time>
      </trkpt>
      <trkpt lat="45.37713" lon="4.43466">
        <ele>1053.74</ele>
        <time>2022-02-17T09:44:14Z</time>
      </trkpt>
      <trkpt lat="45.3771" lon="4.43473">
        <ele>1050.86</ele>
        <time>2022-02-17T09:44:18Z</time>
      </trkpt>
      <trkpt lat="45.37709" lon="4.43494">
        <ele>1049.9</ele>
        <time>2022-02-17T09:44:30Z</time>
      </trkpt>
      <trkpt lat="45.37709" lon="4.43502">
        <ele>1048.94</ele>
        <time>2022-02-17T09:44:35Z</time>
      </trkpt>
      <trkpt lat="45.3771" lon="4.43514">
        <ele>1047.01</ele>
        <time>2022-02-17T09:44:43Z</time>
      </trkpt>
      <trkpt lat="45.3771" lon="4.43524">
        <ele>1046.05</ele>
        <time>2022-02-17T09:44:48Z</time>
      </trkpt>
      <trkpt lat="45.37706" lon="4.43532">
        <ele>1044.13</ele>
        <time>2022-02-17T09:44:52Z</time>
      </trkpt>
      <trkpt lat="45.37702" lon="4.43541">
        <ele>1042.69</ele>
        <time>2022-02-17T09:44:57Z</time>
      </trkpt>
      <trkpt lat="45.37696" lon="4.43564">
        <ele>1038.36</ele>
        <time>2022-02-17T09:45:11Z</time>
      </trkpt>
      <trkpt lat="45.37694" lon="4.43579">
        <ele>1037.88</ele>
        <time>2022-02-17T09:45:18Z</time>
      </trkpt>
      <trkpt lat="45.37692" lon="4.43586">
        <ele>1038.36</ele>
        <time>2022-02-17T09:45:22Z</time>
      </trkpt>
      <trkpt lat="45.37689" lon="4.43597">
        <ele>1038.36</ele>
        <time>2022-02-17T09:45:30Z</time>
      </trkpt>
      <trkpt lat="45.37686" lon="4.43603">
        <ele>1039.8</ele>
        <time>2022-02-17T09:45:34Z</time>
      </trkpt>
      <trkpt lat="45.37684" lon="4.43606">
        <ele>1039.8</ele>
        <time>2022-02-17T09:45:36Z</time>
      </trkpt>
      <trkpt lat="45.37678" lon="4.43613">
        <ele>1038.84</ele>
        <time>2022-02-17T09:45:41Z</time>
      </trkpt>
      <trkpt lat="45.37664" lon="4.43626">
        <ele>1034.04</ele>
        <time>2022-02-17T09:45:54Z</time>
      </trkpt>
      <trkpt lat="45.37648" lon="4.43637">
        <ele>1029.23</ele>
        <time>2022-02-17T09:46:03Z</time>
      </trkpt>
      <trkpt lat="45.37625" lon="4.43655">
        <ele>1015.77</ele>
        <time>2022-02-17T09:46:19Z</time>
      </trkpt>
      <trkpt lat="45.37612" lon="4.43668">
        <ele>1011.93</ele>
        <time>2022-02-17T09:46:31Z</time>
      </trkpt>
      <trkpt lat="45.37594" lon="4.43682">
        <ele>1008.08</ele>
        <time>2022-02-17T09:46:45Z</time>
      </trkpt>
      <trkpt lat="45.37572" lon="4.43692">
        <ele>1011.44</ele>
        <time>2022-02-17T09:47:01Z</time>
      </trkpt>
      <trkpt lat="45.37552" lon="4.43699">
        <ele>1011.44</ele>
        <time>2022-02-17T09:47:17Z</time>
      </trkpt>
      <trkpt lat="45.37531" lon="4.43713">
        <ele>1009.52</ele>
        <time>2022-02-17T09:47:35Z</time>
      </trkpt>
      <trkpt lat="45.37516" lon="4.43733">
        <ele>1008.08</ele>
        <time>2022-02-17T09:47:52Z</time>
      </trkpt>
      <trkpt lat="45.37512" lon="4.43749">
        <ele>1010.48</ele>
        <time>2022-02-17T09:48:03Z</time>
      </trkpt>
      <trkpt lat="45.37512" lon="4.43758">
        <ele>1012.41</ele>
        <time>2022-02-17T09:48:08Z</time>
      </trkpt>
      <trkpt lat="45.37514" lon="4.43771">
        <ele>1014.33</ele>
        <time>2022-02-17T09:48:15Z</time>
      </trkpt>
      <trkpt lat="45.37515" lon="4.43787">
        <ele>1015.77</ele>
        <time>2022-02-17T09:48:23Z</time>
      </trkpt>
      <trkpt lat="45.37513" lon="4.43805">
        <ele>1018.17</ele>
        <time>2022-02-17T09:48:35Z</time>
      </trkpt>
      <trkpt lat="45.37514" lon="4.43815">
        <ele>1020.1</ele>
        <time>2022-02-17T09:48:39Z</time>
      </trkpt>
      <trkpt lat="45.37514" lon="4.43823">
        <ele>1020.58</ele>
        <time>2022-02-17T09:48:43Z</time>
      </trkpt>
      <trkpt lat="45.37512" lon="4.43837">
        <ele>1020.58</ele>
        <time>2022-02-17T09:48:50Z</time>
      </trkpt>
      <trkpt lat="45.3751" lon="4.43854">
        <ele>1022.02</ele>
        <time>2022-02-17T09:48:59Z</time>
      </trkpt>
      <trkpt lat="45.37507" lon="4.43879">
        <ele>1022.5</ele>
        <time>2022-02-17T09:49:12Z</time>
      </trkpt>
      <trkpt lat="45.37507" lon="4.43885">
        <ele>1022.02</ele>
        <time>2022-02-17T09:49:15Z</time>
      </trkpt>
      <trkpt lat="45.37505" lon="4.43899">
        <ele>1022.02</ele>
        <time>2022-02-17T09:49:23Z</time>
      </trkpt>
      <trkpt lat="45.37506" lon="4.43909">
        <ele>1022.5</ele>
        <time>2022-02-17T09:49:27Z</time>
      </trkpt>
      <trkpt lat="45.37506" lon="4.43923">
        <ele>1024.42</ele>
        <time>2022-02-17T09:49:33Z</time>
      </trkpt>
      <trkpt lat="45.375" lon="4.43947">
        <ele>1031.63</ele>
        <time>2022-02-17T09:49:44Z</time>
      </trkpt>
      <trkpt lat="45.37483" lon="4.4398">
        <ele>1027.31</ele>
        <time>2022-02-17T09:50:02Z</time>
      </trkpt>
      <trkpt lat="45.37474" lon="4.43996">
        <ele>1026.34</ele>
        <time>2022-02-17T09:50:13Z</time>
      </trkpt>
      <trkpt lat="45.37455" lon="4.44017">
        <ele>1027.31</ele>
        <time>2022-02-17T09:50:29Z</time>
      </trkpt>
      <trkpt lat="45.37438" lon="4.44037">
        <ele>1028.27</ele>
        <time>2022-02-17T09:50:44Z</time>
      </trkpt>
      <trkpt lat="45.37435" lon="4.44041">
        <ele>1028.75</ele>
        <time>2022-02-17T09:50:48Z</time>
      </trkpt>
      <trkpt lat="45.37432" lon="4.44043">
        <ele>1029.23</ele>
        <time>2022-02-17T09:50:50Z</time>
      </trkpt>
      <trkpt lat="45.37411" lon="4.44057">
        <ele>1032.11</ele>
        <time>2022-02-17T09:51:04Z</time>
      </trkpt>
      <trkpt lat="45.37388" lon="4.44075">
        <ele>1027.79</ele>
        <time>2022-02-17T09:51:18Z</time>
      </trkpt>
      <trkpt lat="45.37371" lon="4.44083">
        <ele>1026.83</ele>
        <time>2022-02-17T09:51:31Z</time>
      </trkpt>
      <trkpt lat="45.37371" lon="4.44084">
        <ele>1026.83</ele>
        <time>2022-02-17T09:51:32Z</time>
      </trkpt>
      <trkpt lat="45.37359" lon="4.44091">
        <ele>1024.42</ele>
        <time>2022-02-17T09:51:40Z</time>
      </trkpt>
      <trkpt lat="45.3734" lon="4.44097">
        <ele>1017.69</ele>
        <time>2022-02-17T09:51:55Z</time>
      </trkpt>
      <trkpt lat="45.37317" lon="4.44103">
        <ele>1014.81</ele>
        <time>2022-02-17T09:52:11Z</time>
      </trkpt>
      <trkpt lat="45.37314" lon="4.44104">
        <ele>1015.29</ele>
        <time>2022-02-17T09:52:14Z</time>
      </trkpt>
      <trkpt lat="45.37312" lon="4.44104">
        <ele>1015.29</ele>
        <time>2022-02-17T09:52:16Z</time>
      </trkpt>
      <trkpt lat="45.37303" lon="4.4411">
        <ele>1014.81</ele>
        <time>2022-02-17T09:52:22Z</time>
      </trkpt>
      <trkpt lat="45.37288" lon="4.44121">
        <ele>1015.77</ele>
        <time>2022-02-17T09:52:33Z</time>
      </trkpt>
      <trkpt lat="45.3728" lon="4.44122">
        <ele>1016.73</ele>
        <time>2022-02-17T09:52:39Z</time>
      </trkpt>
      <trkpt lat="45.37267" lon="4.44128">
        <ele>1018.17</ele>
        <time>2022-02-17T09:52:50Z</time>
      </trkpt>
      <trkpt lat="45.37256" lon="4.4413">
        <ele>1020.1</ele>
        <time>2022-02-17T09:52:58Z</time>
      </trkpt>
      <trkpt lat="45.3725" lon="4.44131">
        <ele>1022.5</ele>
        <time>2022-02-17T09:53:03Z</time>
      </trkpt>
      <trkpt lat="45.37248" lon="4.44131">
        <ele>1023.94</ele>
        <time>2022-02-17T09:53:05Z</time>
      </trkpt>
      <trkpt lat="45.37242" lon="4.44132">
        <ele>1026.34</ele>
        <time>2022-02-17T09:53:09Z</time>
      </trkpt>
      <trkpt lat="45.37224" lon="4.44127">
        <ele>1030.67</ele>
        <time>2022-02-17T09:53:25Z</time>
      </trkpt>
      <trkpt lat="45.37217" lon="4.44121">
        <ele>1031.63</ele>
        <time>2022-02-17T09:53:30Z</time>
      </trkpt>
      <trkpt lat="45.37197" lon="4.44104">
        <ele>1032.11</ele>
        <time>2022-02-17T09:53:46Z</time>
      </trkpt>
      <trkpt lat="45.37185" lon="4.44093">
        <ele>1032.11</ele>
        <time>2022-02-17T09:53:57Z</time>
      </trkpt>
      <trkpt lat="45.37168" lon="4.44076">
        <ele>1035.96</ele>
        <time>2022-02-17T09:54:12Z</time>
      </trkpt>
      <trkpt lat="45.37153" lon="4.44068">
        <ele>1040.28</ele>
        <time>2022-02-17T09:54:25Z</time>
      </trkpt>
      <trkpt lat="45.37139" lon="4.44066">
        <ele>1046.05</ele>
        <time>2022-02-17T09:54:38Z</time>
      </trkpt>
      <trkpt lat="45.37121" lon="4.44068">
        <ele>1052.78</ele>
        <time>2022-02-17T09:54:52Z</time>
      </trkpt>
      <trkpt lat="45.37103" lon="4.44075">
        <ele>1057.11</ele>
        <time>2022-02-17T09:55:06Z</time>
      </trkpt>
      <trkpt lat="45.37093" lon="4.44076">
        <ele>1058.07</ele>
        <time>2022-02-17T09:55:18Z</time>
      </trkpt>
      <trkpt lat="45.37084" lon="4.44081">
        <ele>1055.18</ele>
        <time>2022-02-17T09:55:30Z</time>
      </trkpt>
      <trkpt lat="45.37068" lon="4.44089">
        <ele>1050.86</ele>
        <time>2022-02-17T09:55:42Z</time>
      </trkpt>
      <trkpt lat="45.37058" lon="4.44091">
        <ele>1048.45</ele>
        <time>2022-02-17T09:55:54Z</time>
      </trkpt>
      <trkpt lat="45.37038" lon="4.441">
        <ele>1047.01</ele>
        <time>2022-02-17T09:56:08Z</time>
      </trkpt>
      <trkpt lat="45.37019" lon="4.44104">
        <ele>1044.61</ele>
        <time>2022-02-17T09:56:21Z</time>
      </trkpt>
      <trkpt lat="45.37001" lon="4.44111">
        <ele>1046.53</ele>
        <time>2022-02-17T09:56:34Z</time>
      </trkpt>
      <trkpt lat="45.36987" lon="4.4411">
        <ele>1053.26</ele>
        <time>2022-02-17T09:56:47Z</time>
      </trkpt>
      <trkpt lat="45.36971" lon="4.44107">
        <ele>1058.55</ele>
        <time>2022-02-17T09:57:01Z</time>
      </trkpt>
      <trkpt lat="45.36954" lon="4.44099">
        <ele>1062.39</ele>
        <time>2022-02-17T09:57:14Z</time>
      </trkpt>
      <trkpt lat="45.36941" lon="4.44087">
        <ele>1066.72</ele>
        <time>2022-02-17T09:57:27Z</time>
      </trkpt>
      <trkpt lat="45.36933" lon="4.4408">
        <ele>1069.6</ele>
        <time>2022-02-17T09:57:36Z</time>
      </trkpt>
      <trkpt lat="45.3692" lon="4.44063">
        <ele>1072.01</ele>
        <time>2022-02-17T09:57:50Z</time>
      </trkpt>
      <trkpt lat="45.36918" lon="4.44061">
        <ele>1072.01</ele>
        <time>2022-02-17T09:57:51Z</time>
      </trkpt>
      <trkpt lat="45.36914" lon="4.44054">
        <ele>1072.49</ele>
        <time>2022-02-17T09:57:56Z</time>
      </trkpt>
      <trkpt lat="45.36904" lon="4.44032">
        <ele>1075.37</ele>
        <time>2022-02-17T09:58:11Z</time>
      </trkpt>
      <trkpt lat="45.36895" lon="4.4401">
        <ele>1079.22</ele>
        <time>2022-02-17T09:58:25Z</time>
      </trkpt>
      <trkpt lat="45.36892" lon="4.44001">
        <ele>1080.66</ele>
        <time>2022-02-17T09:58:32Z</time>
      </trkpt>
      <trkpt lat="45.36888" lon="4.43993">
        <ele>1083.06</ele>
        <time>2022-02-17T09:58:37Z</time>
      </trkpt>
      <trkpt lat="45.3688" lon="4.43973">
        <ele>1088.83</ele>
        <time>2022-02-17T09:58:49Z</time>
      </trkpt>
      <trkpt lat="45.36879" lon="4.43965">
        <ele>1091.23</ele>
        <time>2022-02-17T09:58:54Z</time>
      </trkpt>
      <trkpt lat="45.36876" lon="4.43947">
        <ele>1097.48</ele>
        <time>2022-02-17T09:59:05Z</time>
      </trkpt>
      <trkpt lat="45.36875" lon="4.43928">
        <ele>1109.98</ele>
        <time>2022-02-17T09:59:18Z</time>
      </trkpt>
      <trkpt lat="45.36873" lon="4.43917">
        <ele>1112.86</ele>
        <time>2022-02-17T09:59:24Z</time>
      </trkpt>
      <trkpt lat="45.36874" lon="4.43914">
        <ele>1113.82</ele>
        <time>2022-02-17T09:59:26Z</time>
      </trkpt>
      <trkpt lat="45.36877" lon="4.43907">
        <ele>1116.23</ele>
        <time>2022-02-17T09:59:30Z</time>
      </trkpt>
      <trkpt lat="45.36877" lon="4.43901">
        <ele>1116.71</ele>
        <time>2022-02-17T09:59:34Z</time>
      </trkpt>
      <trkpt lat="45.3688" lon="4.43883">
        <ele>1111.42</ele>
        <time>2022-02-17T09:59:39Z</time>
      </trkpt>
      <trkpt lat="45.36881" lon="4.43865">
        <ele>1105.65</ele>
        <time>2022-02-17T09:59:46Z</time>
      </trkpt>
      <trkpt lat="45.3688" lon="4.43855">
        <ele>1101.81</ele>
        <time>2022-02-17T09:59:50Z</time>
      </trkpt>
      <trkpt lat="45.36879" lon="4.43824">
        <ele>1094.6</ele>
        <time>2022-02-17T10:00:03Z</time>
      </trkpt>
      <trkpt lat="45.36874" lon="4.4381">
        <ele>1092.68</ele>
        <time>2022-02-17T10:00:10Z</time>
      </trkpt>
      <trkpt lat="45.36874" lon="4.43803">
        <ele>1091.23</ele>
        <time>2022-02-17T10:00:14Z</time>
      </trkpt>
      <trkpt lat="45.36871" lon="4.43797">
        <ele>1090.27</ele>
        <time>2022-02-17T10:00:18Z</time>
      </trkpt>
      <trkpt lat="45.36869" lon="4.43789">
        <ele>1089.79</ele>
        <time>2022-02-17T10:00:23Z</time>
      </trkpt>
      <trkpt lat="45.36869" lon="4.43771">
        <ele>1097.48</ele>
        <time>2022-02-17T10:00:38Z</time>
      </trkpt>
      <trkpt lat="45.36869" lon="4.43772">
        <ele>1100.37</ele>
        <time>2022-02-17T10:00:48Z</time>
      </trkpt>
      <trkpt lat="45.36868" lon="4.4377">
        <ele>1100.85</ele>
        <time>2022-02-17T10:00:52Z</time>
      </trkpt>
      <trkpt lat="45.36874" lon="4.43767">
        <ele>1106.61</ele>
        <time>2022-02-17T10:01:01Z</time>
      </trkpt>
      <trkpt lat="45.36877" lon="4.43769">
        <ele>1111.9</ele>
        <time>2022-02-17T10:01:11Z</time>
      </trkpt>
      <trkpt lat="45.36882" lon="4.43766">
        <ele>1116.71</ele>
        <time>2022-02-17T10:01:21Z</time>
      </trkpt>
      <trkpt lat="45.36883" lon="4.43758">
        <ele>1115.27</ele>
        <time>2022-02-17T10:01:34Z</time>
      </trkpt>
      <trkpt lat="45.3688" lon="4.43743">
        <ele>1113.82</ele>
        <time>2022-02-17T10:01:47Z</time>
      </trkpt>
      <trkpt lat="45.3688" lon="4.4374">
        <ele>1113.34</ele>
        <time>2022-02-17T10:01:49Z</time>
      </trkpt>
      <trkpt lat="45.36876" lon="4.43729">
        <ele>1111.9</ele>
        <time>2022-02-17T10:02:00Z</time>
      </trkpt>
      <trkpt lat="45.36876" lon="4.4372">
        <ele>1112.38</ele>
        <time>2022-02-17T10:02:05Z</time>
      </trkpt>
      <trkpt lat="45.3689" lon="4.43696">
        <ele>1108.06</ele>
        <time>2022-02-17T10:02:15Z</time>
      </trkpt>
      <trkpt lat="45.36893" lon="4.43691">
        <ele>1107.58</ele>
        <time>2022-02-17T10:02:18Z</time>
      </trkpt>
      <trkpt lat="45.36894" lon="4.4367">
        <ele>1103.25</ele>
        <time>2022-02-17T10:02:28Z</time>
      </trkpt>
      <trkpt lat="45.36877" lon="4.43654">
        <ele>1097.96</ele>
        <time>2022-02-17T10:02:41Z</time>
      </trkpt>
      <trkpt lat="45.36871" lon="4.4365">
        <ele>1094.12</ele>
        <time>2022-02-17T10:02:47Z</time>
      </trkpt>
      <trkpt lat="45.36859" lon="4.43635">
        <ele>1088.35</ele>
        <time>2022-02-17T10:02:58Z</time>
      </trkpt>
      <trkpt lat="45.36851" lon="4.43624">
        <ele>1089.31</ele>
        <time>2022-02-17T10:03:09Z</time>
      </trkpt>
      <trkpt lat="45.3685" lon="4.4362">
        <ele>1089.79</ele>
        <time>2022-02-17T10:03:12Z</time>
      </trkpt>
      <trkpt lat="45.36853" lon="4.43603">
        <ele>1095.08</ele>
        <time>2022-02-17T10:03:27Z</time>
      </trkpt>
      <trkpt lat="45.36854" lon="4.436">
        <ele>1095.56</ele>
        <time>2022-02-17T10:03:29Z</time>
      </trkpt>
      <trkpt lat="45.36869" lon="4.43577">
        <ele>1098.92</ele>
        <time>2022-02-17T10:03:44Z</time>
      </trkpt>
      <trkpt lat="45.36869" lon="4.43571">
        <ele>1097.48</ele>
        <time>2022-02-17T10:03:50Z</time>
      </trkpt>
      <trkpt lat="45.36868" lon="4.43562">
        <ele>1096.04</ele>
        <time>2022-02-17T10:03:56Z</time>
      </trkpt>
      <trkpt lat="45.3687" lon="4.43558">
        <ele>1096.04</ele>
        <time>2022-02-17T10:03:58Z</time>
      </trkpt>
      <trkpt lat="45.36876" lon="4.43553">
        <ele>1095.56</ele>
        <time>2022-02-17T10:04:03Z</time>
      </trkpt>
      <trkpt lat="45.36875" lon="4.43543">
        <ele>1091.71</ele>
        <time>2022-02-17T10:04:09Z</time>
      </trkpt>
      <trkpt lat="45.36886" lon="4.43526">
        <ele>1087.87</ele>
        <time>2022-02-17T10:04:21Z</time>
      </trkpt>
      <trkpt lat="45.36896" lon="4.43516">
        <ele>1087.39</ele>
        <time>2022-02-17T10:04:31Z</time>
      </trkpt>
      <trkpt lat="45.36904" lon="4.43514">
        <ele>1087.39</ele>
        <time>2022-02-17T10:04:37Z</time>
      </trkpt>
      <trkpt lat="45.36911" lon="4.43511">
        <ele>1087.39</ele>
        <time>2022-02-17T10:04:41Z</time>
      </trkpt>
      <trkpt lat="45.36914" lon="4.43503">
        <ele>1087.39</ele>
        <time>2022-02-17T10:04:45Z</time>
      </trkpt>
      <trkpt lat="45.36913" lon="4.43487">
        <ele>1081.14</ele>
        <time>2022-02-17T10:04:52Z</time>
      </trkpt>
      <trkpt lat="45.36909" lon="4.43466">
        <ele>1077.29</ele>
        <time>2022-02-17T10:05:02Z</time>
      </trkpt>
      <trkpt lat="45.36909" lon="4.43465">
        <ele>1077.29</ele>
        <time>2022-02-17T10:05:03Z</time>
      </trkpt>
      <trkpt lat="45.36917" lon="4.43437">
        <ele>1072.01</ele>
        <time>2022-02-17T10:05:19Z</time>
      </trkpt>
      <trkpt lat="45.3692" lon="4.43421">
        <ele>1071.05</ele>
        <time>2022-02-17T10:05:31Z</time>
      </trkpt>
      <trkpt lat="45.36924" lon="4.43404">
        <ele>1073.45</ele>
        <time>2022-02-17T10:05:43Z</time>
      </trkpt>
      <trkpt lat="45.36932" lon="4.43391">
        <ele>1073.93</ele>
        <time>2022-02-17T10:05:51Z</time>
      </trkpt>
      <trkpt lat="45.36935" lon="4.43387">
        <ele>1076.33</ele>
        <time>2022-02-17T10:05:55Z</time>
      </trkpt>
      <trkpt lat="45.36937" lon="4.43383">
        <ele>1076.81</ele>
        <time>2022-02-17T10:05:58Z</time>
      </trkpt>
      <trkpt lat="45.36946" lon="4.43369">
        <ele>1082.1</ele>
        <time>2022-02-17T10:06:11Z</time>
      </trkpt>
      <trkpt lat="45.36959" lon="4.43354">
        <ele>1084.99</ele>
        <time>2022-02-17T10:06:23Z</time>
      </trkpt>
      <trkpt lat="45.36965" lon="4.43344">
        <ele>1086.91</ele>
        <time>2022-02-17T10:06:32Z</time>
      </trkpt>
      <trkpt lat="45.36969" lon="4.43343">
        <ele>1087.87</ele>
        <time>2022-02-17T10:06:35Z</time>
      </trkpt>
      <trkpt lat="45.36971" lon="4.4334">
        <ele>1087.39</ele>
        <time>2022-02-17T10:06:37Z</time>
      </trkpt>
      <trkpt lat="45.36971" lon="4.43336">
        <ele>1085.95</ele>
        <time>2022-02-17T10:06:39Z</time>
      </trkpt>
      <trkpt lat="45.36975" lon="4.43329">
        <ele>1084.99</ele>
        <time>2022-02-17T10:06:44Z</time>
      </trkpt>
      <trkpt lat="45.36978" lon="4.43324">
        <ele>1084.99</ele>
        <time>2022-02-17T10:06:48Z</time>
      </trkpt>
      <trkpt lat="45.36981" lon="4.43298">
        <ele>1072.01</ele>
        <time>2022-02-17T10:07:01Z</time>
      </trkpt>
      <trkpt lat="45.36982" lon="4.43297">
        <ele>1072.01</ele>
        <time>2022-02-17T10:07:02Z</time>
      </trkpt>
      <trkpt lat="45.3699" lon="4.4329">
        <ele>1073.45</ele>
        <time>2022-02-17T10:07:12Z</time>
      </trkpt>
      <trkpt lat="45.36995" lon="4.4328">
        <ele>1072.97</ele>
        <time>2022-02-17T10:07:23Z</time>
      </trkpt>
      <trkpt lat="45.36995" lon="4.43275">
        <ele>1073.45</ele>
        <time>2022-02-17T10:07:27Z</time>
      </trkpt>
      <trkpt lat="45.37003" lon="4.4327">
        <ele>1075.85</ele>
        <time>2022-02-17T10:07:32Z</time>
      </trkpt>
      <trkpt lat="45.37005" lon="4.43264">
        <ele>1077.78</ele>
        <time>2022-02-17T10:07:36Z</time>
      </trkpt>
      <trkpt lat="45.37014" lon="4.43251">
        <ele>1078.26</ele>
        <time>2022-02-17T10:07:48Z</time>
      </trkpt>
      <trkpt lat="45.37023" lon="4.4324">
        <ele>1076.81</ele>
        <time>2022-02-17T10:07:58Z</time>
      </trkpt>
      <trkpt lat="45.37038" lon="4.43223">
        <ele>1077.78</ele>
        <time>2022-02-17T10:08:12Z</time>
      </trkpt>
      <trkpt lat="45.37039" lon="4.43221">
        <ele>1077.78</ele>
        <time>2022-02-17T10:08:13Z</time>
      </trkpt>
      <trkpt lat="45.37043" lon="4.43217">
        <ele>1079.22</ele>
        <time>2022-02-17T10:08:17Z</time>
      </trkpt>
      <trkpt lat="45.37047" lon="4.43213">
        <ele>1081.14</ele>
        <time>2022-02-17T10:08:22Z</time>
      </trkpt>
      <trkpt lat="45.37049" lon="4.4321">
        <ele>1082.1</ele>
        <time>2022-02-17T10:08:24Z</time>
      </trkpt>
      <trkpt lat="45.3706" lon="4.43201">
        <ele>1083.54</ele>
        <time>2022-02-17T10:08:36Z</time>
      </trkpt>
      <trkpt lat="45.37065" lon="4.43195">
        <ele>1083.54</ele>
        <time>2022-02-17T10:08:41Z</time>
      </trkpt>
      <trkpt lat="45.37075" lon="4.43181">
        <ele>1088.35</ele>
        <time>2022-02-17T10:08:54Z</time>
      </trkpt>
      <trkpt lat="45.37078" lon="4.43179">
        <ele>1089.79</ele>
        <time>2022-02-17T10:08:57Z</time>
      </trkpt>
      <trkpt lat="45.37085" lon="4.43164">
        <ele>1086.91</ele>
        <time>2022-02-17T10:09:07Z</time>
      </trkpt>
      <trkpt lat="45.37097" lon="4.43153">
        <ele>1090.75</ele>
        <time>2022-02-17T10:09:20Z</time>
      </trkpt>
      <trkpt lat="45.37103" lon="4.4315">
        <ele>1092.68</ele>
        <time>2022-02-17T10:09:23Z</time>
      </trkpt>
      <trkpt lat="45.37119" lon="4.43136">
        <ele>1099.4</ele>
        <time>2022-02-17T10:09:36Z</time>
      </trkpt>
      <trkpt lat="45.37124" lon="4.43129">
        <ele>1103.73</ele>
        <time>2022-02-17T10:09:43Z</time>
      </trkpt>
      <trkpt lat="45.37128" lon="4.43128">
        <ele>1108.06</ele>
        <time>2022-02-17T10:09:50Z</time>
      </trkpt>
      <trkpt lat="45.3714" lon="4.43112">
        <ele>1108.06</ele>
        <time>2022-02-17T10:10:03Z</time>
      </trkpt>
      <trkpt lat="45.37141" lon="4.43109">
        <ele>1108.06</ele>
        <time>2022-02-17T10:10:05Z</time>
      </trkpt>
      <trkpt lat="45.37143" lon="4.43104">
        <ele>1107.58</ele>
        <time>2022-02-17T10:10:08Z</time>
      </trkpt>
      <trkpt lat="45.37149" lon="4.43095">
        <ele>1107.1</ele>
        <time>2022-02-17T10:10:14Z</time>
      </trkpt>
      <trkpt lat="45.37155" lon="4.43091">
        <ele>1106.61</ele>
        <time>2022-02-17T10:10:19Z</time>
      </trkpt>
      <trkpt lat="45.37157" lon="4.43086">
        <ele>1106.61</ele>
        <time>2022-02-17T10:10:22Z</time>
      </trkpt>
      <trkpt lat="45.37159" lon="4.43081">
        <ele>1106.13</ele>
        <time>2022-02-17T10:10:25Z</time>
      </trkpt>
      <trkpt lat="45.37159" lon="4.43069">
        <ele>1105.65</ele>
        <time>2022-02-17T10:10:30Z</time>
      </trkpt>
      <trkpt lat="45.37161" lon="4.43047">
        <ele>1109.02</ele>
        <time>2022-02-17T10:10:44Z</time>
      </trkpt>
      <trkpt lat="45.37161" lon="4.43046">
        <ele>1109.02</ele>
        <time>2022-02-17T10:10:45Z</time>
      </trkpt>
      <trkpt lat="45.37162" lon="4.4304">
        <ele>1110.94</ele>
        <time>2022-02-17T10:10:49Z</time>
      </trkpt>
      <trkpt lat="45.37168" lon="4.4302">
        <ele>1112.86</ele>
        <time>2022-02-17T10:11:00Z</time>
      </trkpt>
      <trkpt lat="45.37169" lon="4.43008">
        <ele>1112.86</ele>
        <time>2022-02-17T10:11:06Z</time>
      </trkpt>
      <trkpt lat="45.37177" lon="4.42997">
        <ele>1117.19</ele>
        <time>2022-02-17T10:11:17Z</time>
      </trkpt>
      <trkpt lat="45.37179" lon="4.42996">
        <ele>1117.19</ele>
        <time>2022-02-17T10:11:19Z</time>
      </trkpt>
      <trkpt lat="45.37181" lon="4.4298">
        <ele>1116.23</ele>
        <time>2022-02-17T10:11:28Z</time>
      </trkpt>
      <trkpt lat="45.37182" lon="4.42973">
        <ele>1115.75</ele>
        <time>2022-02-17T10:11:32Z</time>
      </trkpt>
      <trkpt lat="45.37187" lon="4.42952">
        <ele>1114.31</ele>
        <time>2022-02-17T10:11:44Z</time>
      </trkpt>
      <trkpt lat="45.37186" lon="4.42947">
        <ele>1112.38</ele>
        <time>2022-02-17T10:11:50Z</time>
      </trkpt>
      <trkpt lat="45.37189" lon="4.42942">
        <ele>1111.42</ele>
        <time>2022-02-17T10:11:53Z</time>
      </trkpt>
      <trkpt lat="45.37195" lon="4.42927">
        <ele>1108.06</ele>
        <time>2022-02-17T10:12:00Z</time>
      </trkpt>
      <trkpt lat="45.37197" lon="4.42922">
        <ele>1107.1</ele>
        <time>2022-02-17T10:12:03Z</time>
      </trkpt>
      <trkpt lat="45.37195" lon="4.42897">
        <ele>1093.16</ele>
        <time>2022-02-17T10:12:16Z</time>
      </trkpt>
      <trkpt lat="45.37192" lon="4.42892">
        <ele>1086.91</ele>
        <time>2022-02-17T10:12:31Z</time>
      </trkpt>
      <trkpt lat="45.37191" lon="4.42888">
        <ele>1083.06</ele>
        <time>2022-02-17T10:12:47Z</time>
      </trkpt>
      <trkpt lat="45.37189" lon="4.42885">
        <ele>1082.58</ele>
        <time>2022-02-17T10:13:00Z</time>
      </trkpt>
      <trkpt lat="45.3719" lon="4.42884">
        <ele>1081.14</ele>
        <time>2022-02-17T10:13:18Z</time>
      </trkpt>
      <trkpt lat="45.37195" lon="4.42879">
        <ele>1083.06</ele>
        <time>2022-02-17T10:13:32Z</time>
      </trkpt>
      <trkpt lat="45.37209" lon="4.42862">
        <ele>1084.02</ele>
        <time>2022-02-17T10:13:46Z</time>
      </trkpt>
      <trkpt lat="45.37216" lon="4.4285">
        <ele>1082.1</ele>
        <time>2022-02-17T10:13:55Z</time>
      </trkpt>
      <trkpt lat="45.37227" lon="4.42832">
        <ele>1080.66</ele>
        <time>2022-02-17T10:14:08Z</time>
      </trkpt>
      <trkpt lat="45.37237" lon="4.42817">
        <ele>1079.7</ele>
        <time>2022-02-17T10:14:20Z</time>
      </trkpt>
      <trkpt lat="45.3725" lon="4.42797">
        <ele>1084.99</ele>
        <time>2022-02-17T10:14:34Z</time>
      </trkpt>
      <trkpt lat="45.37255" lon="4.42789">
        <ele>1084.99</ele>
        <time>2022-02-17T10:14:40Z</time>
      </trkpt>
      <trkpt lat="45.37268" lon="4.42775">
        <ele>1084.99</ele>
        <time>2022-02-17T10:14:53Z</time>
      </trkpt>
      <trkpt lat="45.37268" lon="4.42771">
        <ele>1085.47</ele>
        <time>2022-02-17T10:14:56Z</time>
      </trkpt>
      <trkpt lat="45.37282" lon="4.42755">
        <ele>1085.47</ele>
        <time>2022-02-17T10:15:08Z</time>
      </trkpt>
      <trkpt lat="45.37284" lon="4.4275">
        <ele>1085.47</ele>
        <time>2022-02-17T10:15:12Z</time>
      </trkpt>
      <trkpt lat="45.37292" lon="4.42744">
        <ele>1084.99</ele>
        <time>2022-02-17T10:15:17Z</time>
      </trkpt>
      <trkpt lat="45.37293" lon="4.42739">
        <ele>1084.5</ele>
        <time>2022-02-17T10:15:20Z</time>
      </trkpt>
      <trkpt lat="45.37305" lon="4.42731">
        <ele>1085.47</ele>
        <time>2022-02-17T10:15:30Z</time>
      </trkpt>
      <trkpt lat="45.37311" lon="4.42722">
        <ele>1086.43</ele>
        <time>2022-02-17T10:15:36Z</time>
      </trkpt>
      <trkpt lat="45.37323" lon="4.427">
        <ele>1085.47</ele>
        <time>2022-02-17T10:15:51Z</time>
      </trkpt>
      <trkpt lat="45.37335" lon="4.4268">
        <ele>1086.43</ele>
        <time>2022-02-17T10:16:05Z</time>
      </trkpt>
      <trkpt lat="45.37344" lon="4.42672">
        <ele>1084.5</ele>
        <time>2022-02-17T10:16:15Z</time>
      </trkpt>
      <trkpt lat="45.37357" lon="4.42663">
        <ele>1078.26</ele>
        <time>2022-02-17T10:16:25Z</time>
      </trkpt>
      <trkpt lat="45.37368" lon="4.42653">
        <ele>1080.66</ele>
        <time>2022-02-17T10:16:40Z</time>
      </trkpt>
      <trkpt lat="45.37367" lon="4.42649">
        <ele>1077.78</ele>
        <time>2022-02-17T10:16:50Z</time>
      </trkpt>
      <trkpt lat="45.37366" lon="4.42642">
        <ele>1075.37</ele>
        <time>2022-02-17T10:17:07Z</time>
      </trkpt>
      <trkpt lat="45.37368" lon="4.42641">
        <ele>1075.37</ele>
        <time>2022-02-17T10:17:09Z</time>
      </trkpt>
      <trkpt lat="45.37375" lon="4.42637">
        <ele>1074.41</ele>
        <time>2022-02-17T10:17:20Z</time>
      </trkpt>
      <trkpt lat="45.37381" lon="4.4263">
        <ele>1073.93</ele>
        <time>2022-02-17T10:17:31Z</time>
      </trkpt>
      <trkpt lat="45.37397" lon="4.42624">
        <ele>1073.93</ele>
        <time>2022-02-17T10:17:45Z</time>
      </trkpt>
      <trkpt lat="45.37402" lon="4.42623">
        <ele>1074.41</ele>
        <time>2022-02-17T10:17:49Z</time>
      </trkpt>
      <trkpt lat="45.37408" lon="4.42623">
        <ele>1075.37</ele>
        <time>2022-02-17T10:17:58Z</time>
      </trkpt>
      <trkpt lat="45.37426" lon="4.42617">
        <ele>1074.89</ele>
        <time>2022-02-17T10:18:14Z</time>
      </trkpt>
      <trkpt lat="45.3743" lon="4.42614">
        <ele>1074.89</ele>
        <time>2022-02-17T10:18:17Z</time>
      </trkpt>
      <trkpt lat="45.37449" lon="4.42614">
        <ele>1074.89</ele>
        <time>2022-02-17T10:18:32Z</time>
      </trkpt>
      <trkpt lat="45.37465" lon="4.42617">
        <ele>1075.85</ele>
        <time>2022-02-17T10:18:47Z</time>
      </trkpt>
      <trkpt lat="45.37477" lon="4.42616">
        <ele>1079.22</ele>
        <time>2022-02-17T10:18:55Z</time>
      </trkpt>
      <trkpt lat="45.37492" lon="4.42615">
        <ele>1081.62</ele>
        <time>2022-02-17T10:19:09Z</time>
      </trkpt>
      <trkpt lat="45.37496" lon="4.42617">
        <ele>1082.58</ele>
        <time>2022-02-17T10:19:21Z</time>
      </trkpt>
      <trkpt lat="45.37496" lon="4.42613">
        <ele>1083.06</ele>
        <time>2022-02-17T10:19:26Z</time>
      </trkpt>
      <trkpt lat="45.37497" lon="4.4261">
        <ele>1084.02</ele>
        <time>2022-02-17T10:19:30Z</time>
      </trkpt>
      <trkpt lat="45.37516" lon="4.42605">
        <ele>1083.54</ele>
        <time>2022-02-17T10:19:47Z</time>
      </trkpt>
      <trkpt lat="45.37527" lon="4.42605">
        <ele>1083.06</ele>
        <time>2022-02-17T10:19:56Z</time>
      </trkpt>
      <trkpt lat="45.3753" lon="4.42604">
        <ele>1082.58</ele>
        <time>2022-02-17T10:19:58Z</time>
      </trkpt>
      <trkpt lat="45.37551" lon="4.42606">
        <ele>1078.74</ele>
        <time>2022-02-17T10:20:15Z</time>
      </trkpt>
      <trkpt lat="45.3757" lon="4.42596">
        <ele>1078.74</ele>
        <time>2022-02-17T10:20:30Z</time>
      </trkpt>
      <trkpt lat="45.37584" lon="4.42589">
        <ele>1076.33</ele>
        <time>2022-02-17T10:20:43Z</time>
      </trkpt>
      <trkpt lat="45.37607" lon="4.42584">
        <ele>1076.33</ele>
        <time>2022-02-17T10:20:59Z</time>
      </trkpt>
      <trkpt lat="45.37623" lon="4.42578">
        <ele>1076.81</ele>
        <time>2022-02-17T10:21:12Z</time>
      </trkpt>
      <trkpt lat="45.37641" lon="4.42577">
        <ele>1077.78</ele>
        <time>2022-02-17T10:21:26Z</time>
      </trkpt>
      <trkpt lat="45.37645" lon="4.42578">
        <ele>1077.29</ele>
        <time>2022-02-17T10:21:29Z</time>
      </trkpt>
      <trkpt lat="45.37664" lon="4.42582">
        <ele>1076.81</ele>
        <time>2022-02-17T10:21:44Z</time>
      </trkpt>
      <trkpt lat="45.37681" lon="4.4259">
        <ele>1076.81</ele>
        <time>2022-02-17T10:21:58Z</time>
      </trkpt>
      <trkpt lat="45.37696" lon="4.42593">
        <ele>1075.37</ele>
        <time>2022-02-17T10:22:11Z</time>
      </trkpt>
      <trkpt lat="45.37698" lon="4.42593">
        <ele>1075.37</ele>
        <time>2022-02-17T10:22:12Z</time>
      </trkpt>
      <trkpt lat="45.37703" lon="4.42597">
        <ele>1075.37</ele>
        <time>2022-02-17T10:22:16Z</time>
      </trkpt>
      <trkpt lat="45.37717" lon="4.42597">
        <ele>1076.33</ele>
        <time>2022-02-17T10:22:31Z</time>
      </trkpt>
      <trkpt lat="45.37728" lon="4.42601">
        <ele>1076.33</ele>
        <time>2022-02-17T10:22:43Z</time>
      </trkpt>
      <trkpt lat="45.37734" lon="4.42607">
        <ele>1075.85</ele>
        <time>2022-02-17T10:22:50Z</time>
      </trkpt>
      <trkpt lat="45.37741" lon="4.42612">
        <ele>1076.81</ele>
        <time>2022-02-17T10:22:55Z</time>
      </trkpt>
      <trkpt lat="45.37746" lon="4.42616">
        <ele>1078.74</ele>
        <time>2022-02-17T10:23:00Z</time>
      </trkpt>
      <trkpt lat="45.37761" lon="4.42625">
        <ele>1077.29</ele>
        <time>2022-02-17T10:23:13Z</time>
      </trkpt>
      <trkpt lat="45.37773" lon="4.42629">
        <ele>1075.37</ele>
        <time>2022-02-17T10:23:24Z</time>
      </trkpt>
      <trkpt lat="45.37787" lon="4.42632">
        <ele>1071.05</ele>
        <time>2022-02-17T10:23:36Z</time>
      </trkpt>
      <trkpt lat="45.37805" lon="4.42638">
        <ele>1066.72</ele>
        <time>2022-02-17T10:23:51Z</time>
      </trkpt>
      <trkpt lat="45.37822" lon="4.42646">
        <ele>1066.72</ele>
        <time>2022-02-17T10:24:05Z</time>
      </trkpt>
      <trkpt lat="45.37837" lon="4.42647">
        <ele>1061.43</ele>
        <time>2022-02-17T10:24:17Z</time>
      </trkpt>
      <trkpt lat="45.37854" lon="4.42647">
        <ele>1052.3</ele>
        <time>2022-02-17T10:24:30Z</time>
      </trkpt>
      <trkpt lat="45.37861" lon="4.42649">
        <ele>1051.34</ele>
        <time>2022-02-17T10:24:36Z</time>
      </trkpt>
      <trkpt lat="45.37865" lon="4.42648">
        <ele>1050.86</ele>
        <time>2022-02-17T10:24:48Z</time>
      </trkpt>
      <trkpt lat="45.37865" lon="4.42647">
        <ele>1051.82</ele>
        <time>2022-02-17T10:24:53Z</time>
      </trkpt>
      <trkpt lat="45.3787" lon="4.42639">
        <ele>1056.15</ele>
        <time>2022-02-17T10:25:00Z</time>
      </trkpt>
      <trkpt lat="45.37876" lon="4.42618">
        <ele>1058.07</ele>
        <time>2022-02-17T10:25:15Z</time>
      </trkpt>
      <trkpt lat="45.37879" lon="4.42605">
        <ele>1057.59</ele>
        <time>2022-02-17T10:25:23Z</time>
      </trkpt>
      <trkpt lat="45.37883" lon="4.42581">
        <ele>1054.22</ele>
        <time>2022-02-17T10:25:36Z</time>
      </trkpt>
      <trkpt lat="45.37883" lon="4.42579">
        <ele>1054.22</ele>
        <time>2022-02-17T10:25:37Z</time>
      </trkpt>
      <trkpt lat="45.37886" lon="4.42563">
        <ele>1055.18</ele>
        <time>2022-02-17T10:25:46Z</time>
      </trkpt>
      <trkpt lat="45.37886" lon="4.42551">
        <ele>1055.67</ele>
        <time>2022-02-17T10:25:52Z</time>
      </trkpt>
      <trkpt lat="45.37888" lon="4.42543">
        <ele>1055.67</ele>
        <time>2022-02-17T10:25:56Z</time>
      </trkpt>
      <trkpt lat="45.37889" lon="4.42515">
        <ele>1054.22</ele>
        <time>2022-02-17T10:26:13Z</time>
      </trkpt>
      <trkpt lat="45.3789" lon="4.4251">
        <ele>1054.22</ele>
        <time>2022-02-17T10:26:17Z</time>
      </trkpt>
      <trkpt lat="45.37883" lon="4.42488">
        <ele>1050.86</ele>
        <time>2022-02-17T10:26:32Z</time>
      </trkpt>
      <trkpt lat="45.37878" lon="4.42475">
        <ele>1048.94</ele>
        <time>2022-02-17T10:26:41Z</time>
      </trkpt>
      <trkpt lat="45.37875" lon="4.42454">
        <ele>1050.86</ele>
        <time>2022-02-17T10:26:56Z</time>
      </trkpt>
      <trkpt lat="45.37871" lon="4.42428">
        <ele>1051.34</ele>
        <time>2022-02-17T10:27:09Z</time>
      </trkpt>
      <trkpt lat="45.37873" lon="4.424">
        <ele>1059.99</ele>
        <time>2022-02-17T10:27:25Z</time>
      </trkpt>
      <trkpt lat="45.37873" lon="4.42394">
        <ele>1060.95</ele>
        <time>2022-02-17T10:27:28Z</time>
      </trkpt>
      <trkpt lat="45.3787" lon="4.42373">
        <ele>1066.72</ele>
        <time>2022-02-17T10:27:44Z</time>
      </trkpt>
      <trkpt lat="45.3787" lon="4.42359">
        <ele>1070.57</ele>
        <time>2022-02-17T10:27:52Z</time>
      </trkpt>
      <trkpt lat="45.37869" lon="4.4235">
        <ele>1072.49</ele>
        <time>2022-02-17T10:27:57Z</time>
      </trkpt>
      <trkpt lat="45.37868" lon="4.4232">
        <ele>1072.01</ele>
        <time>2022-02-17T10:28:12Z</time>
      </trkpt>
      <trkpt lat="45.37866" lon="4.42295">
        <ele>1072.01</ele>
        <time>2022-02-17T10:28:26Z</time>
      </trkpt>
      <trkpt lat="45.37864" lon="4.42285">
        <ele>1070.57</ele>
        <time>2022-02-17T10:28:30Z</time>
      </trkpt>
      <trkpt lat="45.37855" lon="4.42255">
        <ele>1069.12</ele>
        <time>2022-02-17T10:28:46Z</time>
      </trkpt>
      <trkpt lat="45.37855" lon="4.42254">
        <ele>1069.6</ele>
        <time>2022-02-17T10:28:47Z</time>
      </trkpt>
      <trkpt lat="45.37855" lon="4.42245">
        <ele>1071.53</ele>
        <time>2022-02-17T10:28:52Z</time>
      </trkpt>
      <trkpt lat="45.37854" lon="4.42235">
        <ele>1073.93</ele>
        <time>2022-02-17T10:28:57Z</time>
      </trkpt>
      <trkpt lat="45.37854" lon="4.42232">
        <ele>1073.93</ele>
        <time>2022-02-17T10:28:59Z</time>
      </trkpt>
      <trkpt lat="45.37853" lon="4.42228">
        <ele>1073.93</ele>
        <time>2022-02-17T10:29:01Z</time>
      </trkpt>
      <trkpt lat="45.37849" lon="4.42214">
        <ele>1072.01</ele>
        <time>2022-02-17T10:29:08Z</time>
      </trkpt>
      <trkpt lat="45.37846" lon="4.42207">
        <ele>1069.12</ele>
        <time>2022-02-17T10:29:12Z</time>
      </trkpt>
      <trkpt lat="45.37845" lon="4.42198">
        <ele>1069.6</ele>
        <time>2022-02-17T10:29:17Z</time>
      </trkpt>
      <trkpt lat="45.37844" lon="4.42172">
        <ele>1068.64</ele>
        <time>2022-02-17T10:29:31Z</time>
      </trkpt>
      <trkpt lat="45.37844" lon="4.42168">
        <ele>1069.12</ele>
        <time>2022-02-17T10:29:34Z</time>
      </trkpt>
      <trkpt lat="45.37843" lon="4.42156">
        <ele>1073.93</ele>
        <time>2022-02-17T10:29:47Z</time>
      </trkpt>
      <trkpt lat="45.37841" lon="4.42145">
        <ele>1070.57</ele>
        <time>2022-02-17T10:29:57Z</time>
      </trkpt>
      <trkpt lat="45.37841" lon="4.42142">
        <ele>1071.05</ele>
        <time>2022-02-17T10:29:59Z</time>
      </trkpt>
      <trkpt lat="45.37839" lon="4.42124">
        <ele>1070.57</ele>
        <time>2022-02-17T10:30:12Z</time>
      </trkpt>
      <trkpt lat="45.37839" lon="4.42118">
        <ele>1072.01</ele>
        <time>2022-02-17T10:30:16Z</time>
      </trkpt>
      <trkpt lat="45.37839" lon="4.42109">
        <ele>1072.01</ele>
        <time>2022-02-17T10:30:20Z</time>
      </trkpt>
      <trkpt lat="45.37838" lon="4.42105">
        <ele>1071.05</ele>
        <time>2022-02-17T10:30:22Z</time>
      </trkpt>
      <trkpt lat="45.37837" lon="4.42096">
        <ele>1070.57</ele>
        <time>2022-02-17T10:30:27Z</time>
      </trkpt>
      <trkpt lat="45.37833" lon="4.42082">
        <ele>1068.16</ele>
        <time>2022-02-17T10:30:35Z</time>
      </trkpt>
      <trkpt lat="45.37826" lon="4.42056">
        <ele>1063.84</ele>
        <time>2022-02-17T10:30:49Z</time>
      </trkpt>
      <trkpt lat="45.37826" lon="4.42022">
        <ele>1056.15</ele>
        <time>2022-02-17T10:31:10Z</time>
      </trkpt>
      <trkpt lat="45.37821" lon="4.42006">
        <ele>1056.63</ele>
        <time>2022-02-17T10:31:24Z</time>
      </trkpt>
      <trkpt lat="45.37812" lon="4.41978">
        <ele>1055.67</ele>
        <time>2022-02-17T10:31:39Z</time>
      </trkpt>
      <trkpt lat="45.37805" lon="4.41948">
        <ele>1053.74</ele>
        <time>2022-02-17T10:31:56Z</time>
      </trkpt>
      <trkpt lat="45.378" lon="4.41925">
        <ele>1051.34</ele>
        <time>2022-02-17T10:32:09Z</time>
      </trkpt>
      <trkpt lat="45.37795" lon="4.41904">
        <ele>1059.51</ele>
        <time>2022-02-17T10:32:25Z</time>
      </trkpt>
      <trkpt lat="45.3779" lon="4.41884">
        <ele>1063.84</ele>
        <time>2022-02-17T10:32:39Z</time>
      </trkpt>
      <trkpt lat="45.37786" lon="4.41863">
        <ele>1054.7</ele>
        <time>2022-02-17T10:32:54Z</time>
      </trkpt>
      <trkpt lat="45.37779" lon="4.41844">
        <ele>1046.53</ele>
        <time>2022-02-17T10:33:10Z</time>
      </trkpt>
      <trkpt lat="45.37771" lon="4.41821">
        <ele>1044.61</ele>
        <time>2022-02-17T10:33:24Z</time>
      </trkpt>
      <trkpt lat="45.37768" lon="4.41807">
        <ele>1043.65</ele>
        <time>2022-02-17T10:33:32Z</time>
      </trkpt>
      <trkpt lat="45.37761" lon="4.41785">
        <ele>1039.32</ele>
        <time>2022-02-17T10:33:48Z</time>
      </trkpt>
      <trkpt lat="45.37754" lon="4.41764">
        <ele>1035.48</ele>
        <time>2022-02-17T10:34:02Z</time>
      </trkpt>
      <trkpt lat="45.37756" lon="4.41757">
        <ele>1032.59</ele>
        <time>2022-02-17T10:34:13Z</time>
      </trkpt>
      <trkpt lat="45.37756" lon="4.41755">
        <ele>1028.75</ele>
        <time>2022-02-17T10:34:18Z</time>
      </trkpt>
      <trkpt lat="45.37736" lon="4.41756">
        <ele>1025.86</ele>
        <time>2022-02-17T10:34:34Z</time>
      </trkpt>
      <trkpt lat="45.37716" lon="4.41754">
        <ele>1021.54</ele>
        <time>2022-02-17T10:34:49Z</time>
      </trkpt>
      <trkpt lat="45.37695" lon="4.41752">
        <ele>1017.21</ele>
        <time>2022-02-17T10:35:04Z</time>
      </trkpt>
      <trkpt lat="45.37668" lon="4.41742">
        <ele>1015.77</ele>
        <time>2022-02-17T10:35:24Z</time>
      </trkpt>
      <trkpt lat="45.3765" lon="4.41719">
        <ele>1015.77</ele>
        <time>2022-02-17T10:35:41Z</time>
      </trkpt>
      <trkpt lat="45.37639" lon="4.41695">
        <ele>1016.25</ele>
        <time>2022-02-17T10:35:56Z</time>
      </trkpt>
      <trkpt lat="45.37623" lon="4.41662">
        <ele>1016.25</ele>
        <time>2022-02-17T10:36:17Z</time>
      </trkpt>
      <trkpt lat="45.37613" lon="4.41634">
        <ele>1017.21</ele>
        <time>2022-02-17T10:36:34Z</time>
      </trkpt>
      <trkpt lat="45.37608" lon="4.4161">
        <ele>1017.21</ele>
        <time>2022-02-17T10:36:48Z</time>
      </trkpt>
      <trkpt lat="45.37602" lon="4.41597">
        <ele>1015.29</ele>
        <time>2022-02-17T10:37:00Z</time>
      </trkpt>
      <trkpt lat="45.376" lon="4.41593">
        <ele>1012.89</ele>
        <time>2022-02-17T10:37:15Z</time>
      </trkpt>
      <trkpt lat="45.376" lon="4.41592">
        <ele>1012.89</ele>
        <time>2022-02-17T10:37:28Z</time>
      </trkpt>
      <trkpt lat="45.37599" lon="4.41589">
        <ele>1012.41</ele>
        <time>2022-02-17T10:37:33Z</time>
      </trkpt>
      <trkpt lat="45.37597" lon="4.41585">
        <ele>1010.96</ele>
        <time>2022-02-17T10:37:39Z</time>
      </trkpt>
      <trkpt lat="45.37595" lon="4.4158">
        <ele>1010</ele>
        <time>2022-02-17T10:37:44Z</time>
      </trkpt>
      <trkpt lat="45.37593" lon="4.41575">
        <ele>1009.52</ele>
        <time>2022-02-17T10:37:48Z</time>
      </trkpt>
      <trkpt lat="45.37591" lon="4.41568">
        <ele>1009.04</ele>
        <time>2022-02-17T10:37:52Z</time>
      </trkpt>
      <trkpt lat="45.37576" lon="4.41539">
        <ele>1012.41</ele>
        <time>2022-02-17T10:38:12Z</time>
      </trkpt>
      <trkpt lat="45.37563" lon="4.41515">
        <ele>1015.29</ele>
        <time>2022-02-17T10:38:29Z</time>
      </trkpt>
      <trkpt lat="45.37552" lon="4.41496">
        <ele>1020.1</ele>
        <time>2022-02-17T10:38:43Z</time>
      </trkpt>
      <trkpt lat="45.37548" lon="4.41486">
        <ele>1022.98</ele>
        <time>2022-02-17T10:38:50Z</time>
      </trkpt>
      <trkpt lat="45.37536" lon="4.41465">
        <ele>1027.31</ele>
        <time>2022-02-17T10:39:04Z</time>
      </trkpt>
      <trkpt lat="45.37523" lon="4.41448">
        <ele>1033.55</ele>
        <time>2022-02-17T10:39:18Z</time>
      </trkpt>
      <trkpt lat="45.37504" lon="4.41417">
        <ele>1041.73</ele>
        <time>2022-02-17T10:39:36Z</time>
      </trkpt>
      <trkpt lat="45.37494" lon="4.41402">
        <ele>1048.45</ele>
        <time>2022-02-17T10:39:48Z</time>
      </trkpt>
      <trkpt lat="45.3749" lon="4.41392">
        <ele>1048.94</ele>
        <time>2022-02-17T10:39:53Z</time>
      </trkpt>
      <trkpt lat="45.37469" lon="4.41365">
        <ele>1047.01</ele>
        <time>2022-02-17T10:40:09Z</time>
      </trkpt>
      <trkpt lat="45.37454" lon="4.41346">
        <ele>1038.84</ele>
        <time>2022-02-17T10:40:22Z</time>
      </trkpt>
      <trkpt lat="45.37438" lon="4.41324">
        <ele>1036.92</ele>
        <time>2022-02-17T10:40:35Z</time>
      </trkpt>
      <trkpt lat="45.37436" lon="4.41321">
        <ele>1035.96</ele>
        <time>2022-02-17T10:40:37Z</time>
      </trkpt>
      <trkpt lat="45.37431" lon="4.41315">
        <ele>1033.55</ele>
        <time>2022-02-17T10:40:42Z</time>
      </trkpt>
      <trkpt lat="45.37423" lon="4.41305">
        <ele>1033.55</ele>
        <time>2022-02-17T10:40:49Z</time>
      </trkpt>
      <trkpt lat="45.37404" lon="4.41286">
        <ele>1027.79</ele>
        <time>2022-02-17T10:41:04Z</time>
      </trkpt>
      <trkpt lat="45.37396" lon="4.41275">
        <ele>1022.02</ele>
        <time>2022-02-17T10:41:11Z</time>
      </trkpt>
      <trkpt lat="45.37378" lon="4.41257">
        <ele>1020.1</ele>
        <time>2022-02-17T10:41:25Z</time>
      </trkpt>
      <trkpt lat="45.37372" lon="4.41217">
        <ele>1014.33</ele>
        <time>2022-02-17T10:41:41Z</time>
      </trkpt>
      <trkpt lat="45.37374" lon="4.41184">
        <ele>1004.23</ele>
        <time>2022-02-17T10:41:55Z</time>
      </trkpt>
      <trkpt lat="45.37376" lon="4.41153">
        <ele>1000.39</ele>
        <time>2022-02-17T10:42:11Z</time>
      </trkpt>
      <trkpt lat="45.37362" lon="4.41133">
        <ele>997.51</ele>
        <time>2022-02-17T10:42:28Z</time>
      </trkpt>
      <trkpt lat="45.37345" lon="4.41122">
        <ele>991.74</ele>
        <time>2022-02-17T10:42:43Z</time>
      </trkpt>
      <trkpt lat="45.37333" lon="4.41105">
        <ele>985.97</ele>
        <time>2022-02-17T10:42:56Z</time>
      </trkpt>
      <trkpt lat="45.3732" lon="4.41087">
        <ele>982.12</ele>
        <time>2022-02-17T10:43:10Z</time>
      </trkpt>
      <trkpt lat="45.37316" lon="4.41079">
        <ele>979.24</ele>
        <time>2022-02-17T10:43:16Z</time>
      </trkpt>
      <trkpt lat="45.37314" lon="4.41075">
        <ele>976.84</ele>
        <time>2022-02-17T10:43:19Z</time>
      </trkpt>
      <trkpt lat="45.37313" lon="4.41069">
        <ele>972.99</ele>
        <time>2022-02-17T10:43:23Z</time>
      </trkpt>
      <trkpt lat="45.37308" lon="4.41063">
        <ele>970.11</ele>
        <time>2022-02-17T10:43:29Z</time>
      </trkpt>
      <trkpt lat="45.37307" lon="4.4106">
        <ele>969.15</ele>
        <time>2022-02-17T10:43:32Z</time>
      </trkpt>
      <trkpt lat="45.37303" lon="4.41062">
        <ele>967.22</ele>
        <time>2022-02-17T10:43:36Z</time>
      </trkpt>
      <trkpt lat="45.37304" lon="4.41088">
        <ele>962.9</ele>
        <time>2022-02-17T10:43:54Z</time>
      </trkpt>
      <trkpt lat="45.37294" lon="4.41108">
        <ele>961.94</ele>
        <time>2022-02-17T10:44:09Z</time>
      </trkpt>
      <trkpt lat="45.37283" lon="4.41122">
        <ele>958.57</ele>
        <time>2022-02-17T10:44:22Z</time>
      </trkpt>
      <trkpt lat="45.37274" lon="4.41146">
        <ele>956.17</ele>
        <time>2022-02-17T10:44:37Z</time>
      </trkpt>
      <trkpt lat="45.37259" lon="4.41167">
        <ele>952.32</ele>
        <time>2022-02-17T10:44:52Z</time>
      </trkpt>
      <trkpt lat="45.3725" lon="4.41182">
        <ele>950.88</ele>
        <time>2022-02-17T10:45:02Z</time>
      </trkpt>
      <trkpt lat="45.37238" lon="4.41166">
        <ele>952.8</ele>
        <time>2022-02-17T10:45:17Z</time>
      </trkpt>
      <trkpt lat="45.37229" lon="4.41164">
        <ele>950.4</ele>
        <time>2022-02-17T10:45:28Z</time>
      </trkpt>
      <trkpt lat="45.3721" lon="4.41181">
        <ele>948.48</ele>
        <time>2022-02-17T10:45:45Z</time>
      </trkpt>
      <trkpt lat="45.37209" lon="4.41182">
        <ele>948.48</ele>
        <time>2022-02-17T10:45:46Z</time>
      </trkpt>
      <trkpt lat="45.37201" lon="4.41186">
        <ele>947.04</ele>
        <time>2022-02-17T10:45:53Z</time>
      </trkpt>
      <trkpt lat="45.37195" lon="4.41185">
        <ele>947.04</ele>
        <time>2022-02-17T10:45:57Z</time>
      </trkpt>
      <trkpt lat="45.37182" lon="4.41174">
        <ele>945.59</ele>
        <time>2022-02-17T10:46:07Z</time>
      </trkpt>
      <trkpt lat="45.37166" lon="4.4117">
        <ele>948.48</ele>
        <time>2022-02-17T10:46:20Z</time>
      </trkpt>
      <trkpt lat="45.37152" lon="4.41163">
        <ele>948.96</ele>
        <time>2022-02-17T10:46:30Z</time>
      </trkpt>
      <trkpt lat="45.37149" lon="4.41158">
        <ele>948.96</ele>
        <time>2022-02-17T10:46:33Z</time>
      </trkpt>
      <trkpt lat="45.37134" lon="4.41129">
        <ele>953.28</ele>
        <time>2022-02-17T10:46:50Z</time>
      </trkpt>
      <trkpt lat="45.37123" lon="4.41102">
        <ele>948.48</ele>
        <time>2022-02-17T10:47:06Z</time>
      </trkpt>
      <trkpt lat="45.37105" lon="4.4107">
        <ele>936.94</ele>
        <time>2022-02-17T10:47:26Z</time>
      </trkpt>
      <trkpt lat="45.37095" lon="4.41064">
        <ele>933.1</ele>
        <time>2022-02-17T10:47:34Z</time>
      </trkpt>
      <trkpt lat="45.37074" lon="4.41057">
        <ele>930.69</ele>
        <time>2022-02-17T10:47:51Z</time>
      </trkpt>
      <trkpt lat="45.37059" lon="4.41053">
        <ele>932.14</ele>
        <time>2022-02-17T10:48:02Z</time>
      </trkpt>
      <trkpt lat="45.37038" lon="4.41042">
        <ele>932.62</ele>
        <time>2022-02-17T10:48:16Z</time>
      </trkpt>
      <trkpt lat="45.37032" lon="4.4101">
        <ele>932.14</ele>
        <time>2022-02-17T10:48:33Z</time>
      </trkpt>
      <trkpt lat="45.37031" lon="4.41008">
        <ele>931.65</ele>
        <time>2022-02-17T10:48:34Z</time>
      </trkpt>
      <trkpt lat="45.37025" lon="4.41">
        <ele>929.73</ele>
        <time>2022-02-17T10:48:40Z</time>
      </trkpt>
      <trkpt lat="45.37006" lon="4.41005">
        <ele>929.73</ele>
        <time>2022-02-17T10:48:57Z</time>
      </trkpt>
      <trkpt lat="45.36992" lon="4.41019">
        <ele>928.77</ele>
        <time>2022-02-17T10:49:13Z</time>
      </trkpt>
      <trkpt lat="45.36987" lon="4.41023">
        <ele>928.29</ele>
        <time>2022-02-17T10:49:21Z</time>
      </trkpt>
      <trkpt lat="45.36966" lon="4.41047">
        <ele>928.29</ele>
        <time>2022-02-17T10:49:41Z</time>
      </trkpt>
      <trkpt lat="45.36948" lon="4.41063">
        <ele>930.21</ele>
        <time>2022-02-17T10:49:56Z</time>
      </trkpt>
      <trkpt lat="45.36924" lon="4.41068">
        <ele>930.69</ele>
        <time>2022-02-17T10:50:13Z</time>
      </trkpt>
      <trkpt lat="45.36923" lon="4.41069">
        <ele>930.69</ele>
        <time>2022-02-17T10:50:14Z</time>
      </trkpt>
      <trkpt lat="45.36903" lon="4.41079">
        <ele>931.65</ele>
        <time>2022-02-17T10:50:30Z</time>
      </trkpt>
      <trkpt lat="45.36893" lon="4.41083">
        <ele>933.1</ele>
        <time>2022-02-17T10:50:39Z</time>
      </trkpt>
      <trkpt lat="45.36888" lon="4.41085">
        <ele>933.1</ele>
        <time>2022-02-17T10:50:43Z</time>
      </trkpt>
      <trkpt lat="45.3688" lon="4.41086">
        <ele>933.58</ele>
        <time>2022-02-17T10:50:50Z</time>
      </trkpt>
      <trkpt lat="45.36875" lon="4.41082">
        <ele>934.06</ele>
        <time>2022-02-17T10:50:54Z</time>
      </trkpt>
      <trkpt lat="45.36846" lon="4.41074">
        <ele>934.54</ele>
        <time>2022-02-17T10:51:14Z</time>
      </trkpt>
      <trkpt lat="45.36823" lon="4.41073">
        <ele>936.94</ele>
        <time>2022-02-17T10:51:31Z</time>
      </trkpt>
      <trkpt lat="45.36813" lon="4.41076">
        <ele>936.94</ele>
        <time>2022-02-17T10:51:43Z</time>
      </trkpt>
      <trkpt lat="45.36784" lon="4.41083">
        <ele>935.98</ele>
        <time>2022-02-17T10:52:04Z</time>
      </trkpt>
      <trkpt lat="45.36757" lon="4.41094">
        <ele>936.94</ele>
        <time>2022-02-17T10:52:24Z</time>
      </trkpt>
      <trkpt lat="45.36736" lon="4.41105">
        <ele>938.38</ele>
        <time>2022-02-17T10:52:40Z</time>
      </trkpt>
      <trkpt lat="45.36711" lon="4.41118">
        <ele>938.38</ele>
        <time>2022-02-17T10:52:58Z</time>
      </trkpt>
      <trkpt lat="45.36682" lon="4.41133">
        <ele>939.35</ele>
        <time>2022-02-17T10:53:19Z</time>
      </trkpt>
      <trkpt lat="45.36654" lon="4.41149">
        <ele>938.86</ele>
        <time>2022-02-17T10:53:40Z</time>
      </trkpt>
      <trkpt lat="45.36628" lon="4.41166">
        <ele>939.83</ele>
        <time>2022-02-17T10:53:59Z</time>
      </trkpt>
      <trkpt lat="45.366" lon="4.41187">
        <ele>940.31</ele>
        <time>2022-02-17T10:54:21Z</time>
      </trkpt>
      <trkpt lat="45.36578" lon="4.41208">
        <ele>941.75</ele>
        <time>2022-02-17T10:54:39Z</time>
      </trkpt>
      <trkpt lat="45.36561" lon="4.41237">
        <ele>943.19</ele>
        <time>2022-02-17T10:54:59Z</time>
      </trkpt>
      <trkpt lat="45.36549" lon="4.41267">
        <ele>946.07</ele>
        <time>2022-02-17T10:55:17Z</time>
      </trkpt>
      <trkpt lat="45.36539" lon="4.41286">
        <ele>946.07</ele>
        <time>2022-02-17T10:55:31Z</time>
      </trkpt>
      <trkpt lat="45.3653" lon="4.41302">
        <ele>942.23</ele>
        <time>2022-02-17T10:55:44Z</time>
      </trkpt>
      <trkpt lat="45.3653" lon="4.41305">
        <ele>942.23</ele>
        <time>2022-02-17T10:55:46Z</time>
      </trkpt>
      <trkpt lat="45.36522" lon="4.41321">
        <ele>943.19</ele>
        <time>2022-02-17T10:55:54Z</time>
      </trkpt>
      <trkpt lat="45.36507" lon="4.41346">
        <ele>945.59</ele>
        <time>2022-02-17T10:56:10Z</time>
      </trkpt>
      <trkpt lat="45.36494" lon="4.41374">
        <ele>944.63</ele>
        <time>2022-02-17T10:56:25Z</time>
      </trkpt>
      <trkpt lat="45.36489" lon="4.41391">
        <ele>944.15</ele>
        <time>2022-02-17T10:56:37Z</time>
      </trkpt>
      <trkpt lat="45.36485" lon="4.41399">
        <ele>946.07</ele>
        <time>2022-02-17T10:56:42Z</time>
      </trkpt>
      <trkpt lat="45.36477" lon="4.41417">
        <ele>946.07</ele>
        <time>2022-02-17T10:56:54Z</time>
      </trkpt>
      <trkpt lat="45.36463" lon="4.41439">
        <ele>946.56</ele>
        <time>2022-02-17T10:57:07Z</time>
      </trkpt>
      <trkpt lat="45.36456" lon="4.41446">
        <ele>949.92</ele>
        <time>2022-02-17T10:57:11Z</time>
      </trkpt>
      <trkpt lat="45.36453" lon="4.41454">
        <ele>951.84</ele>
        <time>2022-02-17T10:57:16Z</time>
        <extensions>
          <visugpx:TrkExtension xmlns:visugpx="https://www.visugpx.com/editgpx/">
            <visugpx:node>1</visugpx:node>
            </visugpx:TrkExtension>
        </extensions>
      </trkpt>
      <trkpt lat="45.36432" lon="4.41485">
        <ele>936.3</ele>
      </trkpt>
      <trkpt lat="45.36419" lon="4.41534">
        <ele>934</ele>
      </trkpt>
      <trkpt lat="45.36409" lon="4.4159">
        <ele>933.8</ele>
      </trkpt>
      <trkpt lat="45.36384" lon="4.41697">
        <ele>928.5</ele>
      </trkpt>
      <trkpt lat="45.3638" lon="4.41737">
        <ele>928.1</ele>
      </trkpt>
      <trkpt lat="45.3638" lon="4.41754">
        <ele>928.1</ele>
      </trkpt>
      <trkpt lat="45.36373" lon="4.41774">
        <ele>927.1</ele>
      </trkpt>
      <trkpt lat="45.36365" lon="4.41782">
        <ele>926</ele>
      </trkpt>
      <trkpt lat="45.36351" lon="4.41788">
        <ele>924.9</ele>
      </trkpt>
      <trkpt lat="45.36331" lon="4.41828">
        <ele>924.4</ele>
      </trkpt>
      <trkpt lat="45.36324" lon="4.41836">
        <ele>925.5</ele>
      </trkpt>
      <trkpt lat="45.36312" lon="4.4184">
        <ele>927.2</ele>
      </trkpt>
      <trkpt lat="45.36297" lon="4.41834">
        <ele>929.5</ele>
      </trkpt>
      <trkpt lat="45.36284" lon="4.41825">
        <ele>932.9</ele>
      </trkpt>
      <trkpt lat="45.3628" lon="4.41815">
        <ele>935.1</ele>
      </trkpt>
      <trkpt lat="45.36281" lon="4.41807">
        <ele>936</ele>
      </trkpt>
      <trkpt lat="45.36286" lon="4.41792">
        <ele>935.6</ele>
      </trkpt>
      <trkpt lat="45.36285" lon="4.41781">
        <ele>936.5</ele>
      </trkpt>
      <trkpt lat="45.36279" lon="4.41776">
        <ele>938.7</ele>
      </trkpt>
      <trkpt lat="45.36261" lon="4.41698">
        <ele>947.5</ele>
      </trkpt>
      <trkpt lat="45.36272" lon="4.41642">
        <ele>948.4</ele>
      </trkpt>
      <trkpt lat="45.36268" lon="4.41626">
        <ele>947.9</ele>
      </trkpt>
      <trkpt lat="45.36239" lon="4.41525">
        <ele>940.9</ele>
      </trkpt>
      <trkpt lat="45.36188" lon="4.41474">
        <ele>938.2</ele>
      </trkpt>
      <trkpt lat="45.3618" lon="4.41433">
        <ele>937.1</ele>
      </trkpt>
      <trkpt lat="45.36198" lon="4.41302">
        <ele>936.9</ele>
      </trkpt>
      <trkpt lat="45.36339" lon="4.41126">
        <ele>917.3</ele>
      </trkpt>
      <trkpt lat="45.36371" lon="4.4108">
        <ele>909.1</ele>
      </trkpt>
      <trkpt lat="45.36428" lon="4.40997">
        <ele>914.4</ele>
      </trkpt>
      <trkpt lat="45.3643" lon="4.40942">
        <ele>922</ele>
      </trkpt>
      <trkpt lat="45.36398" lon="4.40837">
        <ele>914.9</ele>
      </trkpt>
      <trkpt lat="45.36397" lon="4.40832">
        <ele>914.2</ele>
      </trkpt>
      <trkpt lat="45.36362" lon="4.40844">
        <ele>916.9</ele>
      </trkpt>
      <trkpt lat="45.36351" lon="4.40849">
        <ele>918</ele>
      </trkpt>
      <trkpt lat="45.3632" lon="4.40834">
        <ele>918</ele>
      </trkpt>
      <trkpt lat="45.36293" lon="4.40816">
        <ele>919.6</ele>
      </trkpt>
      <trkpt lat="45.36256" lon="4.4078">
        <ele>920.7</ele>
      </trkpt>
      <trkpt lat="45.362" lon="4.40736">
        <ele>921.7</ele>
      </trkpt>
      <trkpt lat="45.36195" lon="4.4073">
        <ele>921.3</ele>
      </trkpt>
      <trkpt lat="45.36188" lon="4.40722">
        <ele>921.4</ele>
      </trkpt>
      <trkpt lat="45.36182" lon="4.40707">
        <ele>921.3</ele>
      </trkpt>
      <trkpt lat="45.36175" lon="4.4061">
        <ele>923.3</ele>
      </trkpt>
      <trkpt lat="45.36174" lon="4.4056">
        <ele>923.6</ele>
      </trkpt>
      <trkpt lat="45.3618" lon="4.4052">
        <ele>923.2</ele>
      </trkpt>
      <trkpt lat="45.36194" lon="4.40457">
        <ele>923.2</ele>
      </trkpt>
      <trkpt lat="45.36205" lon="4.40419">
        <ele>921.3</ele>
      </trkpt>
      <trkpt lat="45.36205" lon="4.4039">
        <ele>921.4</ele>
      </trkpt>
      <trkpt lat="45.36198" lon="4.40339">
        <ele>921.7</ele>
      </trkpt>
      <trkpt lat="45.36186" lon="4.40283">
        <ele>922.1</ele>
      </trkpt>
      <trkpt lat="45.3617" lon="4.40235">
        <ele>921.9</ele>
      </trkpt>
      <trkpt lat="45.36152" lon="4.40202">
        <ele>921.4</ele>
      </trkpt>
      <trkpt lat="45.3614" lon="4.40191">
        <ele>922.1</ele>
      </trkpt>
      <trkpt lat="45.36131" lon="4.40182">
        <ele>922.1</ele>
      </trkpt>
      <trkpt lat="45.36095" lon="4.40156">
        <ele>922.6</ele>
      </trkpt>
      <trkpt lat="45.36048" lon="4.40112">
        <ele>922.7</ele>
      </trkpt>
      <trkpt lat="45.36031" lon="4.40103">
        <ele>922.6</ele>
      </trkpt>
      <trkpt lat="45.36017" lon="4.40105">
        <ele>924.2</ele>
      </trkpt>
      <trkpt lat="45.35996" lon="4.40092">
        <ele>923.9</ele>
      </trkpt>
      <trkpt lat="45.35939" lon="4.40066">
        <ele>923.7</ele>
      </trkpt>
      <trkpt lat="45.35886" lon="4.40049">
        <ele>924.2</ele>
      </trkpt>
      <trkpt lat="45.35846" lon="4.40051">
        <ele>926.7</ele>
      </trkpt>
      <trkpt lat="45.35837" lon="4.40039">
        <ele>926.9</ele>
      </trkpt>
      <trkpt lat="45.35834" lon="4.40016">
        <ele>926</ele>
      </trkpt>
      <trkpt lat="45.35767" lon="4.40024">
        <ele>947.04</ele>
        <time>2022-02-17T12:36:54Z</time>
      </trkpt>
      <trkpt lat="45.35759" lon="4.40032">
        <ele>949.44</ele>
        <time>2022-02-17T12:37:07Z</time>
      </trkpt>
      <trkpt lat="45.35759" lon="4.40037">
        <ele>949.92</ele>
        <time>2022-02-17T12:37:11Z</time>
      </trkpt>
      <trkpt lat="45.35757" lon="4.40043">
        <ele>950.4</ele>
        <time>2022-02-17T12:37:15Z</time>
      </trkpt>
      <trkpt lat="45.35755" lon="4.40063">
        <ele>951.36</ele>
        <time>2022-02-17T12:37:29Z</time>
      </trkpt>
      <trkpt lat="45.35755" lon="4.40082">
        <ele>952.8</ele>
        <time>2022-02-17T12:37:41Z</time>
      </trkpt>
      <trkpt lat="45.35752" lon="4.401">
        <ele>955.21</ele>
        <time>2022-02-17T12:37:55Z</time>
      </trkpt>
      <trkpt lat="45.35748" lon="4.40115">
        <ele>957.13</ele>
        <time>2022-02-17T12:38:08Z</time>
      </trkpt>
      <trkpt lat="45.35745" lon="4.40126">
        <ele>957.13</ele>
        <time>2022-02-17T12:38:20Z</time>
      </trkpt>
      <trkpt lat="45.35742" lon="4.40138">
        <ele>960.01</ele>
        <time>2022-02-17T12:38:31Z</time>
      </trkpt>
      <trkpt lat="45.35739" lon="4.40156">
        <ele>964.34</ele>
        <time>2022-02-17T12:38:43Z</time>
      </trkpt>
      <trkpt lat="45.35738" lon="4.40173">
        <ele>966.26</ele>
        <time>2022-02-17T12:38:57Z</time>
      </trkpt>
      <trkpt lat="45.35737" lon="4.40192">
        <ele>971.55</ele>
        <time>2022-02-17T12:39:09Z</time>
      </trkpt>
      <trkpt lat="45.35736" lon="4.40195">
        <ele>971.55</ele>
        <time>2022-02-17T12:39:10Z</time>
      </trkpt>
      <trkpt lat="45.35724" lon="4.40218">
        <ele>972.51</ele>
        <time>2022-02-17T12:39:25Z</time>
      </trkpt>
      <trkpt lat="45.35715" lon="4.40237">
        <ele>972.03</ele>
        <time>2022-02-17T12:39:38Z</time>
      </trkpt>
      <trkpt lat="45.35714" lon="4.40247">
        <ele>974.91</ele>
        <time>2022-02-17T12:39:49Z</time>
      </trkpt>
      <trkpt lat="45.35715" lon="4.40263">
        <ele>980.68</ele>
        <time>2022-02-17T12:40:00Z</time>
      </trkpt>
      <trkpt lat="45.35715" lon="4.40275">
        <ele>983.57</ele>
        <time>2022-02-17T12:40:07Z</time>
      </trkpt>
      <trkpt lat="45.35716" lon="4.40283">
        <ele>985.97</ele>
        <time>2022-02-17T12:40:16Z</time>
      </trkpt>
      <trkpt lat="45.35716" lon="4.40303">
        <ele>988.85</ele>
        <time>2022-02-17T12:40:29Z</time>
      </trkpt>
      <trkpt lat="45.35712" lon="4.40315">
        <ele>990.3</ele>
        <time>2022-02-17T12:40:39Z</time>
      </trkpt>
      <trkpt lat="45.35709" lon="4.40337">
        <ele>991.26</ele>
        <time>2022-02-17T12:40:53Z</time>
      </trkpt>
      <trkpt lat="45.35706" lon="4.40345">
        <ele>991.74</ele>
        <time>2022-02-17T12:40:58Z</time>
      </trkpt>
      <trkpt lat="45.35699" lon="4.40363">
        <ele>991.26</ele>
        <time>2022-02-17T12:41:08Z</time>
      </trkpt>
      <trkpt lat="45.35697" lon="4.40368">
        <ele>991.74</ele>
        <time>2022-02-17T12:41:12Z</time>
      </trkpt>
      <trkpt lat="45.35692" lon="4.40372">
        <ele>992.22</ele>
        <time>2022-02-17T12:41:18Z</time>
      </trkpt>
      <trkpt lat="45.35681" lon="4.40373">
        <ele>992.22</ele>
        <time>2022-02-17T12:41:31Z</time>
      </trkpt>
      <trkpt lat="45.35679" lon="4.40373">
        <ele>992.7</ele>
        <time>2022-02-17T12:41:34Z</time>
      </trkpt>
      <trkpt lat="45.35661" lon="4.40383">
        <ele>995.1</ele>
        <time>2022-02-17T12:41:50Z</time>
      </trkpt>
      <trkpt lat="45.3565" lon="4.40389">
        <ele>996.54</ele>
        <time>2022-02-17T12:42:03Z</time>
      </trkpt>
      <trkpt lat="45.35637" lon="4.40395">
        <ele>997.99</ele>
        <time>2022-02-17T12:42:15Z</time>
      </trkpt>
      <trkpt lat="45.35635" lon="4.40396">
        <ele>997.51</ele>
        <time>2022-02-17T12:42:17Z</time>
      </trkpt>
      <trkpt lat="45.35621" lon="4.40405">
        <ele>997.51</ele>
        <time>2022-02-17T12:42:31Z</time>
      </trkpt>
      <trkpt lat="45.35612" lon="4.40413">
        <ele>998.95</ele>
        <time>2022-02-17T12:42:42Z</time>
      </trkpt>
      <trkpt lat="45.35604" lon="4.40423">
        <ele>1003.75</ele>
        <time>2022-02-17T12:42:56Z</time>
      </trkpt>
      <trkpt lat="45.35604" lon="4.40425">
        <ele>1005.2</ele>
        <time>2022-02-17T12:43:13Z</time>
      </trkpt>
      <trkpt lat="45.35604" lon="4.40426">
        <ele>1005.2</ele>
        <time>2022-02-17T12:43:51Z</time>
      </trkpt>
      <trkpt lat="45.35603" lon="4.40429">
        <ele>1007.12</ele>
        <time>2022-02-17T12:44:36Z</time>
      </trkpt>
      <trkpt lat="45.35601" lon="4.40429">
        <ele>1008.08</ele>
        <time>2022-02-17T12:44:55Z</time>
      </trkpt>
      <trkpt lat="45.35593" lon="4.40435">
        <ele>1013.37</ele>
        <time>2022-02-17T12:45:07Z</time>
      </trkpt>
      <trkpt lat="45.35584" lon="4.40445">
        <ele>1016.25</ele>
        <time>2022-02-17T12:45:19Z</time>
      </trkpt>
      <trkpt lat="45.35583" lon="4.40446">
        <ele>1016.73</ele>
        <time>2022-02-17T12:45:20Z</time>
      </trkpt>
      <trkpt lat="45.35576" lon="4.40462">
        <ele>1018.65</ele>
        <time>2022-02-17T12:45:32Z</time>
      </trkpt>
      <trkpt lat="45.35566" lon="4.40478">
        <ele>1018.17</ele>
        <time>2022-02-17T12:45:42Z</time>
      </trkpt>
      <trkpt lat="45.35554" lon="4.40505">
        <ele>1017.69</ele>
        <time>2022-02-17T12:45:56Z</time>
      </trkpt>
      <trkpt lat="45.35554" lon="4.40509">
        <ele>1017.21</ele>
        <time>2022-02-17T12:45:59Z</time>
      </trkpt>
      <trkpt lat="45.35552" lon="4.40514">
        <ele>1017.21</ele>
        <time>2022-02-17T12:46:02Z</time>
      </trkpt>
      <trkpt lat="45.3555" lon="4.40531">
        <ele>1018.65</ele>
        <time>2022-02-17T12:46:15Z</time>
      </trkpt>
      <trkpt lat="45.35549" lon="4.40535">
        <ele>1018.17</ele>
        <time>2022-02-17T12:46:18Z</time>
      </trkpt>
      <trkpt lat="45.35548" lon="4.40541">
        <ele>1017.21</ele>
        <time>2022-02-17T12:46:22Z</time>
      </trkpt>
      <trkpt lat="45.35541" lon="4.40563">
        <ele>1016.73</ele>
        <time>2022-02-17T12:46:35Z</time>
      </trkpt>
      <trkpt lat="45.35535" lon="4.40566">
        <ele>1017.21</ele>
        <time>2022-02-17T12:46:43Z</time>
      </trkpt>
      <trkpt lat="45.35522" lon="4.40555">
        <ele>1020.1</ele>
        <time>2022-02-17T12:46:56Z</time>
      </trkpt>
      <trkpt lat="45.35518" lon="4.40555">
        <ele>1020.58</ele>
        <time>2022-02-17T12:46:59Z</time>
      </trkpt>
      <trkpt lat="45.35504" lon="4.40551">
        <ele>1022.5</ele>
        <time>2022-02-17T12:47:11Z</time>
      </trkpt>
      <trkpt lat="45.35498" lon="4.40549">
        <ele>1021.54</ele>
        <time>2022-02-17T12:47:17Z</time>
      </trkpt>
      <trkpt lat="45.35483" lon="4.40545">
        <ele>1023.94</ele>
        <time>2022-02-17T12:47:31Z</time>
      </trkpt>
      <trkpt lat="45.35469" lon="4.4054">
        <ele>1023.46</ele>
        <time>2022-02-17T12:47:45Z</time>
      </trkpt>
      <trkpt lat="45.35454" lon="4.40531">
        <ele>1022.02</ele>
        <time>2022-02-17T12:47:59Z</time>
      </trkpt>
      <trkpt lat="45.35441" lon="4.40525">
        <ele>1021.06</ele>
        <time>2022-02-17T12:48:12Z</time>
      </trkpt>
      <trkpt lat="45.35436" lon="4.40523">
        <ele>1020.1</ele>
        <time>2022-02-17T12:48:17Z</time>
      </trkpt>
      <trkpt lat="45.35418" lon="4.40517">
        <ele>1017.21</ele>
        <time>2022-02-17T12:48:31Z</time>
      </trkpt>
      <trkpt lat="45.35415" lon="4.40517">
        <ele>1016.25</ele>
        <time>2022-02-17T12:48:34Z</time>
      </trkpt>
      <trkpt lat="45.35404" lon="4.40514">
        <ele>1015.29</ele>
        <time>2022-02-17T12:48:46Z</time>
      </trkpt>
      <trkpt lat="45.35403" lon="4.40514">
        <ele>1014.81</ele>
        <time>2022-02-17T12:48:49Z</time>
      </trkpt>
      <trkpt lat="45.354" lon="4.40512">
        <ele>1015.29</ele>
        <time>2022-02-17T12:48:52Z</time>
      </trkpt>
      <trkpt lat="45.35388" lon="4.40503">
        <ele>1015.77</ele>
        <time>2022-02-17T12:49:03Z</time>
      </trkpt>
      <trkpt lat="45.35378" lon="4.4049">
        <ele>1013.37</ele>
        <time>2022-02-17T12:49:16Z</time>
      </trkpt>
      <trkpt lat="45.35369" lon="4.40477">
        <ele>1016.25</ele>
        <time>2022-02-17T12:49:29Z</time>
      </trkpt>
      <trkpt lat="45.35358" lon="4.40459">
        <ele>1015.77</ele>
        <time>2022-02-17T12:49:42Z</time>
      </trkpt>
      <trkpt lat="45.3534" lon="4.40444">
        <ele>1011.44</ele>
        <time>2022-02-17T12:49:58Z</time>
      </trkpt>
      <trkpt lat="45.35333" lon="4.40438">
        <ele>1011.44</ele>
        <time>2022-02-17T12:50:04Z</time>
      </trkpt>
      <trkpt lat="45.3533" lon="4.40428">
        <ele>1011.44</ele>
        <time>2022-02-17T12:50:10Z</time>
      </trkpt>
      <trkpt lat="45.35328" lon="4.40421">
        <ele>1010.48</ele>
        <time>2022-02-17T12:50:14Z</time>
      </trkpt>
      <trkpt lat="45.35326" lon="4.4041">
        <ele>1008.56</ele>
        <time>2022-02-17T12:50:21Z</time>
      </trkpt>
      <trkpt lat="45.35327" lon="4.40382">
        <ele>1002.79</ele>
        <time>2022-02-17T12:50:37Z</time>
      </trkpt>
      <trkpt lat="45.35334" lon="4.40351">
        <ele>999.91</ele>
        <time>2022-02-17T12:50:54Z</time>
      </trkpt>
      <trkpt lat="45.35338" lon="4.40328">
        <ele>998.95</ele>
        <time>2022-02-17T12:51:09Z</time>
      </trkpt>
      <trkpt lat="45.35345" lon="4.40296">
        <ele>996.54</ele>
        <time>2022-02-17T12:51:27Z</time>
      </trkpt>
      <trkpt lat="45.35347" lon="4.40269">
        <ele>995.1</ele>
        <time>2022-02-17T12:51:43Z</time>
      </trkpt>
      <trkpt lat="45.35349" lon="4.40238">
        <ele>992.7</ele>
        <time>2022-02-17T12:52:00Z</time>
      </trkpt>
      <trkpt lat="45.3535" lon="4.40223">
        <ele>990.3</ele>
        <time>2022-02-17T12:52:08Z</time>
      </trkpt>
      <trkpt lat="45.35351" lon="4.40199">
        <ele>989.33</ele>
        <time>2022-02-17T12:52:22Z</time>
      </trkpt>
      <trkpt lat="45.35352" lon="4.40172">
        <ele>988.37</ele>
        <time>2022-02-17T12:52:37Z</time>
      </trkpt>
      <trkpt lat="45.35352" lon="4.4015">
        <ele>990.78</ele>
        <time>2022-02-17T12:52:51Z</time>
      </trkpt>
      <trkpt lat="45.35349" lon="4.4012">
        <ele>990.3</ele>
        <time>2022-02-17T12:53:06Z</time>
      </trkpt>
      <trkpt lat="45.35349" lon="4.40094">
        <ele>989.33</ele>
        <time>2022-02-17T12:53:21Z</time>
      </trkpt>
      <trkpt lat="45.3535" lon="4.40061">
        <ele>988.37</ele>
        <time>2022-02-17T12:53:38Z</time>
      </trkpt>
      <trkpt lat="45.35358" lon="4.40033">
        <ele>986.45</ele>
        <time>2022-02-17T12:53:54Z</time>
      </trkpt>
      <trkpt lat="45.35367" lon="4.40007">
        <ele>986.93</ele>
        <time>2022-02-17T12:54:08Z</time>
      </trkpt>
      <trkpt lat="45.3537" lon="4.39995">
        <ele>986.93</ele>
        <time>2022-02-17T12:54:15Z</time>
      </trkpt>
      <trkpt lat="45.35375" lon="4.39982">
        <ele>987.41</ele>
        <time>2022-02-17T12:54:24Z</time>
      </trkpt>
      <trkpt lat="45.35376" lon="4.39979">
        <ele>987.89</ele>
        <time>2022-02-17T12:54:26Z</time>
      </trkpt>
      <trkpt lat="45.35373" lon="4.39954">
        <ele>989.33</ele>
        <time>2022-02-17T12:54:39Z</time>
      </trkpt>
      <trkpt lat="45.3537" lon="4.39929">
        <ele>987.89</ele>
        <time>2022-02-17T12:54:53Z</time>
      </trkpt>
      <trkpt lat="45.3537" lon="4.39921">
        <ele>987.89</ele>
        <time>2022-02-17T12:54:57Z</time>
      </trkpt>
      <trkpt lat="45.35369" lon="4.39917">
        <ele>987.89</ele>
        <time>2022-02-17T12:54:59Z</time>
      </trkpt>
      <trkpt lat="45.35366" lon="4.39892">
        <ele>985.97</ele>
        <time>2022-02-17T12:55:12Z</time>
      </trkpt>
      <trkpt lat="45.35366" lon="4.39868">
        <ele>984.53</ele>
        <time>2022-02-17T12:55:25Z</time>
      </trkpt>
      <trkpt lat="45.35366" lon="4.39854">
        <ele>981.16</ele>
        <time>2022-02-17T12:55:33Z</time>
      </trkpt>
      <trkpt lat="45.35365" lon="4.39849">
        <ele>980.68</ele>
        <time>2022-02-17T12:55:37Z</time>
      </trkpt>
      <trkpt lat="45.35364" lon="4.39821">
        <ele>981.16</ele>
        <time>2022-02-17T12:55:51Z</time>
      </trkpt>
      <trkpt lat="45.35364" lon="4.39798">
        <ele>979.24</ele>
        <time>2022-02-17T12:56:04Z</time>
      </trkpt>
      <trkpt lat="45.35361" lon="4.39769">
        <ele>978.76</ele>
        <time>2022-02-17T12:56:20Z</time>
      </trkpt>
      <trkpt lat="45.3536" lon="4.39765">
        <ele>977.8</ele>
        <time>2022-02-17T12:56:23Z</time>
      </trkpt>
      <trkpt lat="45.35361" lon="4.3974">
        <ele>978.28</ele>
        <time>2022-02-17T12:56:36Z</time>
      </trkpt>
      <trkpt lat="45.35365" lon="4.39716">
        <ele>976.36</ele>
        <time>2022-02-17T12:56:49Z</time>
      </trkpt>
      <trkpt lat="45.35369" lon="4.39689">
        <ele>979.72</ele>
        <time>2022-02-17T12:57:04Z</time>
      </trkpt>
      <trkpt lat="45.35369" lon="4.39688">
        <ele>979.72</ele>
        <time>2022-02-17T12:57:05Z</time>
      </trkpt>
      <trkpt lat="45.35372" lon="4.3966">
        <ele>987.89</ele>
        <time>2022-02-17T12:57:20Z</time>
      </trkpt>
      <trkpt lat="45.35372" lon="4.39637">
        <ele>996.06</ele>
        <time>2022-02-17T12:57:33Z</time>
      </trkpt>
      <trkpt lat="45.35373" lon="4.39628">
        <ele>998.47</ele>
        <time>2022-02-17T12:57:38Z</time>
      </trkpt>
      <trkpt lat="45.35374" lon="4.39619">
        <ele>996.54</ele>
        <time>2022-02-17T12:57:51Z</time>
      </trkpt>
      <trkpt lat="45.3538" lon="4.39616">
        <ele>987.41</ele>
        <time>2022-02-17T12:58:11Z</time>
      </trkpt>
      <trkpt lat="45.35383" lon="4.39598">
        <ele>981.64</ele>
        <time>2022-02-17T12:58:25Z</time>
      </trkpt>
      <trkpt lat="45.35384" lon="4.3958">
        <ele>979.72</ele>
        <time>2022-02-17T12:58:38Z</time>
      </trkpt>
      <trkpt lat="45.35389" lon="4.39554">
        <ele>977.8</ele>
        <time>2022-02-17T12:58:53Z</time>
      </trkpt>
      <trkpt lat="45.3539" lon="4.39549">
        <ele>976.84</ele>
        <time>2022-02-17T12:58:56Z</time>
      </trkpt>
      <trkpt lat="45.35392" lon="4.39541">
        <ele>975.39</ele>
        <time>2022-02-17T12:59:00Z</time>
      </trkpt>
      <trkpt lat="45.35393" lon="4.39521">
        <ele>977.32</ele>
        <time>2022-02-17T12:59:14Z</time>
      </trkpt>
      <trkpt lat="45.35392" lon="4.39517">
        <ele>977.8</ele>
        <time>2022-02-17T12:59:16Z</time>
      </trkpt>
      <trkpt lat="45.35396" lon="4.39504">
        <ele>971.55</ele>
        <time>2022-02-17T12:59:22Z</time>
      </trkpt>
      <trkpt lat="45.35391" lon="4.39474">
        <ele>962.42</ele>
        <time>2022-02-17T12:59:38Z</time>
      </trkpt>
      <trkpt lat="45.35387" lon="4.39449">
        <ele>956.65</ele>
        <time>2022-02-17T12:59:53Z</time>
      </trkpt>
      <trkpt lat="45.35384" lon="4.39443">
        <ele>956.65</ele>
        <time>2022-02-17T12:59:57Z</time>
      </trkpt>
      <trkpt lat="45.35381" lon="4.39438">
        <ele>956.65</ele>
        <time>2022-02-17T13:00:10Z</time>
      </trkpt>
      <trkpt lat="45.35387" lon="4.39421">
        <ele>953.77</ele>
        <time>2022-02-17T13:00:27Z</time>
      </trkpt>
      <trkpt lat="45.35389" lon="4.39419">
        <ele>953.77</ele>
        <time>2022-02-17T13:00:29Z</time>
      </trkpt>
      <trkpt lat="45.35391" lon="4.39413">
        <ele>953.77</ele>
        <time>2022-02-17T13:00:33Z</time>
      </trkpt>
      <trkpt lat="45.35403" lon="4.39385">
        <ele>952.32</ele>
        <time>2022-02-17T13:00:50Z</time>
      </trkpt>
      <trkpt lat="45.35407" lon="4.39377">
        <ele>951.84</ele>
        <time>2022-02-17T13:00:57Z</time>
      </trkpt>
      <trkpt lat="45.35424" lon="4.39364">
        <ele>952.32</ele>
        <time>2022-02-17T13:01:13Z</time>
      </trkpt>
      <trkpt lat="45.35447" lon="4.39347">
        <ele>948.96</ele>
        <time>2022-02-17T13:01:32Z</time>
      </trkpt>
      <trkpt lat="45.35454" lon="4.39341">
        <ele>948.96</ele>
        <time>2022-02-17T13:01:38Z</time>
      </trkpt>
      <trkpt lat="45.3546" lon="4.39338">
        <ele>948.48</ele>
        <time>2022-02-17T13:01:43Z</time>
      </trkpt>
      <trkpt lat="45.35474" lon="4.39318">
        <ele>947.52</ele>
        <time>2022-02-17T13:01:58Z</time>
      </trkpt>
      <trkpt lat="45.35482" lon="4.39309">
        <ele>948.48</ele>
        <time>2022-02-17T13:02:07Z</time>
      </trkpt>
      <trkpt lat="45.35494" lon="4.39294">
        <ele>955.69</ele>
        <time>2022-02-17T13:02:20Z</time>
      </trkpt>
      <trkpt lat="45.35507" lon="4.39274">
        <ele>956.65</ele>
        <time>2022-02-17T13:02:33Z</time>
      </trkpt>
      <trkpt lat="45.35515" lon="4.39265">
        <ele>957.13</ele>
        <time>2022-02-17T13:02:42Z</time>
      </trkpt>
      <trkpt lat="45.35533" lon="4.39242">
        <ele>954.25</ele>
        <time>2022-02-17T13:02:58Z</time>
      </trkpt>
      <trkpt lat="45.35536" lon="4.39238">
        <ele>956.65</ele>
        <time>2022-02-17T13:03:02Z</time>
      </trkpt>
      <trkpt lat="45.35542" lon="4.39229">
        <ele>959.53</ele>
        <time>2022-02-17T13:03:08Z</time>
      </trkpt>
      <trkpt lat="45.35551" lon="4.39221">
        <ele>960.98</ele>
        <time>2022-02-17T13:03:15Z</time>
      </trkpt>
      <trkpt lat="45.35553" lon="4.39219">
        <ele>961.46</ele>
        <time>2022-02-17T13:03:17Z</time>
      </trkpt>
      <trkpt lat="45.35555" lon="4.39215">
        <ele>961.46</ele>
        <time>2022-02-17T13:03:19Z</time>
      </trkpt>
      <trkpt lat="45.35561" lon="4.39201">
        <ele>964.34</ele>
        <time>2022-02-17T13:03:28Z</time>
      </trkpt>
      <trkpt lat="45.35577" lon="4.39183">
        <ele>968.18</ele>
        <time>2022-02-17T13:03:44Z</time>
      </trkpt>
      <trkpt lat="45.3558" lon="4.39181">
        <ele>968.18</ele>
        <time>2022-02-17T13:03:46Z</time>
      </trkpt>
      <trkpt lat="45.35587" lon="4.39171">
        <ele>965.78</ele>
        <time>2022-02-17T13:03:52Z</time>
      </trkpt>
      <trkpt lat="45.35591" lon="4.39167">
        <ele>966.26</ele>
        <time>2022-02-17T13:03:56Z</time>
      </trkpt>
      <trkpt lat="45.35606" lon="4.39155">
        <ele>967.7</ele>
        <time>2022-02-17T13:04:10Z</time>
      </trkpt>
      <trkpt lat="45.35614" lon="4.39143">
        <ele>965.3</ele>
        <time>2022-02-17T13:04:23Z</time>
      </trkpt>
      <trkpt lat="45.35615" lon="4.39144">
        <ele>964.82</ele>
        <time>2022-02-17T13:04:25Z</time>
      </trkpt>
      <trkpt lat="45.35621" lon="4.3915">
        <ele>964.34</ele>
        <time>2022-02-17T13:04:32Z</time>
      </trkpt>
      <trkpt lat="45.3563" lon="4.39155">
        <ele>963.38</ele>
        <time>2022-02-17T13:04:40Z</time>
      </trkpt>
      <trkpt lat="45.35646" lon="4.39148">
        <ele>961.46</ele>
        <time>2022-02-17T13:04:52Z</time>
      </trkpt>
      <trkpt lat="45.3566" lon="4.39147">
        <ele>958.57</ele>
        <time>2022-02-17T13:05:03Z</time>
      </trkpt>
      <trkpt lat="45.35672" lon="4.39149">
        <ele>961.94</ele>
        <time>2022-02-17T13:05:14Z</time>
      </trkpt>
      <trkpt lat="45.35689" lon="4.39151">
        <ele>966.74</ele>
        <time>2022-02-17T13:05:27Z</time>
      </trkpt>
      <trkpt lat="45.35705" lon="4.39151">
        <ele>970.11</ele>
        <time>2022-02-17T13:05:42Z</time>
      </trkpt>
      <trkpt lat="45.35722" lon="4.39147">
        <ele>969.63</ele>
        <time>2022-02-17T13:05:55Z</time>
      </trkpt>
      <trkpt lat="45.35743" lon="4.3914">
        <ele>965.3</ele>
        <time>2022-02-17T13:06:09Z</time>
      </trkpt>
      <trkpt lat="45.35751" lon="4.39139">
        <ele>964.82</ele>
        <time>2022-02-17T13:06:14Z</time>
      </trkpt>
      <trkpt lat="45.35766" lon="4.39138">
        <ele>963.86</ele>
        <time>2022-02-17T13:06:26Z</time>
      </trkpt>
      <trkpt lat="45.35785" lon="4.39143">
        <ele>965.3</ele>
        <time>2022-02-17T13:06:40Z</time>
      </trkpt>
      <trkpt lat="45.358" lon="4.39145">
        <ele>967.7</ele>
        <time>2022-02-17T13:06:53Z</time>
      </trkpt>
      <trkpt lat="45.35805" lon="4.39146">
        <ele>969.63</ele>
        <time>2022-02-17T13:06:57Z</time>
      </trkpt>
      <trkpt lat="45.35808" lon="4.39147">
        <ele>969.63</ele>
        <time>2022-02-17T13:06:59Z</time>
      </trkpt>
      <trkpt lat="45.3583" lon="4.39148">
        <ele>966.26</ele>
        <time>2022-02-17T13:07:13Z</time>
      </trkpt>
      <trkpt lat="45.35844" lon="4.39154">
        <ele>962.42</ele>
        <time>2022-02-17T13:07:24Z</time>
      </trkpt>
      <trkpt lat="45.35866" lon="4.39169">
        <ele>963.86</ele>
        <time>2022-02-17T13:07:39Z</time>
      </trkpt>
      <trkpt lat="45.35889" lon="4.39178">
        <ele>960.98</ele>
        <time>2022-02-17T13:07:54Z</time>
      </trkpt>
      <trkpt lat="45.35909" lon="4.39191">
        <ele>956.17</ele>
        <time>2022-02-17T13:08:08Z</time>
      </trkpt>
      <trkpt lat="45.35922" lon="4.39202">
        <ele>958.57</ele>
        <time>2022-02-17T13:08:20Z</time>
      </trkpt>
      <trkpt lat="45.35937" lon="4.39204">
        <ele>958.09</ele>
        <time>2022-02-17T13:08:30Z</time>
      </trkpt>
      <trkpt lat="45.35956" lon="4.39216">
        <ele>960.01</ele>
        <time>2022-02-17T13:08:45Z</time>
      </trkpt>
      <trkpt lat="45.35973" lon="4.3922">
        <ele>958.57</ele>
        <time>2022-02-17T13:08:59Z</time>
      </trkpt>
      <trkpt lat="45.35988" lon="4.39221">
        <ele>954.73</ele>
        <time>2022-02-17T13:09:12Z</time>
      </trkpt>
      <trkpt lat="45.36006" lon="4.39222">
        <ele>957.13</ele>
        <time>2022-02-17T13:09:23Z</time>
      </trkpt>
      <trkpt lat="45.36023" lon="4.39213">
        <ele>950.88</ele>
        <time>2022-02-17T13:09:37Z</time>
      </trkpt>
      <trkpt lat="45.36028" lon="4.39211">
        <ele>949.92</ele>
        <time>2022-02-17T13:09:42Z</time>
      </trkpt>
      <trkpt lat="45.36031" lon="4.3921">
        <ele>949.44</ele>
        <time>2022-02-17T13:09:44Z</time>
      </trkpt>
      <trkpt lat="45.36044" lon="4.39208">
        <ele>946.07</ele>
        <time>2022-02-17T13:09:55Z</time>
      </trkpt>
      <trkpt lat="45.36061" lon="4.39207">
        <ele>942.23</ele>
        <time>2022-02-17T13:10:06Z</time>
      </trkpt>
      <trkpt lat="45.36066" lon="4.39207">
        <ele>941.75</ele>
        <time>2022-02-17T13:10:09Z</time>
      </trkpt>
      <trkpt lat="45.36071" lon="4.39205">
        <ele>941.75</ele>
        <time>2022-02-17T13:10:12Z</time>
      </trkpt>
      <trkpt lat="45.36083" lon="4.39201">
        <ele>938.86</ele>
        <time>2022-02-17T13:10:21Z</time>
      </trkpt>
      <trkpt lat="45.36087" lon="4.39197">
        <ele>938.38</ele>
        <time>2022-02-17T13:10:24Z</time>
      </trkpt>
      <trkpt lat="45.36092" lon="4.39195">
        <ele>938.86</ele>
        <time>2022-02-17T13:10:28Z</time>
      </trkpt>
      <trkpt lat="45.36099" lon="4.39189">
        <ele>939.35</ele>
        <time>2022-02-17T13:10:34Z</time>
      </trkpt>
      <trkpt lat="45.36106" lon="4.39182">
        <ele>939.83</ele>
        <time>2022-02-17T13:10:40Z</time>
      </trkpt>
      <trkpt lat="45.36111" lon="4.39179">
        <ele>939.35</ele>
        <time>2022-02-17T13:10:44Z</time>
      </trkpt>
      <trkpt lat="45.36113" lon="4.39177">
        <ele>938.86</ele>
        <time>2022-02-17T13:10:46Z</time>
      </trkpt>
      <trkpt lat="45.3613" lon="4.39168">
        <ele>937.9</ele>
        <time>2022-02-17T13:10:59Z</time>
      </trkpt>
      <trkpt lat="45.36131" lon="4.39167">
        <ele>938.38</ele>
        <time>2022-02-17T13:11:00Z</time>
      </trkpt>
      <trkpt lat="45.36149" lon="4.39154">
        <ele>936.46</ele>
        <time>2022-02-17T13:11:14Z</time>
      </trkpt>
      <trkpt lat="45.36152" lon="4.39153">
        <ele>936.46</ele>
        <time>2022-02-17T13:11:16Z</time>
      </trkpt>
      <trkpt lat="45.36156" lon="4.39151">
        <ele>936.94</ele>
        <time>2022-02-17T13:11:20Z</time>
      </trkpt>
      <trkpt lat="45.36169" lon="4.39167">
        <ele>937.42</ele>
        <time>2022-02-17T13:11:33Z</time>
      </trkpt>
      <trkpt lat="45.36181" lon="4.39188">
        <ele>936.94</ele>
        <time>2022-02-17T13:11:47Z</time>
      </trkpt>
      <trkpt lat="45.36189" lon="4.39201">
        <ele>937.9</ele>
        <time>2022-02-17T13:11:56Z</time>
      </trkpt>
      <trkpt lat="45.36192" lon="4.39208">
        <ele>937.9</ele>
        <time>2022-02-17T13:12:01Z</time>
      </trkpt>
      <trkpt lat="45.36203" lon="4.3921">
        <ele>937.42</ele>
        <time>2022-02-17T13:12:09Z</time>
      </trkpt>
      <trkpt lat="45.36211" lon="4.39209">
        <ele>935.98</ele>
        <time>2022-02-17T13:12:16Z</time>
      </trkpt>
      <trkpt lat="45.36212" lon="4.39208">
        <ele>935.98</ele>
        <time>2022-02-17T13:12:18Z</time>
      </trkpt>
      <trkpt lat="45.36219" lon="4.39205">
        <ele>935.98</ele>
        <time>2022-02-17T13:12:26Z</time>
      </trkpt>
      <trkpt lat="45.36232" lon="4.39198">
        <ele>935.5</ele>
        <time>2022-02-17T13:12:38Z</time>
      </trkpt>
      <trkpt lat="45.36246" lon="4.39194">
        <ele>935.5</ele>
        <time>2022-02-17T13:12:48Z</time>
      </trkpt>
      <trkpt lat="45.36268" lon="4.39191">
        <ele>932.62</ele>
        <time>2022-02-17T13:13:03Z</time>
      </trkpt>
      <trkpt lat="45.36289" lon="4.39187">
        <ele>931.65</ele>
        <time>2022-02-17T13:13:18Z</time>
      </trkpt>
      <trkpt lat="45.36291" lon="4.39186">
        <ele>932.14</ele>
        <time>2022-02-17T13:13:20Z</time>
      </trkpt>
      <trkpt lat="45.36311" lon="4.3918">
        <ele>931.17</ele>
        <time>2022-02-17T13:13:35Z</time>
      </trkpt>
      <trkpt lat="45.36324" lon="4.39176">
        <ele>931.17</ele>
        <time>2022-02-17T13:13:44Z</time>
      </trkpt>
      <trkpt lat="45.36328" lon="4.39174">
        <ele>931.17</ele>
        <time>2022-02-17T13:13:48Z</time>
      </trkpt>
      <trkpt lat="45.36341" lon="4.39172">
        <ele>930.21</ele>
        <time>2022-02-17T13:13:59Z</time>
      </trkpt>
      <trkpt lat="45.36355" lon="4.39169">
        <ele>931.17</ele>
        <time>2022-02-17T13:14:09Z</time>
      </trkpt>
      <trkpt lat="45.36367" lon="4.39162">
        <ele>930.69</ele>
        <time>2022-02-17T13:14:21Z</time>
      </trkpt>
      <trkpt lat="45.36381" lon="4.39155">
        <ele>930.21</ele>
        <time>2022-02-17T13:14:33Z</time>
      </trkpt>
      <trkpt lat="45.36386" lon="4.39152">
        <ele>931.17</ele>
        <time>2022-02-17T13:14:37Z</time>
      </trkpt>
      <trkpt lat="45.36403" lon="4.39139">
        <ele>930.21</ele>
        <time>2022-02-17T13:14:49Z</time>
      </trkpt>
      <trkpt lat="45.36404" lon="4.39137">
        <ele>930.21</ele>
        <time>2022-02-17T13:14:51Z</time>
      </trkpt>
      <trkpt lat="45.36418" lon="4.39129">
        <ele>929.25</ele>
        <time>2022-02-17T13:15:01Z</time>
      </trkpt>
      <trkpt lat="45.3643" lon="4.39115">
        <ele>929.73</ele>
        <time>2022-02-17T13:15:11Z</time>
      </trkpt>
      <trkpt lat="45.36433" lon="4.39111">
        <ele>929.73</ele>
        <time>2022-02-17T13:15:14Z</time>
      </trkpt>
      <trkpt lat="45.36451" lon="4.39101">
        <ele>933.58</ele>
        <time>2022-02-17T13:15:28Z</time>
      </trkpt>
      <trkpt lat="45.36458" lon="4.39095">
        <ele>933.1</ele>
        <time>2022-02-17T13:15:34Z</time>
      </trkpt>
      <trkpt lat="45.36474" lon="4.39078">
        <ele>932.62</ele>
        <time>2022-02-17T13:15:49Z</time>
      </trkpt>
      <trkpt lat="45.3649" lon="4.39061">
        <ele>930.21</ele>
        <time>2022-02-17T13:16:02Z</time>
      </trkpt>
      <trkpt lat="45.36499" lon="4.39052">
        <ele>929.73</ele>
        <time>2022-02-17T13:16:10Z</time>
      </trkpt>
      <trkpt lat="45.36517" lon="4.39035">
        <ele>931.65</ele>
        <time>2022-02-17T13:16:24Z</time>
      </trkpt>
      <trkpt lat="45.36537" lon="4.39015">
        <ele>928.29</ele>
        <time>2022-02-17T13:16:41Z</time>
      </trkpt>
      <trkpt lat="45.36559" lon="4.38999">
        <ele>925.41</ele>
        <time>2022-02-17T13:16:58Z</time>
      </trkpt>
      <trkpt lat="45.36581" lon="4.38981">
        <ele>923</ele>
        <time>2022-02-17T13:17:15Z</time>
      </trkpt>
      <trkpt lat="45.36603" lon="4.38963">
        <ele>920.12</ele>
        <time>2022-02-17T13:17:33Z</time>
      </trkpt>
      <trkpt lat="45.36619" lon="4.38947">
        <ele>917.24</ele>
        <time>2022-02-17T13:17:48Z</time>
      </trkpt>
      <trkpt lat="45.36625" lon="4.38939">
        <ele>918.2</ele>
        <time>2022-02-17T13:17:55Z</time>
      </trkpt>
      <trkpt lat="45.36638" lon="4.38922">
        <ele>918.2</ele>
        <time>2022-02-17T13:18:09Z</time>
      </trkpt>
      <trkpt lat="45.36659" lon="4.38902">
        <ele>913.39</ele>
        <time>2022-02-17T13:18:24Z</time>
      </trkpt>
      <trkpt lat="45.36672" lon="4.3888">
        <ele>913.87</ele>
        <time>2022-02-17T13:18:40Z</time>
      </trkpt>
      <trkpt lat="45.36683" lon="4.3886">
        <ele>915.31</ele>
        <time>2022-02-17T13:18:53Z</time>
      </trkpt>
      <trkpt lat="45.36691" lon="4.38847">
        <ele>916.27</ele>
        <time>2022-02-17T13:19:03Z</time>
      </trkpt>
      <trkpt lat="45.36694" lon="4.3884">
        <ele>916.27</ele>
        <time>2022-02-17T13:19:07Z</time>
      </trkpt>
      <trkpt lat="45.36698" lon="4.38832">
        <ele>916.27</ele>
        <time>2022-02-17T13:19:11Z</time>
      </trkpt>
      <trkpt lat="45.36709" lon="4.3882">
        <ele>916.27</ele>
        <time>2022-02-17T13:19:22Z</time>
      </trkpt>
      <trkpt lat="45.36732" lon="4.38794">
        <ele>910.99</ele>
        <time>2022-02-17T13:19:40Z</time>
      </trkpt>
      <trkpt lat="45.3675" lon="4.38771">
        <ele>907.14</ele>
        <time>2022-02-17T13:19:56Z</time>
      </trkpt>
      <trkpt lat="45.3677" lon="4.38767">
        <ele>902.82</ele>
        <time>2022-02-17T13:20:11Z</time>
      </trkpt>
      <trkpt lat="45.36785" lon="4.38771">
        <ele>900.89</ele>
        <time>2022-02-17T13:20:24Z</time>
      </trkpt>
      <trkpt lat="45.36799" lon="4.38773">
        <ele>898.01</ele>
        <time>2022-02-17T13:20:35Z</time>
      </trkpt>
      <trkpt lat="45.36804" lon="4.38773">
        <ele>897.53</ele>
        <time>2022-02-17T13:20:39Z</time>
      </trkpt>
      <trkpt lat="45.36822" lon="4.38769">
        <ele>894.64</ele>
        <time>2022-02-17T13:20:55Z</time>
      </trkpt>
      <trkpt lat="45.36825" lon="4.38769">
        <ele>892.72</ele>
        <time>2022-02-17T13:21:09Z</time>
      </trkpt>
      <trkpt lat="45.36826" lon="4.38769">
        <ele>891.28</ele>
        <time>2022-02-17T13:21:33Z</time>
      </trkpt>
      <trkpt lat="45.36828" lon="4.38767">
        <ele>890.8</ele>
        <time>2022-02-17T13:21:52Z</time>
      </trkpt>
      <trkpt lat="45.36848" lon="4.38755">
        <ele>886.95</ele>
        <time>2022-02-17T13:22:10Z</time>
      </trkpt>
      <trkpt lat="45.36869" lon="4.38744">
        <ele>886.47</ele>
        <time>2022-02-17T13:22:28Z</time>
      </trkpt>
      <trkpt lat="45.36889" lon="4.3873">
        <ele>885.51</ele>
        <time>2022-02-17T13:22:45Z</time>
      </trkpt>
      <trkpt lat="45.36911" lon="4.38708">
        <ele>884.55</ele>
        <time>2022-02-17T13:23:05Z</time>
      </trkpt>
      <trkpt lat="45.36926" lon="4.38687">
        <ele>885.03</ele>
        <time>2022-02-17T13:23:21Z</time>
      </trkpt>
      <trkpt lat="45.36943" lon="4.38663">
        <ele>884.07</ele>
        <time>2022-02-17T13:23:40Z</time>
      </trkpt>
      <trkpt lat="45.36959" lon="4.38639">
        <ele>881.67</ele>
        <time>2022-02-17T13:23:57Z</time>
      </trkpt>
      <trkpt lat="45.36978" lon="4.38615">
        <ele>879.74</ele>
        <time>2022-02-17T13:24:17Z</time>
      </trkpt>
      <trkpt lat="45.36999" lon="4.38596">
        <ele>876.86</ele>
        <time>2022-02-17T13:24:37Z</time>
      </trkpt>
      <trkpt lat="45.3702" lon="4.38587">
        <ele>875.42</ele>
        <time>2022-02-17T13:24:54Z</time>
      </trkpt>
      <trkpt lat="45.37042" lon="4.38578">
        <ele>871.57</ele>
        <time>2022-02-17T13:25:10Z</time>
      </trkpt>
      <trkpt lat="45.37065" lon="4.38568">
        <ele>868.69</ele>
        <time>2022-02-17T13:25:27Z</time>
      </trkpt>
      <trkpt lat="45.37086" lon="4.38554">
        <ele>864.36</ele>
        <time>2022-02-17T13:25:43Z</time>
      </trkpt>
      <trkpt lat="45.3711" lon="4.38534">
        <ele>860.52</ele>
        <time>2022-02-17T13:26:02Z</time>
      </trkpt>
      <trkpt lat="45.37126" lon="4.38522">
        <ele>859.08</ele>
        <time>2022-02-17T13:26:20Z</time>
      </trkpt>
      <trkpt lat="45.37139" lon="4.38509">
        <ele>858.11</ele>
        <time>2022-02-17T13:26:34Z</time>
      </trkpt>
      <trkpt lat="45.37158" lon="4.38503">
        <ele>857.15</ele>
        <time>2022-02-17T13:26:49Z</time>
      </trkpt>
      <trkpt lat="45.37183" lon="4.38495">
        <ele>856.19</ele>
        <time>2022-02-17T13:27:08Z</time>
      </trkpt>
      <trkpt lat="45.37203" lon="4.38489">
        <ele>857.63</ele>
        <time>2022-02-17T13:27:25Z</time>
      </trkpt>
      <trkpt lat="45.37229" lon="4.38482">
        <ele>856.19</ele>
        <time>2022-02-17T13:27:43Z</time>
      </trkpt>
      <trkpt lat="45.37255" lon="4.38478">
        <ele>854.75</ele>
        <time>2022-02-17T13:28:02Z</time>
      </trkpt>
      <trkpt lat="45.37276" lon="4.38475">
        <ele>853.79</ele>
        <time>2022-02-17T13:28:18Z</time>
      </trkpt>
      <trkpt lat="45.373" lon="4.38471">
        <ele>854.27</ele>
        <time>2022-02-17T13:28:35Z</time>
      </trkpt>
      <trkpt lat="45.37327" lon="4.38465">
        <ele>853.31</ele>
        <time>2022-02-17T13:28:54Z</time>
      </trkpt>
      <trkpt lat="45.37351" lon="4.38457">
        <ele>852.35</ele>
        <time>2022-02-17T13:29:12Z</time>
      </trkpt>
      <trkpt lat="45.37378" lon="4.38444">
        <ele>849.46</ele>
        <time>2022-02-17T13:29:32Z</time>
      </trkpt>
      <trkpt lat="45.37404" lon="4.3844">
        <ele>847.54</ele>
        <time>2022-02-17T13:29:50Z</time>
      </trkpt>
      <trkpt lat="45.37433" lon="4.38435">
        <ele>845.14</ele>
        <time>2022-02-17T13:30:10Z</time>
      </trkpt>
      <trkpt lat="45.37435" lon="4.38434">
        <ele>845.14</ele>
        <time>2022-02-17T13:30:12Z</time>
      </trkpt>
      <trkpt lat="45.3746" lon="4.38424">
        <ele>845.14</ele>
        <time>2022-02-17T13:30:31Z</time>
      </trkpt>
      <trkpt lat="45.37479" lon="4.38418">
        <ele>844.66</ele>
        <time>2022-02-17T13:30:46Z</time>
      </trkpt>
      <trkpt lat="45.37487" lon="4.38416">
        <ele>844.66</ele>
        <time>2022-02-17T13:30:57Z</time>
      </trkpt>
      <trkpt lat="45.37504" lon="4.38408">
        <ele>844.66</ele>
        <time>2022-02-17T13:31:11Z</time>
      </trkpt>
      <trkpt lat="45.37521" lon="4.38403">
        <ele>845.14</ele>
        <time>2022-02-17T13:31:26Z</time>
      </trkpt>
      <trkpt lat="45.37539" lon="4.38397">
        <ele>846.1</ele>
        <time>2022-02-17T13:31:40Z</time>
      </trkpt>
      <trkpt lat="45.37557" lon="4.38393">
        <ele>846.58</ele>
        <time>2022-02-17T13:31:55Z</time>
      </trkpt>
      <trkpt lat="45.37559" lon="4.38392">
        <ele>846.58</ele>
        <time>2022-02-17T13:31:57Z</time>
      </trkpt>
      <trkpt lat="45.37574" lon="4.38389">
        <ele>846.1</ele>
        <time>2022-02-17T13:32:11Z</time>
      </trkpt>
      <trkpt lat="45.3758" lon="4.38389">
        <ele>846.58</ele>
        <time>2022-02-17T13:32:16Z</time>
      </trkpt>
      <trkpt lat="45.37589" lon="4.38388">
        <ele>847.06</ele>
        <time>2022-02-17T13:32:23Z</time>
      </trkpt>
      <trkpt lat="45.37615" lon="4.38382">
        <ele>847.06</ele>
        <time>2022-02-17T13:32:43Z</time>
      </trkpt>
      <trkpt lat="45.37642" lon="4.38368">
        <ele>845.62</ele>
        <time>2022-02-17T13:33:04Z</time>
      </trkpt>
      <trkpt lat="45.37669" lon="4.38358">
        <ele>843.69</ele>
        <time>2022-02-17T13:33:25Z</time>
      </trkpt>
      <trkpt lat="45.3769" lon="4.38347">
        <ele>840.33</ele>
        <time>2022-02-17T13:33:42Z</time>
      </trkpt>
      <trkpt lat="45.37713" lon="4.38332">
        <ele>836.96</ele>
        <time>2022-02-17T13:34:00Z</time>
      </trkpt>
      <trkpt lat="45.37737" lon="4.38317">
        <ele>832.64</ele>
        <time>2022-02-17T13:34:19Z</time>
      </trkpt>
      <trkpt lat="45.37743" lon="4.38312">
        <ele>831.2</ele>
        <time>2022-02-17T13:34:24Z</time>
      </trkpt>
      <trkpt lat="45.37763" lon="4.38298">
        <ele>826.87</ele>
        <time>2022-02-17T13:34:41Z</time>
      </trkpt>
      <trkpt lat="45.37773" lon="4.38295">
        <ele>826.87</ele>
        <time>2022-02-17T13:34:56Z</time>
      </trkpt>
      <trkpt lat="45.37772" lon="4.38294">
        <ele>825.43</ele>
        <time>2022-02-17T13:35:12Z</time>
      </trkpt>
      <trkpt lat="45.37777" lon="4.38297">
        <ele>825.91</ele>
        <time>2022-02-17T13:35:27Z</time>
      </trkpt>
      <trkpt lat="45.3779" lon="4.38308">
        <ele>824.47</ele>
        <time>2022-02-17T13:35:41Z</time>
      </trkpt>
      <trkpt lat="45.37799" lon="4.38323">
        <ele>823.03</ele>
        <time>2022-02-17T13:35:54Z</time>
      </trkpt>
      <trkpt lat="45.37808" lon="4.38341">
        <ele>825.43</ele>
        <time>2022-02-17T13:36:08Z</time>
      </trkpt>
      <trkpt lat="45.37811" lon="4.38345">
        <ele>824.95</ele>
        <time>2022-02-17T13:36:11Z</time>
      </trkpt>
      <trkpt lat="45.37816" lon="4.38344">
        <ele>824.95</ele>
        <time>2022-02-17T13:36:19Z</time>
      </trkpt>
      <trkpt lat="45.37818" lon="4.38334">
        <ele>829.27</ele>
        <time>2022-02-17T13:36:29Z</time>
      </trkpt>
      <trkpt lat="45.37822" lon="4.38306">
        <ele>823.99</ele>
        <time>2022-02-17T13:36:45Z</time>
      </trkpt>
      <trkpt lat="45.37825" lon="4.38277">
        <ele>815.34</ele>
        <time>2022-02-17T13:37:02Z</time>
      </trkpt>
      <trkpt lat="45.37827" lon="4.38256">
        <ele>809.09</ele>
        <time>2022-02-17T13:37:15Z</time>
      </trkpt>
      <trkpt lat="45.37829" lon="4.38251">
        <ele>808.61</ele>
        <time>2022-02-17T13:37:18Z</time>
      </trkpt>
      <trkpt lat="45.37839" lon="4.38224">
        <ele>804.28</ele>
        <time>2022-02-17T13:37:35Z</time>
      </trkpt>
      <trkpt lat="45.3785" lon="4.38198">
        <ele>795.15</ele>
        <time>2022-02-17T13:37:50Z</time>
      </trkpt>
      <trkpt lat="45.37859" lon="4.38175">
        <ele>788.9</ele>
        <time>2022-02-17T13:38:05Z</time>
      </trkpt>
      <trkpt lat="45.37862" lon="4.38171">
        <ele>787.94</ele>
        <time>2022-02-17T13:38:09Z</time>
      </trkpt>
      <trkpt lat="45.37865" lon="4.38157">
        <ele>786.02</ele>
        <time>2022-02-17T13:38:17Z</time>
      </trkpt>
      <trkpt lat="45.3787" lon="4.38153">
        <ele>784.57</ele>
        <time>2022-02-17T13:38:21Z</time>
      </trkpt>
      <trkpt lat="45.37877" lon="4.38152">
        <ele>781.69</ele>
        <time>2022-02-17T13:38:26Z</time>
      </trkpt>
      <trkpt lat="45.37882" lon="4.38154">
        <ele>779.77</ele>
        <time>2022-02-17T13:38:30Z</time>
      </trkpt>
      <trkpt lat="45.37894" lon="4.38164">
        <ele>776.4</ele>
        <time>2022-02-17T13:38:44Z</time>
      </trkpt>
      <trkpt lat="45.37896" lon="4.38168">
        <ele>775.44</ele>
        <time>2022-02-17T13:38:51Z</time>
      </trkpt>
      <trkpt lat="45.37898" lon="4.38177">
        <ele>775.92</ele>
        <time>2022-02-17T13:38:58Z</time>
      </trkpt>
      <trkpt lat="45.37902" lon="4.38187">
        <ele>776.88</ele>
        <time>2022-02-17T13:39:04Z</time>
      </trkpt>
      <trkpt lat="45.37906" lon="4.38203">
        <ele>776.4</ele>
        <time>2022-02-17T13:39:13Z</time>
      </trkpt>
      <trkpt lat="45.37915" lon="4.38219">
        <ele>774.96</ele>
        <time>2022-02-17T13:39:24Z</time>
      </trkpt>
      <trkpt lat="45.37921" lon="4.38233">
        <ele>775.44</ele>
        <time>2022-02-17T13:39:36Z</time>
      </trkpt>
      <trkpt lat="45.37927" lon="4.38241">
        <ele>775.44</ele>
        <time>2022-02-17T13:39:43Z</time>
      </trkpt>
      <trkpt lat="45.37935" lon="4.3826">
        <ele>776.88</ele>
        <time>2022-02-17T13:39:55Z</time>
      </trkpt>
      <trkpt lat="45.37936" lon="4.3827">
        <ele>776.4</ele>
        <time>2022-02-17T13:40:00Z</time>
      </trkpt>
      <trkpt lat="45.37936" lon="4.3828">
        <ele>776.4</ele>
        <time>2022-02-17T13:40:05Z</time>
      </trkpt>
      <trkpt lat="45.37936" lon="4.38287">
        <ele>775.44</ele>
        <time>2022-02-17T13:40:09Z</time>
      </trkpt>
      <trkpt lat="45.3794" lon="4.38297">
        <ele>775.44</ele>
        <time>2022-02-17T13:40:14Z</time>
      </trkpt>
      <trkpt lat="45.37947" lon="4.3832">
        <ele>773.52</ele>
        <time>2022-02-17T13:40:28Z</time>
      </trkpt>
      <trkpt lat="45.37949" lon="4.38336">
        <ele>769.19</ele>
        <time>2022-02-17T13:40:40Z</time>
      </trkpt>
      <trkpt lat="45.3795" lon="4.38338">
        <ele>768.23</ele>
        <time>2022-02-17T13:40:43Z</time>
      </trkpt>
      <trkpt lat="45.3796" lon="4.38351">
        <ele>765.83</ele>
        <time>2022-02-17T13:40:56Z</time>
      </trkpt>
      <trkpt lat="45.37968" lon="4.38362">
        <ele>764.39</ele>
        <time>2022-02-17T13:41:08Z</time>
      </trkpt>
      <trkpt lat="45.37969" lon="4.38367">
        <ele>764.87</ele>
        <time>2022-02-17T13:41:11Z</time>
      </trkpt>
      <trkpt lat="45.37972" lon="4.38375">
        <ele>765.83</ele>
        <time>2022-02-17T13:41:14Z</time>
      </trkpt>
      <trkpt lat="45.3798" lon="4.38404">
        <ele>765.83</ele>
        <time>2022-02-17T13:41:28Z</time>
      </trkpt>
      <trkpt lat="45.37981" lon="4.38408">
        <ele>764.87</ele>
        <time>2022-02-17T13:41:30Z</time>
      </trkpt>
      <trkpt lat="45.3798" lon="4.38426">
        <ele>763.42</ele>
        <time>2022-02-17T13:41:42Z</time>
      </trkpt>
      <trkpt lat="45.37979" lon="4.3843">
        <ele>763.9</ele>
        <time>2022-02-17T13:41:57Z</time>
      </trkpt>
      <trkpt lat="45.37978" lon="4.3843">
        <ele>762.46</ele>
        <time>2022-02-17T13:42:16Z</time>
      </trkpt>
      <trkpt lat="45.37977" lon="4.38432">
        <ele>760.06</ele>
        <time>2022-02-17T13:42:43Z</time>
      </trkpt>
      <trkpt lat="45.37978" lon="4.38427">
        <ele>755.25</ele>
        <time>2022-02-17T13:43:02Z</time>
      </trkpt>
      <trkpt lat="45.3798" lon="4.38424">
        <ele>752.37</ele>
        <time>2022-02-17T13:43:05Z</time>
      </trkpt>
      <trkpt lat="45.37987" lon="4.38439">
        <ele>748.52</ele>
        <time>2022-02-17T13:43:13Z</time>
      </trkpt>
      <trkpt lat="45.37989" lon="4.38456">
        <ele>746.6</ele>
        <time>2022-02-17T13:43:18Z</time>
      </trkpt>
      <trkpt lat="45.37986" lon="4.38467">
        <ele>742.28</ele>
        <time>2022-02-17T13:43:23Z</time>
      </trkpt>
      <trkpt lat="45.37983" lon="4.38471">
        <ele>739.87</ele>
        <time>2022-02-17T13:43:27Z</time>
      </trkpt>
      <trkpt lat="45.37972" lon="4.38482">
        <ele>737.47</ele>
        <time>2022-02-17T13:43:36Z</time>
      </trkpt>
      <trkpt lat="45.37983" lon="4.38507">
        <ele>736.99</ele>
        <time>2022-02-17T13:43:51Z</time>
      </trkpt>
      <trkpt lat="45.38004" lon="4.38541">
        <ele>735.07</ele>
        <time>2022-02-17T13:44:12Z</time>
      </trkpt>
      <trkpt lat="45.38015" lon="4.38556">
        <ele>733.62</ele>
        <time>2022-02-17T13:44:26Z</time>
      </trkpt>
      <trkpt lat="45.38017" lon="4.38559">
        <ele>733.62</ele>
        <time>2022-02-17T13:44:28Z</time>
      </trkpt>
      <trkpt lat="45.3802" lon="4.38559">
        <ele>733.14</ele>
        <time>2022-02-17T13:44:33Z</time>
      </trkpt>
      <trkpt lat="45.38037" lon="4.38581">
        <ele>731.7</ele>
        <time>2022-02-17T13:44:51Z</time>
      </trkpt>
      <trkpt lat="45.38045" lon="4.38586">
        <ele>731.22</ele>
        <time>2022-02-17T13:45:00Z</time>
      </trkpt>
      <trkpt lat="45.38053" lon="4.38572">
        <ele>727.86</ele>
        <time>2022-02-17T13:45:15Z</time>
      </trkpt>
      <trkpt lat="45.38056" lon="4.38566">
        <ele>726.41</ele>
        <time>2022-02-17T13:45:26Z</time>
      </trkpt>
      <trkpt lat="45.38062" lon="4.38557">
        <ele>724.97</ele>
        <time>2022-02-17T13:45:39Z</time>
      </trkpt>
      <trkpt lat="45.38062" lon="4.38552">
        <ele>723.53</ele>
        <time>2022-02-17T13:45:45Z</time>
      </trkpt>
      <trkpt lat="45.3806" lon="4.38553">
        <ele>723.05</ele>
        <time>2022-02-17T13:45:47Z</time>
      </trkpt>
      <trkpt lat="45.38044" lon="4.3856">
        <ele>720.16</ele>
        <time>2022-02-17T13:46:03Z</time>
      </trkpt>
      <trkpt lat="45.38036" lon="4.38566">
        <ele>718.72</ele>
        <time>2022-02-17T13:46:12Z</time>
      </trkpt>
      <trkpt lat="45.38037" lon="4.38557">
        <ele>714.88</ele>
        <time>2022-02-17T13:46:20Z</time>
      </trkpt>
      <trkpt lat="45.38044" lon="4.38542">
        <ele>711.51</ele>
        <time>2022-02-17T13:46:34Z</time>
      </trkpt>
      <trkpt lat="45.38051" lon="4.38529">
        <ele>708.63</ele>
        <time>2022-02-17T13:46:45Z</time>
      </trkpt>
      <trkpt lat="45.38066" lon="4.38509">
        <ele>704.78</ele>
        <time>2022-02-17T13:47:03Z</time>
      </trkpt>
      <trkpt lat="45.38078" lon="4.38495">
        <ele>702.86</ele>
        <time>2022-02-17T13:47:17Z</time>
      </trkpt>
      <trkpt lat="45.38086" lon="4.38478">
        <ele>703.34</ele>
        <time>2022-02-17T13:47:33Z</time>
      </trkpt>
      <trkpt lat="45.38086" lon="4.38476">
        <ele>703.34</ele>
        <time>2022-02-17T13:47:34Z</time>
      </trkpt>
      <trkpt lat="45.38085" lon="4.38458">
        <ele>698.53</ele>
        <time>2022-02-17T13:47:46Z</time>
      </trkpt>
      <trkpt lat="45.38085" lon="4.38449">
        <ele>697.57</ele>
        <time>2022-02-17T13:47:54Z</time>
      </trkpt>
      <trkpt lat="45.38089" lon="4.38442">
        <ele>697.57</ele>
        <time>2022-02-17T13:48:07Z</time>
      </trkpt>
      <trkpt lat="45.38087" lon="4.38436">
        <ele>697.57</ele>
        <time>2022-02-17T13:48:17Z</time>
      </trkpt>
      <trkpt lat="45.38088" lon="4.38433">
        <ele>696.61</ele>
        <time>2022-02-17T13:48:30Z</time>
      </trkpt>
      <trkpt lat="45.38087" lon="4.38421">
        <ele>695.65</ele>
        <time>2022-02-17T13:48:38Z</time>
      </trkpt>
      <trkpt lat="45.38088" lon="4.38395">
        <ele>697.09</ele>
        <time>2022-02-17T13:48:53Z</time>
      </trkpt>
      <trkpt lat="45.38091" lon="4.3837">
        <ele>701.9</ele>
        <time>2022-02-17T13:49:09Z</time>
      </trkpt>
      <trkpt lat="45.38098" lon="4.38352">
        <ele>704.3</ele>
        <time>2022-02-17T13:49:22Z</time>
      </trkpt>
      <trkpt lat="45.38102" lon="4.38331">
        <ele>704.3</ele>
        <time>2022-02-17T13:49:34Z</time>
      </trkpt>
      <trkpt lat="45.38101" lon="4.38311">
        <ele>705.26</ele>
        <time>2022-02-17T13:49:45Z</time>
      </trkpt>
      <trkpt lat="45.38099" lon="4.38286">
        <ele>708.63</ele>
        <time>2022-02-17T13:50:00Z</time>
      </trkpt>
      <trkpt lat="45.38099" lon="4.38285">
        <ele>709.11</ele>
        <time>2022-02-17T13:50:01Z</time>
      </trkpt>
      <trkpt lat="45.38103" lon="4.38277">
        <ele>710.55</ele>
        <time>2022-02-17T13:50:07Z</time>
      </trkpt>
      <trkpt lat="45.38113" lon="4.38258">
        <ele>711.51</ele>
        <time>2022-02-17T13:50:21Z</time>
      </trkpt>
      <trkpt lat="45.38118" lon="4.38243">
        <ele>715.84</ele>
        <time>2022-02-17T13:50:33Z</time>
      </trkpt>
      <trkpt lat="45.3812" lon="4.3823">
        <ele>714.88</ele>
        <time>2022-02-17T13:50:41Z</time>
      </trkpt>
      <trkpt lat="45.38122" lon="4.38223">
        <ele>714.88</ele>
        <time>2022-02-17T13:50:45Z</time>
      </trkpt>
      <trkpt lat="45.3812" lon="4.38191">
        <ele>716.32</ele>
        <time>2022-02-17T13:51:03Z</time>
      </trkpt>
      <trkpt lat="45.38117" lon="4.3817">
        <ele>716.8</ele>
        <time>2022-02-17T13:51:15Z</time>
      </trkpt>
      <trkpt lat="45.38116" lon="4.38147">
        <ele>716.8</ele>
        <time>2022-02-17T13:51:27Z</time>
      </trkpt>
      <trkpt lat="45.38122" lon="4.38122">
        <ele>716.32</ele>
        <time>2022-02-17T13:51:41Z</time>
      </trkpt>
      <trkpt lat="45.38139" lon="4.38112">
        <ele>716.32</ele>
        <time>2022-02-17T13:51:55Z</time>
      </trkpt>
      <trkpt lat="45.38159" lon="4.38102">
        <ele>718.24</ele>
        <time>2022-02-17T13:52:10Z</time>
      </trkpt>
      <trkpt lat="45.3818" lon="4.3809">
        <ele>719.2</ele>
        <time>2022-02-17T13:52:26Z</time>
      </trkpt>
      <trkpt lat="45.382" lon="4.38083">
        <ele>720.16</ele>
        <time>2022-02-17T13:52:41Z</time>
      </trkpt>
      <trkpt lat="45.38222" lon="4.3808">
        <ele>722.57</ele>
        <time>2022-02-17T13:52:56Z</time>
      </trkpt>
      <trkpt lat="45.38243" lon="4.38074">
        <ele>724.97</ele>
        <time>2022-02-17T13:53:11Z</time>
      </trkpt>
      <trkpt lat="45.38258" lon="4.38065">
        <ele>727.37</ele>
        <time>2022-02-17T13:53:24Z</time>
      </trkpt>
      <trkpt lat="45.38272" lon="4.38056">
        <ele>729.3</ele>
        <time>2022-02-17T13:53:35Z</time>
      </trkpt>
      <trkpt lat="45.38287" lon="4.38042">
        <ele>727.86</ele>
        <time>2022-02-17T13:53:50Z</time>
      </trkpt>
      <trkpt lat="45.38298" lon="4.38032">
        <ele>727.37</ele>
        <time>2022-02-17T13:54:02Z</time>
      </trkpt>
      <trkpt lat="45.38313" lon="4.38023">
        <ele>728.34</ele>
        <time>2022-02-17T13:54:14Z</time>
      </trkpt>
      <trkpt lat="45.38317" lon="4.3802">
        <ele>728.34</ele>
        <time>2022-02-17T13:54:17Z</time>
      </trkpt>
      <trkpt lat="45.38337" lon="4.3801">
        <ele>730.74</ele>
        <time>2022-02-17T13:54:32Z</time>
      </trkpt>
      <trkpt lat="45.3836" lon="4.38005">
        <ele>730.26</ele>
        <time>2022-02-17T13:54:48Z</time>
      </trkpt>
      <trkpt lat="45.38376" lon="4.37995">
        <ele>731.7</ele>
        <time>2022-02-17T13:55:01Z</time>
      </trkpt>
      <trkpt lat="45.38378" lon="4.37994">
        <ele>731.7</ele>
        <time>2022-02-17T13:55:03Z</time>
      </trkpt>
      <trkpt lat="45.38392" lon="4.37981">
        <ele>733.62</ele>
        <time>2022-02-17T13:55:17Z</time>
      </trkpt>
      <trkpt lat="45.38406" lon="4.37963">
        <ele>732.66</ele>
        <time>2022-02-17T13:55:31Z</time>
      </trkpt>
      <trkpt lat="45.38419" lon="4.37944">
        <ele>732.66</ele>
        <time>2022-02-17T13:55:44Z</time>
      </trkpt>
      <trkpt lat="45.38432" lon="4.37919">
        <ele>732.66</ele>
        <time>2022-02-17T13:56:00Z</time>
      </trkpt>
      <trkpt lat="45.38447" lon="4.37893">
        <ele>730.26</ele>
        <time>2022-02-17T13:56:16Z</time>
      </trkpt>
      <trkpt lat="45.38454" lon="4.37869">
        <ele>729.78</ele>
        <time>2022-02-17T13:56:30Z</time>
      </trkpt>
      <trkpt lat="45.38458" lon="4.37862">
        <ele>730.26</ele>
        <time>2022-02-17T13:56:34Z</time>
      </trkpt>
      <trkpt lat="45.38464" lon="4.37855">
        <ele>730.74</ele>
        <time>2022-02-17T13:56:41Z</time>
      </trkpt>
      <trkpt lat="45.38482" lon="4.37848">
        <ele>732.18</ele>
        <time>2022-02-17T13:56:56Z</time>
      </trkpt>
      <trkpt lat="45.38503" lon="4.37856">
        <ele>732.66</ele>
        <time>2022-02-17T13:57:11Z</time>
      </trkpt>
      <trkpt lat="45.3852" lon="4.37865">
        <ele>733.14</ele>
        <time>2022-02-17T13:57:25Z</time>
      </trkpt>
      <trkpt lat="45.38536" lon="4.3788">
        <ele>734.58</ele>
        <time>2022-02-17T13:57:39Z</time>
      </trkpt>
      <trkpt lat="45.38545" lon="4.37893">
        <ele>735.55</ele>
        <time>2022-02-17T13:57:49Z</time>
      </trkpt>
      <trkpt lat="45.38548" lon="4.37895">
        <ele>736.03</ele>
        <time>2022-02-17T13:57:52Z</time>
      </trkpt>
      <trkpt lat="45.38552" lon="4.37899">
        <ele>736.99</ele>
        <time>2022-02-17T13:57:56Z</time>
      </trkpt>
      <trkpt lat="45.38566" lon="4.37909">
        <ele>740.83</ele>
        <time>2022-02-17T13:58:09Z</time>
      </trkpt>
      <trkpt lat="45.38582" lon="4.37911">
        <ele>745.16</ele>
        <time>2022-02-17T13:58:22Z</time>
      </trkpt>
      <trkpt lat="45.38599" lon="4.37898">
        <ele>750.45</ele>
        <time>2022-02-17T13:58:35Z</time>
      </trkpt>
      <trkpt lat="45.38606" lon="4.3789">
        <ele>751.41</ele>
        <time>2022-02-17T13:58:42Z</time>
      </trkpt>
      <trkpt lat="45.38627" lon="4.37876">
        <ele>749.97</ele>
        <time>2022-02-17T13:58:57Z</time>
      </trkpt>
      <trkpt lat="45.38646" lon="4.37862">
        <ele>748.52</ele>
        <time>2022-02-17T13:59:13Z</time>
      </trkpt>
      <trkpt lat="45.38667" lon="4.37845">
        <ele>745.64</ele>
        <time>2022-02-17T13:59:29Z</time>
      </trkpt>
      <trkpt lat="45.38686" lon="4.37834">
        <ele>746.12</ele>
        <time>2022-02-17T13:59:44Z</time>
      </trkpt>
      <trkpt lat="45.38706" lon="4.37818">
        <ele>746.12</ele>
        <time>2022-02-17T14:00:00Z</time>
      </trkpt>
      <trkpt lat="45.38719" lon="4.37797">
        <ele>746.12</ele>
        <time>2022-02-17T14:00:15Z</time>
      </trkpt>
      <trkpt lat="45.38733" lon="4.37775">
        <ele>745.16</ele>
        <time>2022-02-17T14:00:29Z</time>
      </trkpt>
      <trkpt lat="45.38748" lon="4.37756">
        <ele>746.6</ele>
        <time>2022-02-17T14:00:44Z</time>
      </trkpt>
      <trkpt lat="45.38766" lon="4.3774">
        <ele>746.6</ele>
        <time>2022-02-17T14:00:59Z</time>
      </trkpt>
      <trkpt lat="45.38789" lon="4.37722">
        <ele>746.6</ele>
        <time>2022-02-17T14:01:17Z</time>
      </trkpt>
      <trkpt lat="45.38806" lon="4.37712">
        <ele>748.04</ele>
        <time>2022-02-17T14:01:31Z</time>
      </trkpt>
      <trkpt lat="45.38825" lon="4.37704">
        <ele>750.45</ele>
        <time>2022-02-17T14:01:45Z</time>
      </trkpt>
      <trkpt lat="45.38837" lon="4.37702">
        <ele>748.9</ele>
      </trkpt>
      <trkpt lat="45.38852" lon="4.37706">
        <ele>750.8</ele>
      </trkpt>
      <trkpt lat="45.38881" lon="4.37709">
        <ele>754.7</ele>
      </trkpt>
      <trkpt lat="45.38905" lon="4.37696">
        <ele>755.8</ele>
      </trkpt>
      <trkpt lat="45.38919" lon="4.37674">
        <ele>756</ele>
      </trkpt>
      <trkpt lat="45.38956" lon="4.37572">
        <ele>758.7</ele>
      </trkpt>
      <trkpt lat="45.38989" lon="4.37492">
        <ele>759.5</ele>
      </trkpt>
      <trkpt lat="45.39052" lon="4.37377">
        <ele>768.5</ele>
      </trkpt>
      <trkpt lat="45.39063" lon="4.37365">
        <ele>771.4</ele>
      </trkpt>
      <trkpt lat="45.39066" lon="4.37363">
        <ele>771.7</ele>
      </trkpt>
      <trkpt lat="45.39066" lon="4.37358">
        <ele>771.5</ele>
      </trkpt>
      <trkpt lat="45.39065" lon="4.37305">
        <ele>768</ele>
      </trkpt>
      <trkpt lat="45.39065" lon="4.37249">
        <ele>767</ele>
      </trkpt>
      <trkpt lat="45.3907" lon="4.37157">
        <ele>765.2</ele>
      </trkpt>
      <trkpt lat="45.39104" lon="4.37063">
        <ele>759.2</ele>
      </trkpt>
      <trkpt lat="45.39119" lon="4.36997">
        <ele>749.4</ele>
      </trkpt>
      <trkpt lat="45.39138" lon="4.36934">
        <ele>739.6</ele>
      </trkpt>
      <trkpt lat="45.39164" lon="4.36873">
        <ele>728.7</ele>
      </trkpt>
      <trkpt lat="45.39191" lon="4.36832">
        <ele>722.6</ele>
      </trkpt>
      <trkpt lat="45.39215" lon="4.36786">
        <ele>716.6</ele>
      </trkpt>
      <trkpt lat="45.39226" lon="4.36737">
        <ele>714.1</ele>
      </trkpt>
      <trkpt lat="45.3924" lon="4.3669">
        <ele>711.1</ele>
      </trkpt>
      <trkpt lat="45.39239" lon="4.36659">
        <ele>709.7</ele>
      </trkpt>
      <trkpt lat="45.39246" lon="4.36641">
        <ele>709.1</ele>
      </trkpt>
      <trkpt lat="45.39269" lon="4.36636">
        <ele>707.1</ele>
      </trkpt>
      <trkpt lat="45.39271" lon="4.36638">
        <ele>706.8</ele>
      </trkpt>
      <trkpt lat="45.39283" lon="4.36652">
        <ele>704.4</ele>
      </trkpt>
      <trkpt lat="45.39285" lon="4.36682">
        <ele>702.2</ele>
      </trkpt>
      <trkpt lat="45.39279" lon="4.36702">
        <ele>702.4</ele>
      </trkpt>
      <trkpt lat="45.3931" lon="4.36806">
        <ele>694.2</ele>
      </trkpt>
      <trkpt lat="45.39322" lon="4.36883">
        <ele>694.1</ele>
      </trkpt>
      <trkpt lat="45.39362" lon="4.36959">
        <ele>693.9</ele>
      </trkpt>
      <trkpt lat="45.39366" lon="4.36977">
        <ele>694.3</ele>
      </trkpt>
      <trkpt lat="45.39387" lon="4.37013">
        <ele>692.3</ele>
      </trkpt>
      <trkpt lat="45.39402" lon="4.37063">
        <ele>692</ele>
      </trkpt>
      <trkpt lat="45.39405" lon="4.37076">
        <ele>692.3</ele>
      </trkpt>
      <trkpt lat="45.39401" lon="4.37102">
        <ele>694.3</ele>
      </trkpt>
      <trkpt lat="45.39397" lon="4.37135">
        <ele>697.3</ele>
      </trkpt>
      <trkpt lat="45.39394" lon="4.37157">
        <ele>699</ele>
      </trkpt>
      <trkpt lat="45.3939" lon="4.37182">
        <ele>701</ele>
      </trkpt>
      <trkpt lat="45.39389" lon="4.37192">
        <ele>701.8</ele>
      </trkpt>
      <trkpt lat="45.39388" lon="4.37223">
        <ele>705.1</ele>
      </trkpt>
      <trkpt lat="45.39389" lon="4.37226">
        <ele>705.1</ele>
      </trkpt>
      <trkpt lat="45.39404" lon="4.37247">
        <ele>705.75</ele>
        <time>2022-02-17T14:32:06Z</time>
      </trkpt>
      <trkpt lat="45.39416" lon="4.37266">
        <ele>703.82</ele>
        <time>2022-02-17T14:32:21Z</time>
      </trkpt>
      <trkpt lat="45.39416" lon="4.37282">
        <ele>703.82</ele>
        <time>2022-02-17T14:32:30Z</time>
      </trkpt>
      <trkpt lat="45.39415" lon="4.3731">
        <ele>701.9</ele>
        <time>2022-02-17T14:32:47Z</time>
      </trkpt>
      <trkpt lat="45.39407" lon="4.37337">
        <ele>700.94</ele>
        <time>2022-02-17T14:33:03Z</time>
      </trkpt>
      <trkpt lat="45.39405" lon="4.37347">
        <ele>700.46</ele>
        <time>2022-02-17T14:33:18Z</time>
      </trkpt>
      <trkpt lat="45.39403" lon="4.37363">
        <ele>699.5</ele>
        <time>2022-02-17T14:33:29Z</time>
      </trkpt>
      <trkpt lat="45.39401" lon="4.37394">
        <ele>700.46</ele>
        <time>2022-02-17T14:33:46Z</time>
      </trkpt>
      <trkpt lat="45.39395" lon="4.37422">
        <ele>700.46</ele>
        <time>2022-02-17T14:34:01Z</time>
      </trkpt>
      <trkpt lat="45.39384" lon="4.37446">
        <ele>701.42</ele>
        <time>2022-02-17T14:34:16Z</time>
      </trkpt>
      <trkpt lat="45.39369" lon="4.37472">
        <ele>701.42</ele>
        <time>2022-02-17T14:34:33Z</time>
      </trkpt>
      <trkpt lat="45.39359" lon="4.37497">
        <ele>700.94</ele>
        <time>2022-02-17T14:34:49Z</time>
      </trkpt>
      <trkpt lat="45.39348" lon="4.37518">
        <ele>702.38</ele>
        <time>2022-02-17T14:35:03Z</time>
      </trkpt>
      <trkpt lat="45.39337" lon="4.37536">
        <ele>702.38</ele>
        <time>2022-02-17T14:35:16Z</time>
      </trkpt>
      <trkpt lat="45.39327" lon="4.37555">
        <ele>704.78</ele>
        <time>2022-02-17T14:35:30Z</time>
      </trkpt>
      <trkpt lat="45.39325" lon="4.37563">
        <ele>705.75</ele>
        <time>2022-02-17T14:35:35Z</time>
      </trkpt>
      <trkpt lat="45.39326" lon="4.37581">
        <ele>707.19</ele>
        <time>2022-02-17T14:35:44Z</time>
      </trkpt>
      <trkpt lat="45.3933" lon="4.3759">
        <ele>707.19</ele>
        <time>2022-02-17T14:35:50Z</time>
      </trkpt>
      <trkpt lat="45.39334" lon="4.37597">
        <ele>708.15</ele>
        <time>2022-02-17T14:35:55Z</time>
      </trkpt>
      <trkpt lat="45.39337" lon="4.37602">
        <ele>710.07</ele>
        <time>2022-02-17T14:35:59Z</time>
      </trkpt>
      <trkpt lat="45.39349" lon="4.37622">
        <ele>713.92</ele>
        <time>2022-02-17T14:36:14Z</time>
      </trkpt>
      <trkpt lat="45.39361" lon="4.37642">
        <ele>715.36</ele>
        <time>2022-02-17T14:36:27Z</time>
      </trkpt>
      <trkpt lat="45.39364" lon="4.37649">
        <ele>714.88</ele>
        <time>2022-02-17T14:36:31Z</time>
      </trkpt>
      <trkpt lat="45.39375" lon="4.37682">
        <ele>713.92</ele>
        <time>2022-02-17T14:36:48Z</time>
      </trkpt>
      <trkpt lat="45.39376" lon="4.37698">
        <ele>713.92</ele>
        <time>2022-02-17T14:36:56Z</time>
      </trkpt>
      <trkpt lat="45.39373" lon="4.37714">
        <ele>712.95</ele>
        <time>2022-02-17T14:37:05Z</time>
      </trkpt>
      <trkpt lat="45.39371" lon="4.37729">
        <ele>714.4</ele>
        <time>2022-02-17T14:37:13Z</time>
      </trkpt>
      <trkpt lat="45.39369" lon="4.37745">
        <ele>712.95</ele>
        <time>2022-02-17T14:37:20Z</time>
      </trkpt>
      <trkpt lat="45.39362" lon="4.37771">
        <ele>711.03</ele>
        <time>2022-02-17T14:37:34Z</time>
      </trkpt>
      <trkpt lat="45.39354" lon="4.37789">
        <ele>711.51</ele>
        <time>2022-02-17T14:37:47Z</time>
      </trkpt>
      <trkpt lat="45.39341" lon="4.3781">
        <ele>711.99</ele>
        <time>2022-02-17T14:38:00Z</time>
      </trkpt>
      <trkpt lat="45.39322" lon="4.37827">
        <ele>710.07</ele>
        <time>2022-02-17T14:38:16Z</time>
      </trkpt>
      <trkpt lat="45.39308" lon="4.37842">
        <ele>710.55</ele>
        <time>2022-02-17T14:38:30Z</time>
      </trkpt>
      <trkpt lat="45.39307" lon="4.37844">
        <ele>711.03</ele>
        <time>2022-02-17T14:38:32Z</time>
      </trkpt>
      <trkpt lat="45.39315" lon="4.37868">
        <ele>715.84</ele>
        <time>2022-02-17T14:38:48Z</time>
      </trkpt>
      <trkpt lat="45.39323" lon="4.37881">
        <ele>717.28</ele>
        <time>2022-02-17T14:38:58Z</time>
      </trkpt>
      <trkpt lat="45.39337" lon="4.37901">
        <ele>720.16</ele>
        <time>2022-02-17T14:39:14Z</time>
      </trkpt>
      <trkpt lat="45.39351" lon="4.37918">
        <ele>722.09</ele>
        <time>2022-02-17T14:39:30Z</time>
      </trkpt>
      <trkpt lat="45.39364" lon="4.37936">
        <ele>725.93</ele>
        <time>2022-02-17T14:39:46Z</time>
      </trkpt>
      <trkpt lat="45.39374" lon="4.37954">
        <ele>728.82</ele>
        <time>2022-02-17T14:40:00Z</time>
      </trkpt>
      <trkpt lat="45.39384" lon="4.37973">
        <ele>731.7</ele>
        <time>2022-02-17T14:40:15Z</time>
      </trkpt>
      <trkpt lat="45.3939" lon="4.37989">
        <ele>734.1</ele>
        <time>2022-02-17T14:40:26Z</time>
      </trkpt>
      <trkpt lat="45.39396" lon="4.38011">
        <ele>737.47</ele>
        <time>2022-02-17T14:40:40Z</time>
      </trkpt>
      <trkpt lat="45.394" lon="4.38033">
        <ele>739.39</ele>
        <time>2022-02-17T14:40:54Z</time>
      </trkpt>
      <trkpt lat="45.39401" lon="4.3804">
        <ele>739.39</ele>
        <time>2022-02-17T14:40:58Z</time>
      </trkpt>
      <trkpt lat="45.39405" lon="4.38052">
        <ele>738.91</ele>
        <time>2022-02-17T14:41:14Z</time>
      </trkpt>
      <trkpt lat="45.39406" lon="4.38062">
        <ele>739.87</ele>
        <time>2022-02-17T14:41:29Z</time>
      </trkpt>
      <trkpt lat="45.39406" lon="4.38065">
        <ele>739.39</ele>
        <time>2022-02-17T14:41:43Z</time>
      </trkpt>
      <trkpt lat="45.39407" lon="4.38064">
        <ele>737.95</ele>
        <time>2022-02-17T14:42:12Z</time>
      </trkpt>
      <trkpt lat="45.39406" lon="4.38063">
        <ele>738.91</ele>
        <time>2022-02-17T14:42:33Z</time>
      </trkpt>
      <trkpt lat="45.39404" lon="4.38064">
        <ele>739.39</ele>
        <time>2022-02-17T14:42:46Z</time>
      </trkpt>
      <trkpt lat="45.39405" lon="4.38066">
        <ele>737.95</ele>
        <time>2022-02-17T14:43:05Z</time>
      </trkpt>
      <trkpt lat="45.39405" lon="4.38067">
        <ele>739.87</ele>
        <time>2022-02-17T14:43:38Z</time>
      </trkpt>
      <trkpt lat="45.39408" lon="4.38086">
        <ele>739.87</ele>
        <time>2022-02-17T14:43:50Z</time>
      </trkpt>
      <trkpt lat="45.39399" lon="4.38119">
        <ele>739.39</ele>
        <time>2022-02-17T14:44:08Z</time>
      </trkpt>
      <trkpt lat="45.39383" lon="4.38144">
        <ele>740.83</ele>
        <time>2022-02-17T14:44:26Z</time>
      </trkpt>
      <trkpt lat="45.39369" lon="4.38166">
        <ele>738.43</ele>
        <time>2022-02-17T14:44:39Z</time>
      </trkpt>
      <trkpt lat="45.39364" lon="4.38173">
        <ele>736.99</ele>
        <time>2022-02-17T14:44:46Z</time>
      </trkpt>
      <trkpt lat="45.39353" lon="4.38191">
        <ele>737.95</ele>
        <time>2022-02-17T14:44:57Z</time>
      </trkpt>
      <trkpt lat="45.3935" lon="4.38194">
        <ele>738.43</ele>
        <time>2022-02-17T14:44:59Z</time>
      </trkpt>
      <trkpt lat="45.39343" lon="4.3821">
        <ele>738.91</ele>
        <time>2022-02-17T14:45:09Z</time>
      </trkpt>
      <trkpt lat="45.39334" lon="4.38228">
        <ele>736.99</ele>
        <time>2022-02-17T14:45:23Z</time>
      </trkpt>
      <trkpt lat="45.39327" lon="4.38244">
        <ele>737.95</ele>
        <time>2022-02-17T14:45:36Z</time>
      </trkpt>
      <trkpt lat="45.39315" lon="4.38265">
        <ele>736.51</ele>
        <time>2022-02-17T14:45:49Z</time>
      </trkpt>
      <trkpt lat="45.39315" lon="4.38266">
        <ele>736.51</ele>
        <time>2022-02-17T14:45:50Z</time>
      </trkpt>
      <trkpt lat="45.39302" lon="4.38285">
        <ele>735.55</ele>
        <time>2022-02-17T14:46:04Z</time>
      </trkpt>
      <trkpt lat="45.39299" lon="4.38291">
        <ele>735.55</ele>
        <time>2022-02-17T14:46:08Z</time>
      </trkpt>
      <trkpt lat="45.39293" lon="4.38301">
        <ele>735.55</ele>
        <time>2022-02-17T14:46:14Z</time>
      </trkpt>
      <trkpt lat="45.39279" lon="4.38317">
        <ele>732.18</ele>
        <time>2022-02-17T14:46:28Z</time>
      </trkpt>
      <trkpt lat="45.39273" lon="4.38322">
        <ele>731.22</ele>
        <time>2022-02-17T14:46:32Z</time>
      </trkpt>
      <trkpt lat="45.39269" lon="4.38329">
        <ele>731.7</ele>
        <time>2022-02-17T14:46:36Z</time>
      </trkpt>
      <trkpt lat="45.39271" lon="4.38336">
        <ele>732.66</ele>
        <time>2022-02-17T14:46:40Z</time>
      </trkpt>
      <trkpt lat="45.39272" lon="4.3834">
        <ele>733.62</ele>
        <time>2022-02-17T14:46:42Z</time>
      </trkpt>
      <trkpt lat="45.39273" lon="4.38347">
        <ele>735.07</ele>
        <time>2022-02-17T14:46:46Z</time>
      </trkpt>
      <trkpt lat="45.39274" lon="4.38363">
        <ele>737.95</ele>
        <time>2022-02-17T14:46:53Z</time>
      </trkpt>
      <trkpt lat="45.39268" lon="4.3838">
        <ele>739.87</ele>
        <time>2022-02-17T14:47:02Z</time>
      </trkpt>
      <trkpt lat="45.39264" lon="4.38401">
        <ele>740.83</ele>
        <time>2022-02-17T14:47:15Z</time>
      </trkpt>
      <trkpt lat="45.39262" lon="4.38407">
        <ele>741.31</ele>
        <time>2022-02-17T14:47:19Z</time>
      </trkpt>
      <trkpt lat="45.3926" lon="4.38412">
        <ele>741.31</ele>
        <time>2022-02-17T14:47:22Z</time>
      </trkpt>
      <trkpt lat="45.39256" lon="4.38429">
        <ele>741.31</ele>
        <time>2022-02-17T14:47:32Z</time>
      </trkpt>
      <trkpt lat="45.39255" lon="4.38441">
        <ele>743.72</ele>
        <time>2022-02-17T14:47:40Z</time>
      </trkpt>
      <trkpt lat="45.39254" lon="4.38449">
        <ele>744.68</ele>
        <time>2022-02-17T14:47:45Z</time>
      </trkpt>
      <trkpt lat="45.39248" lon="4.38463">
        <ele>743.24</ele>
        <time>2022-02-17T14:47:51Z</time>
      </trkpt>
      <trkpt lat="45.39248" lon="4.38467">
        <ele>742.76</ele>
        <time>2022-02-17T14:47:54Z</time>
      </trkpt>
      <trkpt lat="45.39242" lon="4.38484">
        <ele>744.2</ele>
        <time>2022-02-17T14:48:07Z</time>
      </trkpt>
      <trkpt lat="45.39231" lon="4.38497">
        <ele>744.2</ele>
        <time>2022-02-17T14:48:19Z</time>
      </trkpt>
      <trkpt lat="45.39225" lon="4.38507">
        <ele>745.64</ele>
        <time>2022-02-17T14:48:29Z</time>
      </trkpt>
      <trkpt lat="45.3922" lon="4.38516">
        <ele>746.12</ele>
        <time>2022-02-17T14:48:35Z</time>
      </trkpt>
      <trkpt lat="45.39212" lon="4.3853">
        <ele>749</ele>
        <time>2022-02-17T14:48:44Z</time>
      </trkpt>
      <trkpt lat="45.39207" lon="4.38544">
        <ele>751.89</ele>
        <time>2022-02-17T14:48:57Z</time>
      </trkpt>
      <trkpt lat="45.39201" lon="4.38558">
        <ele>753.33</ele>
        <time>2022-02-17T14:49:06Z</time>
      </trkpt>
      <trkpt lat="45.39194" lon="4.38574">
        <ele>753.33</ele>
        <time>2022-02-17T14:49:15Z</time>
      </trkpt>
      <trkpt lat="45.39192" lon="4.38587">
        <ele>755.25</ele>
        <time>2022-02-17T14:49:27Z</time>
      </trkpt>
      <trkpt lat="45.39193" lon="4.3859">
        <ele>755.73</ele>
        <time>2022-02-17T14:49:35Z</time>
      </trkpt>
      <trkpt lat="45.39204" lon="4.3859">
        <ele>762.46</ele>
        <time>2022-02-17T14:49:48Z</time>
      </trkpt>
      <trkpt lat="45.39213" lon="4.38586">
        <ele>766.31</ele>
        <time>2022-02-17T14:49:57Z</time>
      </trkpt>
      <trkpt lat="45.39214" lon="4.38585">
        <ele>766.79</ele>
        <time>2022-02-17T14:49:58Z</time>
      </trkpt>
      <trkpt lat="45.3922" lon="4.38585">
        <ele>768.71</ele>
        <time>2022-02-17T14:50:03Z</time>
      </trkpt>
      <trkpt lat="45.39237" lon="4.38576">
        <ele>769.67</ele>
        <time>2022-02-17T14:50:14Z</time>
      </trkpt>
      <trkpt lat="45.39242" lon="4.38573">
        <ele>769.67</ele>
        <time>2022-02-17T14:50:19Z</time>
      </trkpt>
      <trkpt lat="45.39254" lon="4.38567">
        <ele>766.31</ele>
        <time>2022-02-17T14:50:30Z</time>
      </trkpt>
      <trkpt lat="45.39257" lon="4.38567">
        <ele>765.35</ele>
        <time>2022-02-17T14:50:33Z</time>
      </trkpt>
      <trkpt lat="45.39273" lon="4.38555">
        <ele>763.42</ele>
        <time>2022-02-17T14:50:45Z</time>
      </trkpt>
      <trkpt lat="45.39285" lon="4.38547">
        <ele>761.98</ele>
        <time>2022-02-17T14:50:56Z</time>
      </trkpt>
      <trkpt lat="45.39294" lon="4.38544">
        <ele>762.94</ele>
        <time>2022-02-17T14:51:02Z</time>
      </trkpt>
      <trkpt lat="45.393" lon="4.38533">
        <ele>762.94</ele>
        <time>2022-02-17T14:51:14Z</time>
      </trkpt>
      <trkpt lat="45.39301" lon="4.38532">
        <ele>762.94</ele>
        <time>2022-02-17T14:51:15Z</time>
      </trkpt>
      <trkpt lat="45.39312" lon="4.38524">
        <ele>760.54</ele>
        <time>2022-02-17T14:51:24Z</time>
      </trkpt>
      <trkpt lat="45.39312" lon="4.38522">
        <ele>758.14</ele>
        <time>2022-02-17T14:51:36Z</time>
      </trkpt>
      <trkpt lat="45.39317" lon="4.38518">
        <ele>758.14</ele>
        <time>2022-02-17T14:51:40Z</time>
      </trkpt>
      <trkpt lat="45.39319" lon="4.38514">
        <ele>756.21</ele>
        <time>2022-02-17T14:51:45Z</time>
      </trkpt>
      <trkpt lat="45.39322" lon="4.38507">
        <ele>756.21</ele>
        <time>2022-02-17T14:51:50Z</time>
      </trkpt>
      <trkpt lat="45.39325" lon="4.38501">
        <ele>756.21</ele>
        <time>2022-02-17T14:51:54Z</time>
      </trkpt>
      <trkpt lat="45.3933" lon="4.38494">
        <ele>755.25</ele>
        <time>2022-02-17T14:51:59Z</time>
      </trkpt>
      <trkpt lat="45.39335" lon="4.3849">
        <ele>756.21</ele>
        <time>2022-02-17T14:52:04Z</time>
      </trkpt>
      <trkpt lat="45.39341" lon="4.38483">
        <ele>757.66</ele>
        <time>2022-02-17T14:52:09Z</time>
      </trkpt>
      <trkpt lat="45.39348" lon="4.38473">
        <ele>759.58</ele>
        <time>2022-02-17T14:52:15Z</time>
      </trkpt>
      <trkpt lat="45.39357" lon="4.38458">
        <ele>762.46</ele>
        <time>2022-02-17T14:52:25Z</time>
      </trkpt>
      <trkpt lat="45.3936" lon="4.38454">
        <ele>761.5</ele>
        <time>2022-02-17T14:52:28Z</time>
      </trkpt>
      <trkpt lat="45.39377" lon="4.38438">
        <ele>757.18</ele>
        <time>2022-02-17T14:52:42Z</time>
      </trkpt>
      <trkpt lat="45.39386" lon="4.38429">
        <ele>753.33</ele>
        <time>2022-02-17T14:52:50Z</time>
      </trkpt>
      <trkpt lat="45.39391" lon="4.38426">
        <ele>751.41</ele>
        <time>2022-02-17T14:52:55Z</time>
      </trkpt>
      <trkpt lat="45.39405" lon="4.38414">
        <ele>747.08</ele>
        <time>2022-02-17T14:53:07Z</time>
      </trkpt>
      <trkpt lat="45.39412" lon="4.38408">
        <ele>746.12</ele>
        <time>2022-02-17T14:53:13Z</time>
      </trkpt>
      <trkpt lat="45.39416" lon="4.38404">
        <ele>746.12</ele>
        <time>2022-02-17T14:53:16Z</time>
      </trkpt>
      <trkpt lat="45.39419" lon="4.38397">
        <ele>746.12</ele>
        <time>2022-02-17T14:53:20Z</time>
      </trkpt>
      <trkpt lat="45.39421" lon="4.38394">
        <ele>745.64</ele>
        <time>2022-02-17T14:53:22Z</time>
      </trkpt>
      <trkpt lat="45.39425" lon="4.38386">
        <ele>745.64</ele>
        <time>2022-02-17T14:53:27Z</time>
      </trkpt>
      <trkpt lat="45.39432" lon="4.38377">
        <ele>745.64</ele>
        <time>2022-02-17T14:53:34Z</time>
      </trkpt>
      <trkpt lat="45.39448" lon="4.38364">
        <ele>745.64</ele>
        <time>2022-02-17T14:53:49Z</time>
      </trkpt>
      <trkpt lat="45.39465" lon="4.38357">
        <ele>744.2</ele>
        <time>2022-02-17T14:54:01Z</time>
      </trkpt>
      <trkpt lat="45.39472" lon="4.38355">
        <ele>744.2</ele>
        <time>2022-02-17T14:54:08Z</time>
      </trkpt>
      <trkpt lat="45.39476" lon="4.38356">
        <ele>744.2</ele>
        <time>2022-02-17T14:54:14Z</time>
      </trkpt>
      <trkpt lat="45.39481" lon="4.38358">
        <ele>744.68</ele>
        <time>2022-02-17T14:54:26Z</time>
      </trkpt>
      <trkpt lat="45.39482" lon="4.38359">
        <ele>745.16</ele>
        <time>2022-02-17T14:54:44Z</time>
      </trkpt>
      <trkpt lat="45.39485" lon="4.3836">
        <ele>745.64</ele>
        <time>2022-02-17T14:54:52Z</time>
      </trkpt>
      <trkpt lat="45.3949" lon="4.38366">
        <ele>744.2</ele>
        <time>2022-02-17T14:54:58Z</time>
      </trkpt>
      <trkpt lat="45.395" lon="4.38377">
        <ele>732.66</ele>
        <time>2022-02-17T14:55:10Z</time>
      </trkpt>
      <trkpt lat="45.39505" lon="4.38387">
        <ele>715.36</ele>
        <time>2022-02-17T14:55:21Z</time>
      </trkpt>
      <trkpt lat="45.39504" lon="4.38397">
        <ele>701.42</ele>
        <time>2022-02-17T14:55:31Z</time>
      </trkpt>
      <trkpt lat="45.39502" lon="4.38405">
        <ele>694.21</ele>
        <time>2022-02-17T14:55:42Z</time>
      </trkpt>
      <trkpt lat="45.39499" lon="4.38408">
        <ele>688.44</ele>
        <time>2022-02-17T14:55:51Z</time>
      </trkpt>
      <trkpt lat="45.39492" lon="4.38414">
        <ele>682.19</ele>
        <time>2022-02-17T14:55:57Z</time>
      </trkpt>
      <trkpt lat="45.39487" lon="4.38423">
        <ele>670.66</ele>
        <time>2022-02-17T14:56:10Z</time>
      </trkpt>
      <trkpt lat="45.39487" lon="4.38424">
        <ele>667.77</ele>
        <time>2022-02-17T14:56:26Z</time>
      </trkpt>
      <trkpt lat="45.39486" lon="4.38428">
        <ele>665.85</ele>
        <time>2022-02-17T14:56:44Z</time>
      </trkpt>
      <trkpt lat="45.39488" lon="4.38439">
        <ele>664.89</ele>
        <time>2022-02-17T14:56:56Z</time>
      </trkpt>
      <trkpt lat="45.39487" lon="4.38463">
        <ele>658.16</ele>
        <time>2022-02-17T14:57:10Z</time>
      </trkpt>
      <trkpt lat="45.39487" lon="4.38471">
        <ele>655.28</ele>
        <time>2022-02-17T14:57:15Z</time>
      </trkpt>
      <trkpt lat="45.39483" lon="4.38491">
        <ele>644.7</ele>
        <time>2022-02-17T14:57:30Z</time>
      </trkpt>
      <trkpt lat="45.3948" lon="4.38501">
        <ele>637.01</ele>
        <time>2022-02-17T14:57:42Z</time>
      </trkpt>
      <trkpt lat="45.39477" lon="4.38501">
        <ele>639.41</ele>
        <time>2022-02-17T14:57:56Z</time>
      </trkpt>
      <trkpt lat="45.39478" lon="4.38502">
        <ele>641.34</ele>
        <time>2022-02-17T14:58:13Z</time>
      </trkpt>
      <trkpt lat="45.39478" lon="4.38503">
        <ele>641.34</ele>
        <time>2022-02-17T14:58:18Z</time>
      </trkpt>
      <trkpt lat="45.39476" lon="4.38507">
        <ele>640.86</ele>
        <time>2022-02-17T14:58:23Z</time>
      </trkpt>
      <trkpt lat="45.39481" lon="4.38503">
        <ele>639.41</ele>
        <time>2022-02-17T14:58:28Z</time>
      </trkpt>
      <trkpt lat="45.39485" lon="4.38493">
        <ele>639.41</ele>
        <time>2022-02-17T14:58:37Z</time>
      </trkpt>
      <trkpt lat="45.39497" lon="4.38493">
        <ele>641.82</ele>
        <time>2022-02-17T14:58:47Z</time>
      </trkpt>
      <trkpt lat="45.395" lon="4.38489">
        <ele>642.3</ele>
        <time>2022-02-17T14:58:52Z</time>
      </trkpt>
      <trkpt lat="45.39507" lon="4.3848">
        <ele>642.78</ele>
        <time>2022-02-17T14:58:59Z</time>
      </trkpt>
      <trkpt lat="45.39516" lon="4.38464">
        <ele>644.22</ele>
        <time>2022-02-17T14:59:10Z</time>
      </trkpt>
      <trkpt lat="45.39518" lon="4.38461">
        <ele>644.7</ele>
        <time>2022-02-17T14:59:12Z</time>
      </trkpt>
      <trkpt lat="45.39525" lon="4.38443">
        <ele>646.62</ele>
        <time>2022-02-17T14:59:23Z</time>
      </trkpt>
      <trkpt lat="45.3953" lon="4.38436">
        <ele>647.1</ele>
        <time>2022-02-17T14:59:27Z</time>
      </trkpt>
      <trkpt lat="45.39538" lon="4.38422">
        <ele>652.39</ele>
        <time>2022-02-17T14:59:39Z</time>
      </trkpt>
      <trkpt lat="45.39542" lon="4.38419">
        <ele>654.31</ele>
        <time>2022-02-17T14:59:43Z</time>
      </trkpt>
      <trkpt lat="45.39555" lon="4.38414">
        <ele>655.28</ele>
        <time>2022-02-17T14:59:54Z</time>
      </trkpt>
      <trkpt lat="45.39574" lon="4.38408">
        <ele>657.2</ele>
        <time>2022-02-17T15:00:07Z</time>
      </trkpt>
      <trkpt lat="45.39586" lon="4.38399">
        <ele>659.6</ele>
        <time>2022-02-17T15:00:16Z</time>
      </trkpt>
      <trkpt lat="45.39602" lon="4.38389">
        <ele>662.49</ele>
        <time>2022-02-17T15:00:30Z</time>
      </trkpt>
      <trkpt lat="45.39603" lon="4.38388">
        <ele>662.49</ele>
        <time>2022-02-17T15:00:31Z</time>
      </trkpt>
      <trkpt lat="45.39606" lon="4.38387">
        <ele>662.49</ele>
        <time>2022-02-17T15:00:34Z</time>
      </trkpt>
      <trkpt lat="45.39622" lon="4.38361">
        <ele>666.33</ele>
        <time>2022-02-17T15:00:54Z</time>
      </trkpt>
      <trkpt lat="45.39628" lon="4.38354">
        <ele>665.85</ele>
        <time>2022-02-17T15:01:02Z</time>
      </trkpt>
      <trkpt lat="45.39647" lon="4.38333">
        <ele>667.77</ele>
        <time>2022-02-17T15:01:21Z</time>
      </trkpt>
      <trkpt lat="45.39654" lon="4.38329">
        <ele>668.73</ele>
        <time>2022-02-17T15:01:27Z</time>
      </trkpt>
      <trkpt lat="45.39666" lon="4.38324">
        <ele>670.66</ele>
        <time>2022-02-17T15:01:38Z</time>
      </trkpt>
      <trkpt lat="45.39671" lon="4.3832">
        <ele>671.14</ele>
        <time>2022-02-17T15:01:42Z</time>
      </trkpt>
      <trkpt lat="45.39695" lon="4.38313">
        <ele>671.14</ele>
        <time>2022-02-17T15:02:00Z</time>
      </trkpt>
      <trkpt lat="45.39713" lon="4.38318">
        <ele>672.58</ele>
        <time>2022-02-17T15:02:14Z</time>
      </trkpt>
      <trkpt lat="45.39734" lon="4.38327">
        <ele>674.98</ele>
        <time>2022-02-17T15:02:31Z</time>
      </trkpt>
      <trkpt lat="45.39754" lon="4.38336">
        <ele>676.42</ele>
        <time>2022-02-17T15:02:46Z</time>
      </trkpt>
      <trkpt lat="45.39756" lon="4.38337">
        <ele>676.91</ele>
        <time>2022-02-17T15:02:48Z</time>
      </trkpt>
      <trkpt lat="45.39765" lon="4.38341">
        <ele>678.83</ele>
        <time>2022-02-17T15:02:56Z</time>
      </trkpt>
      <trkpt lat="45.39771" lon="4.38344">
        <ele>681.23</ele>
        <time>2022-02-17T15:03:03Z</time>
      </trkpt>
      <trkpt lat="45.39775" lon="4.38344">
        <ele>682.19</ele>
        <time>2022-02-17T15:03:06Z</time>
      </trkpt>
      <trkpt lat="45.39791" lon="4.38335">
        <ele>686.04</ele>
        <time>2022-02-17T15:03:21Z</time>
      </trkpt>
      <trkpt lat="45.39809" lon="4.38321">
        <ele>687.96</ele>
        <time>2022-02-17T15:03:37Z</time>
      </trkpt>
      <trkpt lat="45.39828" lon="4.38311">
        <ele>690.36</ele>
        <time>2022-02-17T15:03:52Z</time>
      </trkpt>
      <trkpt lat="45.39845" lon="4.38305">
        <ele>692.29</ele>
        <time>2022-02-17T15:04:07Z</time>
      </trkpt>
      <trkpt lat="45.39851" lon="4.38301">
        <ele>692.77</ele>
        <time>2022-02-17T15:04:12Z</time>
      </trkpt>
      <trkpt lat="45.39859" lon="4.38303">
        <ele>694.21</ele>
        <time>2022-02-17T15:04:19Z</time>
      </trkpt>
      <trkpt lat="45.39881" lon="4.38296">
        <ele>697.09</ele>
        <time>2022-02-17T15:04:37Z</time>
      </trkpt>
      <trkpt lat="45.39895" lon="4.383">
        <ele>699.02</ele>
        <time>2022-02-17T15:04:48Z</time>
      </trkpt>
      <trkpt lat="45.39897" lon="4.38303">
        <ele>699.98</ele>
        <time>2022-02-17T15:04:51Z</time>
      </trkpt>
      <trkpt lat="45.39903" lon="4.38319">
        <ele>701.42</ele>
        <time>2022-02-17T15:05:03Z</time>
      </trkpt>
      <trkpt lat="45.39911" lon="4.38339">
        <ele>703.82</ele>
        <time>2022-02-17T15:05:17Z</time>
      </trkpt>
      <trkpt lat="45.39915" lon="4.38352">
        <ele>706.71</ele>
        <time>2022-02-17T15:05:31Z</time>
      </trkpt>
      <trkpt lat="45.3992" lon="4.38364">
        <ele>707.67</ele>
        <time>2022-02-17T15:05:44Z</time>
      </trkpt>
      <trkpt lat="45.39921" lon="4.38364">
        <ele>707.67</ele>
        <time>2022-02-17T15:06:10Z</time>
      </trkpt>
      <trkpt lat="45.39921" lon="4.38365">
        <ele>707.67</ele>
        <time>2022-02-17T15:06:27Z</time>
      </trkpt>
      <trkpt lat="45.39926" lon="4.38377">
        <ele>710.07</ele>
        <time>2022-02-17T15:06:39Z</time>
      </trkpt>
      <trkpt lat="45.3994" lon="4.38396">
        <ele>711.03</ele>
        <time>2022-02-17T15:06:53Z</time>
      </trkpt>
      <trkpt lat="45.3995" lon="4.38407">
        <ele>712.95</ele>
        <time>2022-02-17T15:07:03Z</time>
      </trkpt>
      <trkpt lat="45.39953" lon="4.38409">
        <ele>712.95</ele>
        <time>2022-02-17T15:07:05Z</time>
      </trkpt>
      <trkpt lat="45.39971" lon="4.38427">
        <ele>716.8</ele>
        <time>2022-02-17T15:07:23Z</time>
      </trkpt>
      <trkpt lat="45.39987" lon="4.38427">
        <ele>717.76</ele>
        <time>2022-02-17T15:07:35Z</time>
      </trkpt>
      <trkpt lat="45.40004" lon="4.38403">
        <ele>717.76</ele>
        <time>2022-02-17T15:07:52Z</time>
      </trkpt>
      <trkpt lat="45.40007" lon="4.38396">
        <ele>717.76</ele>
        <time>2022-02-17T15:07:56Z</time>
      </trkpt>
      <trkpt lat="45.40022" lon="4.38374">
        <ele>717.76</ele>
        <time>2022-02-17T15:08:12Z</time>
      </trkpt>
      <trkpt lat="45.40035" lon="4.38346">
        <ele>719.2</ele>
        <time>2022-02-17T15:08:29Z</time>
      </trkpt>
      <trkpt lat="45.40047" lon="4.38323">
        <ele>719.68</ele>
        <time>2022-02-17T15:08:44Z</time>
      </trkpt>
      <trkpt lat="45.40065" lon="4.38295">
        <ele>719.68</ele>
        <time>2022-02-17T15:09:02Z</time>
      </trkpt>
      <trkpt lat="45.40085" lon="4.38274">
        <ele>722.09</ele>
        <time>2022-02-17T15:09:20Z</time>
      </trkpt>
      <trkpt lat="45.40104" lon="4.38253">
        <ele>723.53</ele>
        <time>2022-02-17T15:09:38Z</time>
      </trkpt>
      <trkpt lat="45.4012" lon="4.38238">
        <ele>725.93</ele>
        <time>2022-02-17T15:09:53Z</time>
      </trkpt>
      <trkpt lat="45.40133" lon="4.38221">
        <ele>729.78</ele>
        <time>2022-02-17T15:10:08Z</time>
      </trkpt>
      <trkpt lat="45.40138" lon="4.38203">
        <ele>731.22</ele>
        <time>2022-02-17T15:10:26Z</time>
      </trkpt>
      <trkpt lat="45.40138" lon="4.3821">
        <ele>731.7</ele>
        <time>2022-02-17T15:10:37Z</time>
      </trkpt>
      <trkpt lat="45.40138" lon="4.38214">
        <ele>731.7</ele>
        <time>2022-02-17T15:10:40Z</time>
      </trkpt>
      <trkpt lat="45.40138" lon="4.38217">
        <ele>731.7</ele>
        <time>2022-02-17T15:10:42Z</time>
      </trkpt>
      <trkpt lat="45.40136" lon="4.38248">
        <ele>732.18</ele>
        <time>2022-02-17T15:11:00Z</time>
      </trkpt>
      <trkpt lat="45.40135" lon="4.38278">
        <ele>733.62</ele>
        <time>2022-02-17T15:11:16Z</time>
      </trkpt>
      <trkpt lat="45.40134" lon="4.38283">
        <ele>733.62</ele>
        <time>2022-02-17T15:11:19Z</time>
      </trkpt>
      <trkpt lat="45.40132" lon="4.38294">
        <ele>734.58</ele>
        <time>2022-02-17T15:11:27Z</time>
      </trkpt>
      <trkpt lat="45.4013" lon="4.38305">
        <ele>735.07</ele>
        <time>2022-02-17T15:11:40Z</time>
      </trkpt>
      <trkpt lat="45.40129" lon="4.38307">
        <ele>734.58</ele>
        <time>2022-02-17T15:11:56Z</time>
      </trkpt>
      <trkpt lat="45.4013" lon="4.38306">
        <ele>734.1</ele>
        <time>2022-02-17T15:12:07Z</time>
      </trkpt>
      <trkpt lat="45.40127" lon="4.38301">
        <ele>734.1</ele>
        <time>2022-02-17T15:12:20Z</time>
      </trkpt>
      <trkpt lat="45.40127" lon="4.38302">
        <ele>734.1</ele>
        <time>2022-02-17T15:12:45Z</time>
      </trkpt>
      <trkpt lat="45.40127" lon="4.38305">
        <ele>733.62</ele>
        <time>2022-02-17T15:13:06Z</time>
      </trkpt>
      <trkpt lat="45.40127" lon="4.38307">
        <ele>733.62</ele>
        <time>2022-02-17T15:13:32Z</time>
      </trkpt>
      <trkpt lat="45.40127" lon="4.38308">
        <ele>732.18</ele>
        <time>2022-02-17T15:14:22Z</time>
      </trkpt>
      <trkpt lat="45.40126" lon="4.38309">
        <ele>732.66</ele>
        <time>2022-02-17T15:14:47Z</time>
      </trkpt>
      <trkpt lat="45.40126" lon="4.3831">
        <ele>732.66</ele>
        <time>2022-02-17T15:15:01Z</time>
      </trkpt>
      <trkpt lat="45.40126" lon="4.38311">
        <ele>733.14</ele>
        <time>2022-02-17T15:15:15Z</time>
      </trkpt>
      <trkpt lat="45.40122" lon="4.38321">
        <ele>734.58</ele>
        <time>2022-02-17T15:15:30Z</time>
      </trkpt>
      <trkpt lat="45.40116" lon="4.38337">
        <ele>736.99</ele>
        <time>2022-02-17T15:15:43Z</time>
      </trkpt>
      <trkpt lat="45.40113" lon="4.38355">
        <ele>738.43</ele>
        <time>2022-02-17T15:15:55Z</time>
      </trkpt>
      <trkpt lat="45.40109" lon="4.38381">
        <ele>741.31</ele>
        <time>2022-02-17T15:16:10Z</time>
      </trkpt>
      <trkpt lat="45.40106" lon="4.38402">
        <ele>744.68</ele>
        <time>2022-02-17T15:16:24Z</time>
      </trkpt>
      <trkpt lat="45.40103" lon="4.38432">
        <ele>747.56</ele>
        <time>2022-02-17T15:16:42Z</time>
      </trkpt>
      <trkpt lat="45.401" lon="4.38461">
        <ele>751.41</ele>
        <time>2022-02-17T15:16:59Z</time>
      </trkpt>
      <trkpt lat="45.40099" lon="4.38489">
        <ele>753.33</ele>
        <time>2022-02-17T15:17:16Z</time>
      </trkpt>
      <trkpt lat="45.40101" lon="4.38518">
        <ele>756.69</ele>
        <time>2022-02-17T15:17:33Z</time>
      </trkpt>
      <trkpt lat="45.40105" lon="4.38547">
        <ele>758.62</ele>
        <time>2022-02-17T15:17:49Z</time>
      </trkpt>
      <trkpt lat="45.40106" lon="4.3858">
        <ele>760.54</ele>
        <time>2022-02-17T15:18:07Z</time>
      </trkpt>
      <trkpt lat="45.401" lon="4.38609">
        <ele>762.46</ele>
        <time>2022-02-17T15:18:25Z</time>
      </trkpt>
      <trkpt lat="45.40097" lon="4.38625">
        <ele>764.39</ele>
        <time>2022-02-17T15:18:35Z</time>
      </trkpt>
      <trkpt lat="45.40091" lon="4.38654">
        <ele>767.75</ele>
        <time>2022-02-17T15:18:52Z</time>
      </trkpt>
      <trkpt lat="45.40088" lon="4.38678">
        <ele>770.63</ele>
        <time>2022-02-17T15:19:07Z</time>
      </trkpt>
      <trkpt lat="45.40086" lon="4.38692">
        <ele>771.6</ele>
        <time>2022-02-17T15:19:14Z</time>
      </trkpt>
      <trkpt lat="45.40084" lon="4.38709">
        <ele>773.52</ele>
        <time>2022-02-17T15:19:23Z</time>
      </trkpt>
      <trkpt lat="45.40076" lon="4.38739">
        <ele>777.84</ele>
        <time>2022-02-17T15:19:40Z</time>
      </trkpt>
      <trkpt lat="45.40068" lon="4.38765">
        <ele>781.69</ele>
        <time>2022-02-17T15:19:56Z</time>
      </trkpt>
      <trkpt lat="45.4006" lon="4.38789">
        <ele>783.61</ele>
        <time>2022-02-17T15:20:11Z</time>
      </trkpt>
      <trkpt lat="45.40053" lon="4.38808">
        <ele>785.53</ele>
        <time>2022-02-17T15:20:24Z</time>
      </trkpt>
      <trkpt lat="45.40036" lon="4.3883">
        <ele>789.38</ele>
        <time>2022-02-17T15:20:41Z</time>
      </trkpt>
      <trkpt lat="45.40022" lon="4.38838">
        <ele>790.34</ele>
        <time>2022-02-17T15:20:54Z</time>
      </trkpt>
      <trkpt lat="45.40015" lon="4.38836">
        <ele>791.3</ele>
        <time>2022-02-17T15:21:00Z</time>
      </trkpt>
      <trkpt lat="45.39998" lon="4.38835">
        <ele>794.67</ele>
        <time>2022-02-17T15:21:15Z</time>
      </trkpt>
      <trkpt lat="45.3998" lon="4.38834">
        <ele>797.07</ele>
        <time>2022-02-17T15:21:29Z</time>
      </trkpt>
      <trkpt lat="45.39963" lon="4.3883">
        <ele>799.95</ele>
        <time>2022-02-17T15:21:44Z</time>
      </trkpt>
      <trkpt lat="45.39947" lon="4.38827">
        <ele>802.36</ele>
        <time>2022-02-17T15:21:58Z</time>
      </trkpt>
      <trkpt lat="45.3993" lon="4.38821">
        <ele>805.24</ele>
        <time>2022-02-17T15:22:12Z</time>
      </trkpt>
      <trkpt lat="45.39911" lon="4.38824">
        <ele>807.64</ele>
        <time>2022-02-17T15:22:27Z</time>
      </trkpt>
      <trkpt lat="45.39894" lon="4.38836">
        <ele>809.57</ele>
        <time>2022-02-17T15:22:43Z</time>
      </trkpt>
      <trkpt lat="45.39879" lon="4.38844">
        <ele>814.37</ele>
        <time>2022-02-17T15:22:57Z</time>
      </trkpt>
      <trkpt lat="45.39865" lon="4.38851">
        <ele>815.82</ele>
        <time>2022-02-17T15:23:09Z</time>
      </trkpt>
      <trkpt lat="45.39851" lon="4.3887">
        <ele>816.3</ele>
        <time>2022-02-17T15:23:25Z</time>
      </trkpt>
      <trkpt lat="45.39851" lon="4.38872">
        <ele>816.78</ele>
        <time>2022-02-17T15:23:26Z</time>
      </trkpt>
      <trkpt lat="45.39864" lon="4.389">
        <ele>817.26</ele>
        <time>2022-02-17T15:23:45Z</time>
      </trkpt>
      <trkpt lat="45.39875" lon="4.38928">
        <ele>819.66</ele>
        <time>2022-02-17T15:24:02Z</time>
      </trkpt>
      <trkpt lat="45.39879" lon="4.38945">
        <ele>821.58</ele>
        <time>2022-02-17T15:24:12Z</time>
      </trkpt>
      <trkpt lat="45.39877" lon="4.38973">
        <ele>822.06</ele>
        <time>2022-02-17T15:24:29Z</time>
      </trkpt>
      <trkpt lat="45.39878" lon="4.38979">
        <ele>822.06</ele>
        <time>2022-02-17T15:24:35Z</time>
      </trkpt>
      <trkpt lat="45.39882" lon="4.39012">
        <ele>820.62</ele>
        <time>2022-02-17T15:24:52Z</time>
      </trkpt>
      <trkpt lat="45.39884" lon="4.39046">
        <ele>822.06</ele>
        <time>2022-02-17T15:25:09Z</time>
      </trkpt>
      <trkpt lat="45.39882" lon="4.39078">
        <ele>823.51</ele>
        <time>2022-02-17T15:25:26Z</time>
      </trkpt>
      <trkpt lat="45.39883" lon="4.39113">
        <ele>824.95</ele>
        <time>2022-02-17T15:25:45Z</time>
      </trkpt>
      <trkpt lat="45.39872" lon="4.39142">
        <ele>826.87</ele>
        <time>2022-02-17T15:26:03Z</time>
      </trkpt>
      <trkpt lat="45.39864" lon="4.39167">
        <ele>829.27</ele>
        <time>2022-02-17T15:26:18Z</time>
      </trkpt>
      <trkpt lat="45.39851" lon="4.39194">
        <ele>832.16</ele>
        <time>2022-02-17T15:26:36Z</time>
      </trkpt>
      <trkpt lat="45.39838" lon="4.39221">
        <ele>834.08</ele>
        <time>2022-02-17T15:26:53Z</time>
      </trkpt>
      <trkpt lat="45.39826" lon="4.39247">
        <ele>835.52</ele>
        <time>2022-02-17T15:27:10Z</time>
      </trkpt>
      <trkpt lat="45.39814" lon="4.39269">
        <ele>837.93</ele>
        <time>2022-02-17T15:27:26Z</time>
      </trkpt>
      <trkpt lat="45.39801" lon="4.39292">
        <ele>840.33</ele>
        <time>2022-02-17T15:27:42Z</time>
      </trkpt>
      <trkpt lat="45.39792" lon="4.39322">
        <ele>843.21</ele>
        <time>2022-02-17T15:27:59Z</time>
      </trkpt>
      <trkpt lat="45.39781" lon="4.39349">
        <ele>845.14</ele>
        <time>2022-02-17T15:28:16Z</time>
      </trkpt>
      <trkpt lat="45.39774" lon="4.39377">
        <ele>848.5</ele>
        <time>2022-02-17T15:28:32Z</time>
      </trkpt>
      <trkpt lat="45.39766" lon="4.39405">
        <ele>849.46</ele>
        <time>2022-02-17T15:28:48Z</time>
      </trkpt>
      <trkpt lat="45.39757" lon="4.39433">
        <ele>851.87</ele>
        <time>2022-02-17T15:29:05Z</time>
      </trkpt>
      <trkpt lat="45.3975" lon="4.39463">
        <ele>854.27</ele>
        <time>2022-02-17T15:29:23Z</time>
      </trkpt>
      <trkpt lat="45.39744" lon="4.39492">
        <ele>856.67</ele>
        <time>2022-02-17T15:29:40Z</time>
      </trkpt>
      <trkpt lat="45.39731" lon="4.39515">
        <ele>859.08</ele>
        <time>2022-02-17T15:29:57Z</time>
      </trkpt>
      <trkpt lat="45.39722" lon="4.39538">
        <ele>861</ele>
        <time>2022-02-17T15:30:12Z</time>
      </trkpt>
      <trkpt lat="45.39722" lon="4.39577">
        <ele>862.44</ele>
        <time>2022-02-17T15:30:33Z</time>
      </trkpt>
      <trkpt lat="45.39715" lon="4.39612">
        <ele>864.84</ele>
        <time>2022-02-17T15:30:52Z</time>
      </trkpt>
      <trkpt lat="45.39703" lon="4.39645">
        <ele>866.77</ele>
        <time>2022-02-17T15:31:11Z</time>
      </trkpt>
      <trkpt lat="45.39688" lon="4.39666">
        <ele>867.73</ele>
        <time>2022-02-17T15:31:28Z</time>
      </trkpt>
      <trkpt lat="45.39687" lon="4.39667">
        <ele>868.21</ele>
        <time>2022-02-17T15:31:29Z</time>
      </trkpt>
      <trkpt lat="45.39682" lon="4.39672">
        <ele>867.73</ele>
        <time>2022-02-17T15:31:45Z</time>
      </trkpt>
      <trkpt lat="45.39681" lon="4.39674">
        <ele>867.73</ele>
        <time>2022-02-17T15:32:10Z</time>
      </trkpt>
      <trkpt lat="45.39668" lon="4.39689">
        <ele>868.21</ele>
        <time>2022-02-17T15:32:25Z</time>
      </trkpt>
      <trkpt lat="45.39666" lon="4.3969">
        <ele>868.21</ele>
        <time>2022-02-17T15:32:27Z</time>
      </trkpt>
      <trkpt lat="45.39647" lon="4.39709">
        <ele>868.69</ele>
        <time>2022-02-17T15:32:45Z</time>
      </trkpt>
      <trkpt lat="45.39627" lon="4.39735">
        <ele>870.13</ele>
        <time>2022-02-17T15:33:05Z</time>
      </trkpt>
      <trkpt lat="45.39611" lon="4.39769">
        <ele>869.17</ele>
        <time>2022-02-17T15:33:26Z</time>
      </trkpt>
      <trkpt lat="45.39589" lon="4.39808">
        <ele>868.69</ele>
        <time>2022-02-17T15:33:50Z</time>
      </trkpt>
      <trkpt lat="45.39573" lon="4.39845">
        <ele>869.17</ele>
        <time>2022-02-17T15:34:10Z</time>
      </trkpt>
      <trkpt lat="45.3956" lon="4.39874">
        <ele>869.17</ele>
        <time>2022-02-17T15:34:27Z</time>
      </trkpt>
      <trkpt lat="45.39548" lon="4.39912">
        <ele>870.61</ele>
        <time>2022-02-17T15:34:48Z</time>
      </trkpt>
      <trkpt lat="45.39538" lon="4.39954">
        <ele>871.57</ele>
        <time>2022-02-17T15:35:10Z</time>
      </trkpt>
      <trkpt lat="45.39529" lon="4.39997">
        <ele>872.05</ele>
        <time>2022-02-17T15:35:33Z</time>
      </trkpt>
      <trkpt lat="45.39529" lon="4.40008">
        <ele>871.57</ele>
        <time>2022-02-17T15:35:39Z</time>
      </trkpt>
      <trkpt lat="45.3953" lon="4.40019">
        <ele>872.05</ele>
        <time>2022-02-17T15:35:44Z</time>
      </trkpt>
      <trkpt lat="45.39535" lon="4.40036">
        <ele>873.5</ele>
        <time>2022-02-17T15:35:59Z</time>
      </trkpt>
    </trkseg>
  </trk>
  <trk>
    <name><![CDATA[RANDO GUIZAY 27 KM_3]]></name>
    <trkseg>
      <trkpt lat="45.38795" lon="4.37713">
        <ele>744.5</ele>
      </trkpt>
    </trkseg>
  </trk>
</gpx>